ftp/pub/palmer/observations_modified/2019/November/AR191114_BASE.txt

Download

Sample DateTime	Unit Id	WS Avg 2min	WD Avg 2min	WGS 10min	WGD 10min	Air Temp	Rel Humidity	Dew Point	Pyranometer	Quantum	Air Pressure	Snow Level	Rainfall	PW Current	Visibility	CBase 1	CBase 2	CBase 3	Vert Vis
2019/11/14  00:00:00  BASE  7.56756  338  8.59068  331  -0.9  100   -0.9  15    0     978.9    NA       0.0000   UP       9999  0     0    
2019/11/14  00:01:00  BASE  7.32648  336  8.59068  331  -0.9  100   -0.9  15    0     978.9    NA       0.0000   UP       9999  0     0    
2019/11/14  00:02:00  BASE  6.8502   334  8.59068  331  -0.9  100   -0.9  15    0     978.9    NA       0.0000   9999     0     0     0    
2019/11/14  00:03:00  BASE  6.68556  336  8.59068  331  -0.9  100   -0.9  15    0     978.9    NA       0.0000   9999     0     0     0    
2019/11/14  00:04:00  BASE  6.65616  337  8.59068  331  -0.9  100   -0.9  14    0     978.9    NA       0.0000   9999     0     0     0    
2019/11/14  00:05:00  BASE  6.57384  336  8.59068  331  -0.9  100   -0.9  14    0     978.9    NA       0.0000   9999     0     0     0    
2019/11/14  00:06:00  BASE  6.63264  335  8.59068  331  -0.9  100   -0.9  14    0     978.9    NA       0.0000   9999     0     0     0    
2019/11/14  00:07:00  BASE  6.69144  335  8.59068  331  -0.9  100   -0.9  13    0     978.9    NA       0.0000   9999     0     0     0    
2019/11/14  00:08:00  BASE  6.62088  335  8.379    339  -0.9  100   -0.9  13    0     978.9    NA       0.0000   9999     0     0     0    
2019/11/14  00:09:00  BASE  6.8208   334  8.19672  339  -0.9  100   -0.9  12    0     978.9    NA       0.0000   9999     0     0     0    
2019/11/14  00:10:00  BASE  7.22064  335  8.16732  332  -0.9  100   -0.9  12    0     978.9    NA       0.2540   9999     0     0     0    
2019/11/14  00:11:00  BASE  7.4382   334  8.16732  332  -0.9  100   -0.9  11    0     978.9    NA       0.0000   9999     230   0     0    
2019/11/14  00:12:00  BASE  7.35588  331  8.4672   329  -0.9  100   -0.9  11    0     978.9    NA       0.0000   9999     230   0     0    
2019/11/14  00:13:00  BASE  7.7616   333  8.98464  344  -0.9  100   -0.9  10    0     978.8    NA       0.0000   9999     230   0     0    
2019/11/14  00:14:00  BASE  8.17908  332  8.98464  344  -0.9  100   -0.9  10    0     978.9    NA       0.0000   9999     230   0     0    
2019/11/14  00:15:00  BASE  8.12616  332  8.98464  333  -0.8  100   -0.8  10    0     978.9    NA       0.0000   9999     0     0     0    
2019/11/14  00:16:00  BASE  8.04972  332  8.98464  333  -0.8  100   -0.8  9     0     978.9    NA       0.0000   9999     230   0     0    
2019/11/14  00:17:00  BASE  8.13204  332  8.98464  333  -0.8  100   -0.8  9     0     978.9    NA       0.0000   9999     260   0     0    
2019/11/14  00:18:00  BASE  8.43192  333  9.31392  333  -0.8  100   -0.8  9     0     978.8    NA       0.0000   9999     260   0     0    
2019/11/14  00:19:00  BASE  8.7612   332  9.31392  333  -0.8  100   -0.8  9     0     978.9    NA       0.0000   9999     260   0     0    
2019/11/14  00:20:00  BASE  8.69652  331  9.31392  333  -0.8  100   -0.8  9     0     978.9    NA       0.0000   9999     260   0     0    
2019/11/14  00:21:00  BASE  8.37312  331  9.31392  333  -0.8  100   -0.8  8     0     978.9    NA       0.0000   9999     300   0     0    
2019/11/14  00:22:00  BASE  8.2908   331  9.31392  333  -0.8  100   -0.8  8     0     978.9    NA       0.0000   9999     300   0     0    
2019/11/14  00:23:00  BASE  8.16732  331  9.31392  333  -0.8  100   -0.8  8     0     978.9    NA       0.0000   9999     260   0     0    
2019/11/14  00:24:00  BASE  7.9674   332  9.31392  333  -0.8  100   -0.8  8     0     979.0    NA       0.0000   9999     300   0     0    
2019/11/14  00:25:00  BASE  7.89684  330  9.31392  333  -0.8  100   -0.8  7     0     979.0    NA       0.0000   9999     300   0     0    
2019/11/14  00:26:00  BASE  7.7028   330  9.31392  333  -0.8  100   -0.8  7     0     979.0    NA       0.0000   9999     300   0     0    
2019/11/14  00:27:00  BASE  7.51464  330  9.31392  333  -0.8  100   -0.8  7     0     979.0    NA       0.0000   9999     300   0     0    
2019/11/14  00:28:00  BASE  7.4382   329  9.22572  331  -0.8  100   -0.8  6     0     979.0    NA       0.0000   9999     330   0     0    
2019/11/14  00:29:00  BASE  7.49112  329  9.22572  331  -0.8  100   -0.8  6     0     979.0    NA       0.0000   9999     330   0     0    
2019/11/14  00:30:00  BASE  7.62636  329  8.98464  327  -0.8  100   -0.8  5     0     979.0    NA       0.0000   9999     300   0     0    
2019/11/14  00:31:00  BASE  7.32648  330  8.98464  327  -0.8  100   -0.8  5     0     979.0    NA       0.0000   9999     300   0     0    
2019/11/14  00:32:00  BASE  7.00308  331  8.80236  330  -0.8  100   -0.8  5     0     979.0    NA       0.0000   9999     300   0     0    
2019/11/14  00:33:00  BASE  7.2324   331  8.59068  330  -0.8  100   -0.8  5     0     979.0    NA       0.0000   9999     300   0     0    
2019/11/14  00:34:00  BASE  7.42056  332  8.59068  330  -0.8  100   -0.8  5     0     979.0    NA       0.0000   9999     300   0     0    
2019/11/14  00:35:00  BASE  7.35     331  8.59068  330  -0.8  100   -0.8  4     0     979.0    NA       0.0000   9000     260   0     0    
2019/11/14  00:36:00  BASE  7.3206   330  8.59068  330  -0.8  100   -0.8  4     0     979.0    NA       0.0000   UP       9000  260   0    
2019/11/14  00:37:00  BASE  7.00896  329  8.4378   327  -0.8  100   -0.8  4     0     979.1    NA       0.0000   UP       8000  260   0    
2019/11/14  00:38:00  BASE  6.6444   330  8.4378   327  -0.8  100   -0.8  4     0     979.1    NA       0.0000   UP       9000  260   0    
2019/11/14  00:39:00  BASE  6.56208  331  8.4378   327  -0.8  100   -0.8  4     0     979.1    NA       0.0000   UP       BR    9999  260  
2019/11/14  00:40:00  BASE  6.72084  330  8.07912  326  -0.8  100   -0.8  4     0     979.1    NA       0.0000   UP       BR    9999  260  
2019/11/14  00:41:00  BASE  6.762    328  8.07912  326  -0.8  100   -0.8  3     0     979.1    NA       0.0000   UP       BR    9000  260  
2019/11/14  00:42:00  BASE  6.40332  329  8.07912  326  -0.8  100   -0.8  3     0     979.2    NA       0.0000   UP       BR    9999  300  
2019/11/14  00:43:00  BASE  6.31512  331  8.07912  326  -0.8  100   -0.8  3     0     979.2    NA       0.0000   UP       BR    9000  300  
2019/11/14  00:44:00  BASE  6.4092   332  8.07912  326  -0.7  100   -0.7  3     0     979.2    NA       0.0000   UP       BR    9000  300  
2019/11/14  00:45:00  BASE  6.49152  332  7.98504  324  -0.7  100   -0.7  3     0     979.2    NA       0.0000   UP       BR    9000  260  
2019/11/14  00:46:00  BASE  6.43272  332  7.59108  330  -0.8  100   -0.8  3     0     979.2    NA       0.0000   UP       BR    9000  260  
2019/11/14  00:47:00  BASE  6.19164  331  7.59108  330  -0.8  100   -0.8  3     0     979.2    NA       0.0000   UP       BR    8000  300  
2019/11/14  00:48:00  BASE  6.12108  330  7.59108  330  -0.8  100   -0.8  3     0     979.2    NA       0.0000   UP       BR    8000  260  
2019/11/14  00:49:00  BASE  6.00936  330  7.59108  330  -0.8  100   -0.8  3     0     979.2    NA       0.0000   UP       BR    9000  230  
2019/11/14  00:50:00  BASE  5.91528  328  7.3206   329  -0.8  100   -0.8  3     0     979.2    NA       0.0000   UP       BR    9000  0    
2019/11/14  00:51:00  BASE  5.81532  328  7.2618   328  -0.8  100   -0.8  3     0     979.2    NA       0.0000   UP       BR    9000  0    
2019/11/14  00:52:00  BASE  5.87412  327  7.2618   328  -0.8  100   -0.8  3     0     979.3    NA       0.0000   UP       BR    9000  260  
2019/11/14  00:53:00  BASE  5.84472  326  7.2618   328  -0.8  100   -0.8  3     0     979.3    NA       0.0000   UP       BR    9000  230  
2019/11/14  00:54:00  BASE  5.79768  325  7.2618   328  -0.8  100   -0.8  3     0     979.3    NA       0.0000   UP       BR    8000  0    
2019/11/14  00:55:00  BASE  5.89176  327  6.89724  327  -0.8  100   -0.8  3     0     979.3    NA       0.0000   UP       BR    6000  260  
2019/11/14  00:56:00  BASE  5.8212   330  6.89724  327  -0.8  100   -0.8  3     0     979.3    NA       0.0000   UP       BR    7000  260  
2019/11/14  00:57:00  BASE  5.59188  331  6.74436  326  -0.8  100   -0.8  3     0     979.4    NA       0.0000   UP       BR    8000  0    
2019/11/14  00:58:00  BASE  5.62128  329  6.74436  326  -0.8  100   -0.8  3     0     979.4    NA       0.0000   UP       BR    5000  0    
2019/11/14  00:59:00  BASE  5.49192  326  6.74436  326  -0.8  100   -0.8  3     0     979.5    NA       0.0000   UP       BR    3700  0    
2019/11/14  01:00:00  BASE  5.25084  324  6.74436  326  -0.8  100   -0.8  2     0     979.5    NA       0.0000   UP       BR    3800  0    
2019/11/14  01:01:00  BASE  5.20968  324  6.71496  323  -0.8  100   -0.8  2     0     979.5    NA       0.0000   UP       BR    3200  0    
2019/11/14  01:02:00  BASE  5.0568   324  6.3504   318  -0.8  100   -0.8  2     0     979.5    NA       0.0000   UP       BR    3800  0    
2019/11/14  01:03:00  BASE  4.851    324  6.3504   318  -0.8  100   -0.8  2     0     979.5    NA       0.0000   UP       BR    2500  0    
2019/11/14  01:04:00  BASE  4.91568  324  6.2328   325  -0.8  100   -0.8  2     0     979.5    NA       0.0000   UP       BR    2200  0    
2019/11/14  01:05:00  BASE  4.99212  324  6.2034   333  -0.8  100   -0.8  2     0     979.6    NA       0.0000   UP       BR    2600  0    
2019/11/14  01:06:00  BASE  4.77456  325  5.99172  326  -0.8  100   -0.8  2     0     979.6    NA       0.0000   UP       BR    2400  0    
2019/11/14  01:07:00  BASE  4.82748  321  5.99172  326  -0.8  100   -0.8  1     0     979.6    NA       0.0000   UP       BR    2000  0    
2019/11/14  01:08:00  BASE  4.77456  319  5.95644  329  -0.9  100   -0.9  1     0     979.6    NA       0.0000   UP       BR    1900  0    
2019/11/14  01:09:00  BASE  4.66872  321  5.95644  329  -0.9  100   -0.9  1     0     979.7    NA       0.0000   UP       BR    2700  0    
2019/11/14  01:10:00  BASE  4.59228  324  5.59776  323  -0.9  100   -0.9  1     0     979.7    NA       0.0000   UP       BR    3900  0    
2019/11/14  01:11:00  BASE  4.39236  325  5.41548  326  -0.9  100   -0.9  1     0     979.7    NA       0.0000   UP       BR    3900  0    
2019/11/14  01:12:00  BASE  4.47468  323  5.35668  318  -0.9  100   -0.9  1     0     979.8    NA       0.0000   UP       BR    4000  0    
2019/11/14  01:13:00  BASE  4.68636  323  5.35668  318  -0.9  100   -0.9  1     0     979.8    NA       0.0000   UP       BR    3400  0    
2019/11/14  01:14:00  BASE  4.72164  320  5.35668  318  -0.9  100   -0.9  1     0     979.8    NA       0.0000   UP       BR    3600  260  
2019/11/14  01:15:00  BASE  4.39236  319  5.35668  318  -0.9  100   -0.9  1     0     979.8    NA       0.0000   UP       BR    4200  0    
2019/11/14  01:16:00  BASE  4.32768  318  5.35668  318  -0.9  100   -0.9  1     0     979.8    NA       0.0000   UP       BR    4800  260  
2019/11/14  01:17:00  BASE  4.4982   319  5.38608  314  -0.9  100   -0.9  1     0     979.8    NA       0.0000   UP       BR    4800  260  
2019/11/14  01:18:00  BASE  4.7922   315  5.95644  315  -0.9  100   -0.9  1     0     979.8    NA       0.0000   UP       BR    4800  260  
2019/11/14  01:19:00  BASE  5.1744   313  5.95644  315  -0.9  100   -0.9  1     0     979.8    NA       0.0000   UP       BR    4800  330  
2019/11/14  01:20:00  BASE  5.145    315  5.95644  315  -0.9  100   -0.9  1     0     979.9    NA       0.0000   UP       BR    6000  260  
2019/11/14  01:21:00  BASE  4.78632  314  5.95644  315  -0.9  100   -0.9  1     0     979.9    NA       0.0000   UP       BR    6000  260  
2019/11/14  01:22:00  BASE  4.53936  312  5.95644  315  -0.9  100   -0.9  0     0     979.9    NA       0.0000   UP       BR    6000  300  
2019/11/14  01:23:00  BASE  4.6158   309  5.95644  315  -0.9  100   -0.9  1     0     979.9    NA       0.0000   UP       BR    6000  260  
2019/11/14  01:24:00  BASE  4.5276   306  5.95644  315  -0.9  100   -0.9  0     0     980.0    NA       0.0000   UP       BR    6000  260  
2019/11/14  01:25:00  BASE  4.55112  308  5.95644  315  -0.9  100   -0.9  0     0     980.0    NA       0.0000   UP       BR    6000  260  
2019/11/14  01:26:00  BASE  4.4688   310  5.95644  315  -0.9  100   -0.9  0     0     980.1    NA       0.0000   UP       BR    4900  230  
2019/11/14  01:27:00  BASE  4.16892  307  5.95644  315  -0.9  100   -0.9  0     0     980.1    NA       0.0000   UP       BR    4100  0    
2019/11/14  01:28:00  BASE  4.1748   303  5.68596  321  -0.9  100   -0.9  0     0     980.1    NA       0.0000   UP       BR    2300  0    
2019/11/14  01:29:00  BASE  4.41     303  5.74476  294  -0.9  100   -0.9  0     0     980.1    NA       0.0000   UP       BR    1700  0    
2019/11/14  01:30:00  BASE  4.45704  304  5.74476  294  -0.9  100   -0.9  0     0     980.1    NA       0.0000   -SN      BR    2800  0    
2019/11/14  01:31:00  BASE  4.44528  301  5.74476  294  -0.9  100   -0.9  0     0     980.1    NA       0.0000   -SN      BR    3500  300  
2019/11/14  01:32:00  BASE  4.40412  300  5.74476  294  -0.9  100   -0.9  0     0     980.1    NA       0.0000   -SN      BR    9999  360  
2019/11/14  01:33:00  BASE  4.5276   302  5.74476  294  -0.9  100   -0.9  0     0     980.1    NA       0.0000   -SN      BR    9999  390  
2019/11/14  01:34:00  BASE  4.5864   301  5.74476  294  -0.9  100   -0.9  0     0     980.2    NA       0.0000   -SN      BR    9999  460  
2019/11/14  01:35:00  BASE  4.557    302  5.74476  294  -0.9  100   -0.9  0     0     980.2    NA       0.0000   -SN      BR    9999  520  
2019/11/14  01:36:00  BASE  4.40412  301  5.74476  294  -0.9  100   -0.9  0     0     980.2    NA       0.0000   -SN      BR    9999  490  
2019/11/14  01:37:00  BASE  4.116    301  5.74476  294  -0.9  100   -0.9  0     0     980.2    NA       0.0000   -SN      BR    9999  460  
2019/11/14  01:38:00  BASE  4.56876  301  6.02112  301  -0.9  100   -0.9  0     0     980.2    NA       0.0000   -SN      BR    9999  520  
2019/11/14  01:39:00  BASE  4.86864  296  6.02112  301  -0.9  100   -0.9  0     0     980.3    NA       0.0000   -SN      BR    9999  520  
2019/11/14  01:40:00  BASE  4.59228  297  6.02112  301  -1.0  100   -1.0  0     0     980.3    NA       0.0000   -SN      BR    9999  520  
2019/11/14  01:41:00  BASE  4.16892  298  6.02112  301  -1.0  100   -1.0  0     0     980.3    NA       0.0000   9999     520   0     0    
2019/11/14  01:42:00  BASE  4.1454   297  6.02112  301  -1.0  100   -1.0  0     0     980.3    NA       0.0000   9999     520   0     0    
2019/11/14  01:43:00  BASE  4.53936  297  6.02112  301  -1.0  100   -1.0  0     0     980.3    NA       0.0000   9999     520   0     0    
2019/11/14  01:44:00  BASE  5.1156   296  6.02112  301  -1.0  100   -1.0  0     0     980.3    NA       0.0000   9999     490   0     0    
2019/11/14  01:45:00  BASE  5.1156   294  6.02112  301  -1.0  100   -1.0  0     0     980.3    NA       0.0000   9999     490   0     0    
2019/11/14  01:46:00  BASE  4.45704  294  6.02112  301  -1.0  100   -1.0  0     0     980.3    NA       0.0000   9999     490   0     0    
2019/11/14  01:47:00  BASE  4.27476  295  6.02112  301  -1.0  100   -1.0  0     0     980.4    NA       0.0000   9999     490   0     0    
2019/11/14  01:48:00  BASE  4.48644  296  5.74476  292  -1.0  100   -1.0  0     0     980.4    NA       0.0000   9999     460   0     0    
2019/11/14  01:49:00  BASE  4.59816  295  5.74476  292  -1.0  100   -1.0  0     0     980.4    NA       0.0000   9999     460   0     0    
2019/11/14  01:50:00  BASE  4.63932  290  5.74476  292  -1.0  100   -1.0  0     0     980.4    NA       0.0000   9999     430   0     0    
2019/11/14  01:51:00  BASE  4.5864   291  5.74476  292  -1.0  100   -1.0  0     0     980.4    NA       0.0000   9999     390   0     0    
2019/11/14  01:52:00  BASE  4.36884  292  5.74476  292  -1.0  100   -1.0  0     0     980.4    NA       0.0000   9999     360   0     0    
2019/11/14  01:53:00  BASE  4.45704  290  5.74476  292  -1.0  100   -1.0  0     0     980.4    NA       0.0000   9999     330   0     0    
2019/11/14  01:54:00  BASE  4.95684  292  5.71536  295  -1.0  100   -1.0  0     0     980.4    NA       0.0000   9999     330   0     0    
2019/11/14  01:55:00  BASE  5.5566   292  7.16772  287  -1.0  100   -1.0  0     0     980.4    NA       0.0000   9999     330   0     0    
2019/11/14  01:56:00  BASE  5.6742   288  7.16772  287  -1.0  100   -1.0  0     0     980.4    NA       0.0000   9999     300   0     0    
2019/11/14  01:57:00  BASE  5.04504  288  7.16772  287  -1.0  100   -1.0  0     0     980.4    NA       0.0000   9999     260   0     0    
2019/11/14  01:58:00  BASE  4.68636  290  7.16772  287  -1.0  100   -1.0  0     0     980.5    NA       0.0000   9999     230   0     0    
2019/11/14  01:59:00  BASE  4.22772  291  7.16772  287  -0.9  100   -0.9  0     0     980.5    NA       0.0000   9999     230   0     0    
2019/11/14  02:00:00  BASE  4.0278   294  7.16772  287  -0.9  100   -0.9  0     0     980.5    NA       0.0000   9999     0     0     0    
2019/11/14  02:01:00  BASE  4.35708  292  7.16772  287  -0.9  100   -0.9  0     0     980.6    NA       0.0000   9999     200   0     0    
2019/11/14  02:02:00  BASE  4.49232  292  7.16772  287  -0.9  100   -0.9  0     0     980.5    NA       0.0000   9999     230   0     0    
2019/11/14  02:03:01  BASE  5.04504  292  7.16772  287  -0.9  100   -0.9  0     0     980.5    NA       0.0000   9999     0     0     0    
2019/11/14  02:04:00  BASE  5.9976   287  7.16772  287  -0.9  100   -0.9  0     0     980.5    NA       0.0000   9999     0     0     0    
2019/11/14  02:05:00  BASE  6.63852  282  7.53228  282  -0.9  100   -0.9  0     0     980.5    NA       0.0000   9999     230   0     0    
2019/11/14  02:06:00  BASE  6.5562   276  7.53228  282  -1.0  100   -1.0  0     0     980.5    NA       0.0000   9999     260   0     0    
2019/11/14  02:07:00  BASE  5.65068  271  7.53228  282  -1.1  100   -1.1  0     0     980.7    NA       0.0000   9999     300   0     0    
2019/11/14  02:08:00  BASE  5.1744   276  7.53228  282  -1.1  100   -1.1  0     0     980.6    NA       0.0000   9999     360   0     0    
2019/11/14  02:09:00  BASE  5.42136  277  7.53228  282  -1.2  100   -1.2  0     0     980.6    NA       0.0000   9999     390   0     0    
2019/11/14  02:10:00  BASE  5.45076  273  7.53228  282  -1.3  100   -1.3  0     0     980.7    NA       0.0000   9999     430   0     0    
2019/11/14  02:11:00  BASE  5.33316  274  7.53228  282  -1.4  100   -1.4  0     0     980.7    NA       0.0000   9999     390   0     0    
2019/11/14  02:12:00  BASE  5.16264  275  7.53228  282  -1.5  100   -1.5  0     0     980.7    NA       0.0000   9999     390   0     0    
2019/11/14  02:13:00  BASE  5.40372  273  7.53228  282  -1.6  100   -1.6  0     0     980.7    NA       0.0000   9999     430   0     0    
2019/11/14  02:14:00  BASE  5.1744   272  7.53228  282  -1.6  100   -1.6  0     0     980.8    NA       0.0000   9999     430   0     0    
2019/11/14  02:15:00  BASE  4.9686   269  7.50288  272  -1.7  100   -1.7  0     0     980.8    NA       0.0000   9999     490   0     0    
2019/11/14  02:16:00  BASE  5.34492  275  6.65616  266  -1.7  100   -1.7  0     0     980.8    NA       0.0000   9999     590   0     0    
2019/11/14  02:17:00  BASE  5.36256  277  6.65616  266  -1.7  100   -1.7  0     0     980.8    NA       0.0000   9999     590   0     0    
2019/11/14  02:18:00  BASE  5.22732  273  6.65616  266  -1.7  100   -1.7  0     0     980.9    NA       0.0000   9999     430   0     0    
2019/11/14  02:19:00  BASE  4.71576  277  6.65616  266  -1.7  100   -1.7  0     0     980.9    NA       0.0000   9999     430   0     0    
2019/11/14  02:20:00  BASE  4.08072  284  6.47388  282  -1.7  100   -1.7  0     0     980.8    NA       0.0000   9999     390   0     0    
2019/11/14  02:21:00  BASE  4.40412  287  6.65616  281  -1.7  100   -1.7  0     0     980.8    NA       0.0000   9999     460   0     0    
2019/11/14  02:22:00  BASE  5.28024  285  6.65616  281  -1.7  100   -1.7  0     0     980.8    NA       0.0000   9999     490   0     0    
2019/11/14  02:23:00  BASE  5.60364  280  7.68516  273  -1.7  100   -1.7  0     0     980.8    NA       0.0000   9999     560   0     0    
2019/11/14  02:24:00  BASE  6.02112  278  7.68516  273  -1.7  100   -1.7  0     0     980.8    NA       0.0000   9999     660   0     0    
2019/11/14  02:25:00  BASE  6.25632  280  7.68516  273  -1.8  100   -1.8  0     0     980.8    NA       0.0000   9999     660   0     0    
2019/11/14  02:26:00  BASE  5.70948  284  7.68516  273  -1.8  100   -1.8  0     0     980.8    NA       0.0000   9999     690   0     0    
2019/11/14  02:27:00  BASE  6.10932  283  7.68516  273  -1.8  100   -1.8  0     0     980.8    NA       0.0000   9999     720   0     0    
2019/11/14  02:28:00  BASE  6.30336  278  7.68516  273  -1.9  100   -1.9  0     0     980.8    NA       0.0000   9999     690   1480  0    
2019/11/14  02:29:00  BASE  5.8506   279  7.68516  273  -1.9  100   -1.9  0     0     980.8    NA       0.0000   9999     720   1570  0    
2019/11/14  02:30:00  BASE  6.10932  282  7.68516  273  -1.9  100   -1.9  0     0     980.8    NA       0.0000   9999     790   1640  0    
2019/11/14  02:31:00  BASE  6.46212  280  7.68516  273  -2.0  100   -2.0  0     0     980.8    NA       0.0000   9999     750   0     0    
2019/11/14  02:32:00  BASE  6.53856  280  7.68516  273  -2.0  100   -2.0  0     0     980.8    NA       0.0000   9999     790   1710  0    
2019/11/14  02:33:00  BASE  6.27396  282  7.68516  273  -2.0  100   -2.0  0     0     980.8    NA       0.0000   9999     750   0     0    
2019/11/14  02:34:00  BASE  5.97408  281  7.3794   284  -2.1  100   -2.1  0     0     980.9    NA       0.0000   9999     890   0     0    
2019/11/14  02:35:00  BASE  5.28612  283  7.3794   284  -2.1  100   -2.1  0     0     980.9    NA       0.0000   9999     720   0     0    
2019/11/14  02:36:00  BASE  4.8804   285  7.3794   284  -2.1  100   -2.1  0     0     980.9    NA       0.0000   9999     690   0     0    
2019/11/14  02:37:00  BASE  5.36844  280  7.3794   284  -2.1  100   -2.1  0     0     980.8    NA       0.0000   9999     820   0     0    
2019/11/14  02:38:00  BASE  5.46252  278  7.3794   284  -2.1  100   -2.1  0     0     980.9    NA       0.0000   9999     750   0     0    
2019/11/14  02:39:00  BASE  4.9098   281  7.3794   284  -2.1  100   -2.1  0     0     980.9    NA       0.0000   9999     720   0     0    
2019/11/14  02:40:00  BASE  4.69224  286  7.13832  265  -2.1  100   -2.1  0     0     980.9    NA       0.0000   9999     620   0     0    
2019/11/14  02:41:00  BASE  5.08032  291  7.05012  280  -2.1  100   -2.1  0     0     980.9    NA       0.0000   9999     490   0     0    
2019/11/14  02:42:00  BASE  5.8212   288  7.05012  280  -2.1  100   -2.1  0     0     980.9    NA       0.0000   9999     430   0     0    
2019/11/14  02:43:00  BASE  6.37392  282  7.44408  284  -2.1  100   -2.1  0     0     980.9    NA       0.0000   9999     430   0     0    
2019/11/14  02:44:00  BASE  6.53856  282  7.44408  284  -2.2  100   -2.2  0     0     980.9    NA       0.0000   9999     590   0     0    
2019/11/14  02:45:00  BASE  6.2328   279  7.44408  284  -2.2  100   -2.2  0     0     981.0    NA       0.0000   9999     590   0     0    
2019/11/14  02:46:00  BASE  5.45076  282  7.44408  284  -2.2  100   -2.2  0     0     981.0    NA       0.0000   9999     560   0     0    
2019/11/14  02:47:00  BASE  5.53896  283  7.44408  284  -2.3  100   -2.3  0     0     981.0    NA       0.0000   9999     560   0     0    
2019/11/14  02:48:00  BASE  5.92704  282  7.44408  284  -2.3  100   -2.3  0     0     981.0    NA       0.0000   9999     560   0     0    
2019/11/14  02:49:00  BASE  6.01524  283  7.44408  284  -2.3  100   -2.3  0     0     980.9    NA       0.0000   9999     660   0     0    
2019/11/14  02:50:00  BASE  5.75652  284  7.44408  284  -2.4  100   -2.4  0     0     981.0    NA       0.0000   9999     590   0     0    
2019/11/14  02:51:00  BASE  4.94508  283  7.44408  284  -2.4  100   -2.4  0     0     981.0    NA       0.0000   9999     590   0     0    
2019/11/14  02:52:00  BASE  4.65108  288  7.44408  284  -2.4  100   -2.4  0     0     981.0    NA       0.0000   9999     560   0     0    
2019/11/14  02:53:00  BASE  5.01564  294  7.3206   284  -2.4  100   -2.4  0     0     981.0    NA       0.0000   9999     590   0     0    
2019/11/14  02:54:00  BASE  5.32728  294  7.13832  280  -2.4  100   -2.4  0     0     981.0    NA       0.0000   9999     560   0     0    
2019/11/14  02:55:00  BASE  5.0862   292  7.13832  280  -2.4  100   -2.4  0     0     981.0    NA       0.0000   9999     620   0     0    
2019/11/14  02:56:00  BASE  5.01564  290  7.13832  280  -2.5  100   -2.5  0     0     981.0    NA       0.0000   9999     560   0     0    
2019/11/14  02:57:00  BASE  4.95096  290  6.98544  285  -2.5  100   -2.5  0     0     981.0    NA       0.0000   9999     560   0     0    
2019/11/14  02:58:00  BASE  5.15088  289  6.98544  285  -2.5  100   -2.5  0     0     981.0    NA       0.0000   9999     590   0     0    
2019/11/14  02:59:00  BASE  5.63304  290  6.41508  286  -2.5  100   -2.5  0     0     981.0    NA       0.0000   9999     660   0     0    
2019/11/14  03:00:00  BASE  5.3214   289  6.41508  286  -2.5  100   -2.5  0     0     981.0    NA       0.0000   9999     620   0     0    
2019/11/14  03:01:00  BASE  5.06268  286  6.41508  286  -2.5  100   -2.5  0     0     981.1    NA       0.0000   9999     590   0     0    
2019/11/14  03:02:00  BASE  4.76868  288  6.41508  286  -2.5  100   -2.5  0     0     981.1    NA       0.0000   9999     620   0     0    
2019/11/14  03:03:00  BASE  4.98036  285  6.59148  283  -2.5  100   -2.5  0     0     981.0    NA       0.0000   9999     660   0     0    
2019/11/14  03:04:00  BASE  5.22144  284  6.59148  283  -2.5  100   -2.5  0     0     981.1    NA       0.0000   9999     690   0     0    
2019/11/14  03:05:00  BASE  5.78004  284  7.50288  287  -2.5  100   -2.5  0     0     981.0    NA       0.0000   9999     690   0     0    
2019/11/14  03:06:00  BASE  6.13872  281  7.50288  287  -2.5  100   -2.5  0     0     981.0    NA       0.0000   9999     750   0     0    
2019/11/14  03:07:00  BASE  5.30964  279  7.50288  287  -2.6  100   -2.6  0     0     981.1    NA       0.0000   9999     890   0     0    
2019/11/14  03:08:00  BASE  4.82748  274  7.50288  287  -2.6  100   -2.6  0     0     981.1    NA       0.0000   9999     850   0     0    
2019/11/14  03:09:00  BASE  4.63932  271  7.50288  287  -2.6  100   -2.6  0     0     981.1    NA       0.0000   9999     790   0     0    
2019/11/14  03:10:00  BASE  5.0568   273  7.50288  287  -2.7  100   -2.7  0     0     981.0    NA       0.0000   9999     790   1380  0    
2019/11/14  03:11:00  BASE  5.46252  273  7.50288  287  -2.7  100   -2.7  0     0     981.0    NA       0.0000   9999     850   0     0    
2019/11/14  03:12:00  BASE  5.60364  276  7.50288  287  -2.7  100   -2.7  0     0     981.0    NA       0.0000   9999     920   2590  0    
2019/11/14  03:13:00  BASE  5.50956  278  7.50288  287  -2.8  100   -2.8  0     0     981.0    NA       0.0000   9999     1380  2400  0    
2019/11/14  03:14:00  BASE  5.35668  277  7.50288  287  -2.8  100   -2.8  0     0     981.0    NA       0.0000   9999     1350  2230  0    
2019/11/14  03:15:00  BASE  5.86824  278  7.2618   266  -2.8  100   -2.8  0     0     981.0    NA       0.0000   9999     2330  0     0    
2019/11/14  03:16:00  BASE  6.34452  276  7.3206   277  -2.9  100   -2.9  0     0     981.0    NA       0.0000   9999     2400  0     0    
2019/11/14  03:17:00  BASE  6.30924  275  7.3206   277  -2.9  100   -2.9  0     0     981.1    NA       0.0000   9999     2300  0     0    
2019/11/14  03:18:00  BASE  6.2916   278  7.92624  273  -2.9  100   -2.9  0     0     981.0    NA       0.0000   9999     2260  0     0    
2019/11/14  03:19:00  BASE  6.21516  280  7.92624  273  -2.9  100   -2.9  0     0     981.1    NA       0.0000   9999     2230  0     0    
2019/11/14  03:20:00  BASE  6.027    282  7.92624  273  -2.9  100   -2.9  0     0     981.1    NA       0.0000   9999     2260  0     0    
2019/11/14  03:21:00  BASE  5.9094   282  7.92624  273  -2.9  100   -2.9  0     0     981.2    NA       0.0000   9999     2260  0     0    
2019/11/14  03:22:00  BASE  5.6448   281  7.92624  273  -2.9  100   -2.9  0     0     981.2    NA       0.0000   9999     1510  2300  0    
2019/11/14  03:23:00  BASE  5.44488  280  7.92624  273  -2.9  100   -2.9  0     0     981.2    NA       0.0000   9999     2200  0     0    
2019/11/14  03:24:00  BASE  5.42724  282  7.92624  273  -2.9  100   -2.9  0     0     981.2    NA       0.0000   9999     1670  2260  0    
2019/11/14  03:25:00  BASE  5.62716  284  7.92624  273  -2.9  100   -2.9  0     0     981.2    NA       0.0000   9999     2300  0     0    
2019/11/14  03:26:00  BASE  5.90352  281  7.92624  273  -2.9  100   -2.9  0     0     981.2    NA       0.0000   9999     2000  0     0    
2019/11/14  03:27:00  BASE  5.90352  282  7.92624  273  -2.9  100   -2.9  0     0     981.2    NA       0.0000   9999     2170  0     0    
2019/11/14  03:28:00  BASE  6.31512  284  7.50288  277  -2.9  100   -2.9  0     0     981.2    NA       0.0000   9999     2130  0     0    
2019/11/14  03:29:00  BASE  6.16224  284  7.50288  277  -2.9  100   -2.9  0     0     981.3    NA       0.0000   9999     2230  0     0    
2019/11/14  03:30:00  BASE  5.88588  283  7.50288  277  -2.8  100   -2.8  0     0     981.3    NA       0.0000   9999     2100  0     0    
2019/11/14  03:31:00  BASE  6.321    280  7.65576  280  -2.8  100   -2.8  0     0     981.3    NA       0.0000   9999     2230  0     0    
2019/11/14  03:32:00  BASE  6.35628  278  7.65576  280  -2.8  100   -2.8  0     0     981.3    NA       0.0000   9999     2260  0     0    
2019/11/14  03:33:00  BASE  6.42096  280  7.65576  280  -2.8  100   -2.8  0     0     981.3    NA       0.0000   9999     2070  0     0    
2019/11/14  03:34:00  BASE  6.49152  283  7.65576  284  -2.8  100   -2.8  0     0     981.3    NA       0.0000   9999     2000  0     0    
2019/11/14  03:35:00  BASE  5.69184  284  7.65576  284  -2.8  100   -2.8  0     0     981.4    NA       0.0000   9999     1900  0     0    
2019/11/14  03:36:00  BASE  5.3214   283  7.65576  284  -2.8  100   -2.8  0     0     981.4    NA       0.0000   9999     1940  0     0    
2019/11/14  03:37:00  BASE  5.88     280  7.65576  284  -2.8  100   -2.8  0     0     981.4    NA       0.0000   9999     1970  0     0    
2019/11/14  03:38:00  BASE  5.733    282  7.65576  284  -2.8  100   -2.8  0     0     981.4    NA       0.0000   9999     1900  0     0    
2019/11/14  03:39:00  BASE  6.15048  282  7.71456  276  -2.8  100   -2.8  0     0     981.4    NA       0.0000   9999     1970  0     0    
2019/11/14  03:40:00  BASE  6.75612  282  7.71456  276  -2.8  100   -2.8  0     0     981.5    NA       0.0000   9999     1970  0     0    
2019/11/14  03:41:00  BASE  6.4092   284  7.71456  276  -2.8  100   -2.8  0     0     981.5    NA       0.0000   9999     1900  0     0    
2019/11/14  03:42:00  BASE  6.56208  284  7.74396  288  -2.8  100   -2.8  0     0     981.5    NA       0.0000   9999     1900  0     0    
2019/11/14  03:43:00  BASE  6.71496  282  7.74396  288  -2.9  100   -2.9  0     0     981.5    NA       0.0000   9999     1770  0     0    
2019/11/14  03:44:00  BASE  6.2622   283  7.74396  288  -2.9  100   -2.9  0     0     981.5    NA       0.0000   9999     1840  0     0    
2019/11/14  03:45:00  BASE  5.76828  283  7.74396  288  -2.9  100   -2.9  0     0     981.6    NA       0.0000   9999     1770  0     0    
2019/11/14  03:46:00  BASE  5.40372  285  7.74396  288  -2.9  100   -2.9  0     0     981.6    NA       0.0000   9999     1410  0     0    
2019/11/14  03:47:00  BASE  5.30376  287  7.74396  288  -2.9  100   -2.9  0     0     981.6    NA       0.0000   9999     1410  0     0    
2019/11/14  03:48:00  BASE  5.36256  286  7.74396  288  -2.9  100   -2.9  0     0     981.7    NA       0.0000   9999     1380  0     0    
2019/11/14  03:49:00  BASE  5.86824  286  7.74396  288  -2.9  100   -2.9  0     0     981.7    NA       0.0000   9999     1380  0     0    
2019/11/14  03:50:00  BASE  6.2622   284  7.74396  288  -2.9  100   -2.9  0     0     981.7    NA       0.0000   9999     1310  0     0    
2019/11/14  03:51:00  BASE  6.1446   284  7.74396  288  -2.9  100   -2.9  0     0     981.7    NA       0.0000   9999     1440  0     0    
2019/11/14  03:52:00  BASE  5.8506   287  7.53228  285  -2.9  100   -2.9  0     0     981.8    NA       0.0000   9999     1410  0     0    
2019/11/14  03:53:00  BASE  5.59188  291  7.53228  285  -2.9  100   -2.9  0     0     981.8    NA       0.0000   9999     1540  0     0    
2019/11/14  03:54:00  BASE  5.60952  293  7.53228  285  -2.9  100   -2.9  0     0     981.8    NA       0.0000   9999     1250  0     0    
2019/11/14  03:55:00  BASE  5.30376  294  7.53228  285  -2.9  100   -2.9  0     0     981.9    NA       0.0000   9999     1250  0     0    
2019/11/14  03:56:00  BASE  5.28024  295  7.53228  285  -2.9  100   -2.9  0     0     981.9    NA       0.0000   9999     1410  0     0    
2019/11/14  03:57:00  BASE  5.4978   293  7.53228  285  -2.9  100   -2.9  0     0     982.0    NA       0.0000   9999     1410  0     0    
2019/11/14  03:58:00  BASE  5.53308  289  7.53228  285  -2.9  100   -2.9  0     0     981.9    NA       0.0000   9999     1510  0     0    
2019/11/14  03:59:00  BASE  5.19204  287  6.89724  289  -2.9  100   -2.9  0     0     982.0    NA       0.0000   9999     1510  0     0    
2019/11/14  04:00:00  BASE  4.90392  287  6.74436  279  -2.9  100   -2.9  0     0     982.0    NA       0.0000   9999     1510  0     0    
2019/11/14  04:02:00  BASE  5.03916  285  6.65616  286  -2.9  100   -2.9  0     0     982.1    NA       0.0000   9999     1570  0     0    
2019/11/14  04:03:00  BASE  5.20968  283  6.65616  286  -2.8  100   -2.8  0     0     982.1    NA       0.0000   9999     1570  0     0    
2019/11/14  04:04:00  BASE  5.05092  282  6.65616  286  -2.8  100   -2.8  0     0     982.1    NA       0.0000   9999     1540  0     0    
2019/11/14  04:05:00  BASE  5.09796  285  6.65616  286  -2.8  100   -2.8  0     0     982.1    NA       0.0000   9999     1510  0     0    
2019/11/14  04:06:00  BASE  5.1744   286  6.65616  286  -2.8  100   -2.8  0     0     982.2    NA       0.0000   9999     1570  0     0    
2019/11/14  04:07:00  BASE  5.00976  285  6.65616  286  -2.8  100   -2.8  0     0     982.1    NA       0.0000   9999     1610  0     0    
2019/11/14  04:08:00  BASE  4.89216  287  6.3504   277  -2.8  100   -2.8  0     0     982.2    NA       0.0000   9999     1540  0     0    
2019/11/14  04:09:00  BASE  4.82748  289  6.07992  279  -2.8  100   -2.8  0     0     982.2    NA       0.0000   9999     1570  0     0    
2019/11/14  04:10:00  BASE  5.00976  288  6.07992  279  -2.8  100   -2.8  0     0     982.2    NA       0.0000   9999     1670  0     0    
2019/11/14  04:11:00  BASE  5.145    289  6.07992  279  -2.8  100   -2.8  0     0     982.2    NA       0.0000   9999     1640  0     0    
2019/11/14  04:12:00  BASE  5.26848  292  6.07992  279  -2.8  100   -2.8  0     0     982.2    NA       0.0000   9999     1640  0     0    
2019/11/14  04:13:00  BASE  5.03916  292  6.07992  279  -2.8  100   -2.8  0     0     982.3    NA       0.0000   9999     1640  0     0    
2019/11/14  04:14:00  BASE  5.0568   293  6.2034   292  -2.8  100   -2.8  0     0     982.2    NA       0.0000   9999     1670  0     0    
2019/11/14  04:15:00  BASE  5.292    292  6.2034   292  -2.8  100   -2.8  0     0     982.3    NA       0.0000   9999     1610  0     0    
2019/11/14  04:16:00  BASE  5.18616  290  6.2034   292  -2.8  100   -2.8  0     0     982.2    NA       0.0000   9999     1280  0     0    
2019/11/14  04:17:00  BASE  5.10384  289  6.2034   292  -2.8  100   -2.8  0     0     982.3    NA       0.0000   9999     1210  0     0    
2019/11/14  04:18:00  BASE  4.9098   287  6.2622   283  -2.8  100   -2.8  0     0     982.3    NA       0.0000   9999     1250  0     0    
2019/11/14  04:19:00  BASE  5.07444  286  6.41508  280  -2.8  100   -2.8  0     0     982.3    NA       0.0000   9999     1610  0     0    
2019/11/14  04:20:00  BASE  5.16852  286  6.41508  280  -2.8  100   -2.8  0     0     982.3    NA       0.0000   9999     1480  0     0    
2019/11/14  04:21:00  BASE  5.38608  282  7.05012  275  -2.8  100   -2.8  0     0     982.3    NA       0.0000   9999     1210  0     0    
2019/11/14  04:22:00  BASE  5.85648  281  7.05012  275  -2.8  100   -2.8  0     0     982.4    NA       0.0000   9999     1180  1870  0    
2019/11/14  04:23:00  BASE  6.15636  281  7.05012  275  -2.8  100   -2.8  0     0     982.4    NA       0.0000   9999     1380  1900  0    
2019/11/14  04:24:00  BASE  6.09168  280  7.19712  285  -2.8  100   -2.8  0     0     982.4    NA       0.0000   9999     1570  0     0    
2019/11/14  04:25:00  BASE  5.51544  281  7.19712  285  -2.8  100   -2.8  0     0     982.5    NA       0.0000   9999     1350  0     0    
2019/11/14  04:26:00  BASE  4.95684  282  7.19712  285  -2.8  100   -2.8  0     0     982.6    NA       0.0000   9999     1380  0     0    
2019/11/14  04:27:00  BASE  4.6746   280  7.19712  285  -2.8  100   -2.8  0     0     982.6    NA       0.0000   9999     1280  0     0    
2019/11/14  04:28:00  BASE  4.49232  280  7.19712  285  -2.8  100   -2.8  0     0     982.6    NA       0.0000   9999     1150  0     0    
2019/11/14  04:29:00  BASE  4.48056  279  7.19712  285  -2.8  100   -2.8  0     0     982.6    NA       0.0000   9999     1210  0     0    
2019/11/14  04:30:00  BASE  4.86276  271  7.19712  285  -2.8  100   -2.8  0     0     982.7    NA       0.0000   9999     1440  0     0    
2019/11/14  04:31:00  BASE  5.22144  269  7.19712  285  -2.8  100   -2.8  0     0     982.7    NA       0.0000   9999     1570  0     0    
2019/11/14  04:32:00  BASE  5.24496  270  7.19712  285  -2.8  100   -2.8  0     0     982.8    NA       0.0000   9999     1410  0     0    
2019/11/14  04:33:00  BASE  4.74516  272  7.19712  285  -2.8  100   -2.8  0     0     982.8    NA       0.0000   9999     1480  0     0    
2019/11/14  04:34:00  BASE  4.96272  275  6.77376  270  -2.9  100   -2.9  0     0     982.8    NA       0.0000   9999     1410  0     0    
2019/11/14  04:35:00  BASE  5.06856  275  6.77376  270  -2.9  100   -2.9  0     0     982.8    NA       0.0000   9999     1380  0     0    
2019/11/14  04:36:00  BASE  4.43352  273  6.77376  270  -2.9  100   -2.9  0     0     982.8    NA       0.0000   9999     1510  0     0    
2019/11/14  04:37:00  BASE  4.8216   267  6.77376  270  -2.9  100   -2.9  0     0     982.9    NA       0.0000   9999     1380  0     0    
2019/11/14  04:38:00  BASE  5.19204  260  6.77376  270  -2.9  100   -2.9  0     0     982.9    NA       0.0000   9999     1410  0     0    
2019/11/14  04:39:00  BASE  4.66872  260  6.77376  270  -2.9  100   -2.9  0     0     982.9    NA       0.0000   9999     1610  0     0    
2019/11/14  04:40:00  BASE  4.39236  261  6.77376  270  -2.9  100   -2.9  0     0     982.9    NA       0.0000   9999     1610  0     0    
2019/11/14  04:41:00  BASE  4.86276  256  6.56208  276  -2.9  100   -2.9  0     0     982.9    NA       0.0000   9999     1610  0     0    
2019/11/14  04:42:00  BASE  5.31552  251  6.56208  276  -2.9  100   -2.9  0     0     983.0    NA       0.0000   9999     1610  0     0    
2019/11/14  04:43:00  BASE  4.99212  252  6.56208  276  -3.0  100   -3.0  0     0     983.0    NA       0.0000   9999     1610  0     0    
2019/11/14  04:44:00  BASE  5.33316  257  6.92664  248  -3.0  100   -3.0  0     0     983.1    NA       0.0000   9999     1710  0     0    
2019/11/14  04:45:00  BASE  6.15636  256  6.92664  248  -3.0  100   -3.0  0     0     983.1    NA       0.0000   9999     1710  0     0    
2019/11/14  04:46:00  BASE  5.91528  257  6.92664  248  -3.1  100   -3.1  0     0     983.2    NA       0.0000   9999     1610  0     0    
2019/11/14  04:47:00  BASE  5.7036   258  6.92664  248  -3.1  100   -3.1  0     0     983.2    NA       0.0000   9999     1610  0     0    
2019/11/14  04:48:00  BASE  5.83296  259  6.92664  248  -3.1  100   -3.1  0     0     983.2    NA       0.0000   9999     1610  0     0    
2019/11/14  04:49:00  BASE  5.34492  266  6.92664  248  -3.2  100   -3.2  0     0     983.2    NA       0.0000   9999     1570  0     0    
2019/11/14  04:50:00  BASE  4.72164  272  6.92664  248  -3.2  100   -3.2  0     0     983.2    NA       0.0000   9999     1570  0     0    
2019/11/14  04:51:00  BASE  4.59816  271  6.92664  248  -3.2  100   -3.2  0     0     983.2    NA       0.0000   9999     1570  0     0    
2019/11/14  04:52:00  BASE  4.79808  273  6.92664  248  -3.2  100   -3.2  0     0     983.2    NA       0.0000   9999     1540  0     0    
2019/11/14  04:53:00  BASE  4.94508  274  6.92664  248  -3.2  100   -3.2  0     0     983.3    NA       0.0000   9999     1570  0     0    
2019/11/14  04:54:00  BASE  4.85688  272  6.65616  257  -3.2  100   -3.2  0     0     983.3    NA       0.0000   9999     1540  0     0    
2019/11/14  04:55:00  BASE  4.6746   272  6.65616  257  -3.2  100   -3.2  0     0     983.3    NA       0.0000   9999     1570  0     0    
2019/11/14  04:56:00  BASE  4.68048  274  6.65616  257  -3.2  100   -3.2  0     0     983.3    NA       0.0000   9999     1570  0     0    
2019/11/14  04:57:00  BASE  4.95684  276  6.59148  272  -3.3  100   -3.3  0     0     983.3    NA       0.0000   9999     1570  0     0    
2019/11/14  04:58:00  BASE  4.7922   276  6.59148  272  -3.3  100   -3.3  0     0     983.4    NA       0.0000   9999     1540  0     0    
2019/11/14  04:59:00  BASE  4.35708  273  6.59148  272  -3.3  100   -3.3  0     0     983.3    NA       0.0000   9999     1570  0     0    
2019/11/14  05:00:00  BASE  4.1748   270  6.59148  272  -3.3  100   -3.3  0     0     983.4    NA       0.0000   9999     1540  0     0    
2019/11/14  05:01:00  BASE  4.50996  267  6.59148  272  -3.3  100   -3.3  0     0     983.4    NA       0.0000   9999     1480  0     0    
2019/11/14  05:02:00  BASE  4.46292  268  6.59148  272  -3.3  100   -3.4  0     0     983.4    NA       0.0000   9999     1540  0     0    
2019/11/14  05:03:00  BASE  4.50408  270  6.59148  272  -3.3  99    -3.4  0     0     983.4    NA       0.0000   9999     1510  0     0    
2019/11/14  05:04:00  BASE  4.83336  272  6.59148  272  -3.3  99    -3.4  0     0     983.4    NA       0.0000   9999     1510  0     0    
2019/11/14  05:05:00  BASE  4.49232  273  6.59148  272  -3.4  99    -3.5  0     0     983.4    NA       0.0000   9999     1440  0     0    
2019/11/14  05:06:00  BASE  4.30416  275  6.321    269  -3.4  99    -3.5  0     0     983.4    NA       0.0000   9999     1480  0     0    
2019/11/14  05:07:00  BASE  4.21008  273  6.321    269  -3.4  99    -3.5  0     0     983.4    NA       0.0000   9999     1480  0     0    
2019/11/14  05:08:00  BASE  3.88668  272  6.321    269  -3.4  99    -3.5  0     0     983.4    NA       0.0000   9999     1440  0     0    
2019/11/14  05:09:00  BASE  3.77496  275  6.321    269  -3.4  99    -3.5  0     0     983.4    NA       0.0000   9999     1350  0     0    
2019/11/14  05:10:00  BASE  3.63384  275  6.321    269  -3.4  99    -3.5  0     0     983.5    NA       0.0000   9999     1310  0     0    
2019/11/14  05:11:00  BASE  3.528    276  6.321    269  -3.4  99    -3.5  0     0     983.5    NA       0.0000   9999     1250  0     0    
2019/11/14  05:12:00  BASE  3.6456   276  6.321    269  -3.4  99    -3.5  0     0     983.5    NA       0.0000   9999     1180  0     0    
2019/11/14  05:13:00  BASE  3.42804  275  5.80944  275  -3.5  100   -3.5  0     0     983.5    NA       0.0000   9999     1050  0     0    
2019/11/14  05:14:00  BASE  3.91608  268  5.80944  275  -3.5  100   -3.5  0     0     983.5    NA       0.0000   9999     1050  0     0    
2019/11/14  05:15:00  BASE  5.08032  257  6.2034   257  -3.5  100   -3.5  0     0     983.5    NA       0.0000   9999     1020  0     0    
2019/11/14  05:16:01  BASE  5.24496  253  6.2034   257  -3.5  100   -3.5  0     0     983.5    NA       0.0000   9999     1080  0     0    
2019/11/14  05:17:00  BASE  5.19204  253  6.2034   257  -3.6  100   -3.6  0     0     983.5    NA       0.0000   9999     1210  0     0    
2019/11/14  05:18:01  BASE  5.5566   252  6.71496  255  -3.6  100   -3.6  0     0     983.5    NA       0.0000   9999     1210  0     0    
2019/11/14  05:19:00  BASE  5.9094   252  6.80316  248  -3.7  100   -3.7  0     0     983.5    NA       0.0000   9999     1180  0     0    
2019/11/14  05:20:00  BASE  5.7918   251  6.80316  248  -3.7  100   -3.7  0     0     983.6    NA       0.0000   9999     1310  0     0    
2019/11/14  05:21:00  BASE  5.3802   250  6.80316  248  -3.8  100   -3.8  0     0     983.7    NA       0.0000   9999     1640  0     0    
2019/11/14  05:22:00  BASE  5.5566   250  6.80316  248  -3.8  100   -3.8  0     0     983.6    NA       0.0000   9999     1510  0     0    
2019/11/14  05:23:00  BASE  5.88588  250  6.89724  253  -3.9  100   -3.9  0     0     983.6    NA       0.0000   9999     1540  0     0    
2019/11/14  05:24:00  BASE  5.7624   249  6.89724  253  -3.9  100   -3.9  0     0     983.7    NA       0.0000   9999     1670  0     0    
2019/11/14  05:25:00  BASE  5.71536  250  6.89724  253  -3.9  100   -3.9  0     0     983.7    NA       0.0000   9999     1770  0     0    
2019/11/14  05:26:00  BASE  5.733    252  6.89724  253  -4.0  100   -4.0  0     0     983.7    NA       0.0000   9999     1510  0     0    
2019/11/14  05:27:01  BASE  5.25084  254  6.89724  253  -4.0  100   -4.0  0     0     983.7    NA       0.0000   9999     1610  0     0    
2019/11/14  05:28:01  BASE  5.06268  257  6.89724  253  -4.0  100   -4.0  0     0     983.7    NA       0.0000   9999     1480  0     0    
2019/11/14  05:29:00  BASE  4.92744  259  6.89724  253  -4.0  100   -4.0  0     0     983.7    NA       0.0000   9999     1610  0     0    
2019/11/14  05:30:00  BASE  4.65696  260  6.89724  253  -4.0  100   -4.0  0     0     983.7    NA       0.0000   9999     1670  0     0    
2019/11/14  05:31:00  BASE  4.6452   263  6.89724  253  -4.0  100   -4.0  0     0     983.7    NA       0.0000   9999     1350  0     0    
2019/11/14  05:32:00  BASE  4.63344  262  6.89724  253  -4.0  100   -4.0  0     0     983.7    NA       0.0000   9999     1380  0     0    
2019/11/14  05:33:00  BASE  4.57464  260  6.2916   246  -4.0  100   -4.0  0     0     983.7    NA       0.0000   9999     1180  0     0    
2019/11/14  05:34:00  BASE  4.73928  258  6.2916   246  -4.0  100   -4.0  0     0     983.7    NA       0.0000   9999     1020  0     0    
2019/11/14  05:35:00  BASE  4.5864   257  6.05052  254  -4.0  100   -4.0  0     0     983.7    NA       0.0000   9999     890   0     0    
2019/11/14  05:36:00  BASE  4.72752  260  6.02112  259  -4.0  100   -4.0  0     0     983.7    NA       0.0000   9999     1020  0     0    
2019/11/14  05:37:00  BASE  5.33904  258  6.02112  259  -4.0  100   -4.0  0     0     983.8    NA       0.0000   9999     890   0     0    
2019/11/14  05:38:00  BASE  5.08032  257  5.89764  252  -4.0  100   -4.0  0     0     983.9    NA       0.0000   9999     890   0     0    
2019/11/14  05:39:00  BASE  4.50996  260  5.89764  252  -4.0  100   -4.0  0     0     983.9    NA       0.0000   9999     850   0     0    
2019/11/14  05:40:00  BASE  4.62168  256  5.89764  252  -4.0  100   -4.0  0     0     983.9    NA       0.0000   9999     850   0     0    
2019/11/14  05:41:00  BASE  4.60404  255  5.89764  252  -4.0  100   -4.0  0     0     984.0    NA       0.0000   9999     850   0     0    
2019/11/14  05:42:00  BASE  4.3806   256  5.89764  252  -4.0  100   -4.0  0     0     984.0    NA       0.0000   9999     850   0     0    
2019/11/14  05:43:00  BASE  4.39236  253  5.89764  252  -4.0  100   -4.0  0     0     984.0    NA       0.0000   9999     820   0     0    
2019/11/14  05:44:00  BASE  4.28652  252  5.89764  252  -4.0  100   -4.0  0     0     984.0    NA       0.0000   9999     820   0     0    
2019/11/14  05:45:00  BASE  4.5276   257  5.92704  259  -4.0  100   -4.0  0     0     983.9    NA       0.0000   9999     820   0     0    
2019/11/14  05:46:00  BASE  4.98624  260  5.92704  259  -4.0  100   -4.0  0     0     984.0    NA       0.0000   9999     820   0     0    
2019/11/14  05:47:00  BASE  4.86864  258  5.92704  259  -4.0  100   -4.0  0     0     984.0    NA       0.0000   9999     820   0     0    
2019/11/14  05:48:00  BASE  4.29828  260  5.92704  259  -4.1  100   -4.1  0     0     984.0    NA       0.0000   9999     890   0     0    
2019/11/14  05:49:00  BASE  3.90432  259  5.92704  259  -4.1  100   -4.1  0     0     984.1    NA       0.0000   9999     890   0     0    
2019/11/14  05:50:00  BASE  3.675    257  5.92704  259  -4.1  100   -4.1  0     0     984.1    NA       0.0000   9999     850   0     0    
2019/11/14  05:51:00  BASE  3.57504  255  5.92704  259  -4.1  100   -4.1  0     0     984.1    NA       0.0000   9999     890   0     0    
2019/11/14  05:52:00  BASE  3.83376  256  5.92704  259  -4.1  100   -4.1  0     0     984.1    NA       0.0000   9999     850   0     0    
2019/11/14  05:53:00  BASE  4.15716  257  5.92704  259  -4.1  100   -4.1  0     0     984.1    NA       0.0000   9999     850   0     0    
2019/11/14  05:54:00  BASE  4.32768  257  5.92704  259  -4.1  100   -4.1  0     0     984.1    NA       0.0000   9999     890   0     0    
2019/11/14  05:55:00  BASE  4.7628   257  5.99172  263  -4.2  100   -4.2  0     0     984.1    NA       0.0000   9999     890   0     0    
2019/11/14  05:56:00  BASE  5.06856  254  5.99172  263  -4.2  100   -4.2  0     0     984.1    NA       0.0000   9999     890   0     0    
2019/11/14  05:57:00  BASE  5.57424  254  6.68556  257  -4.2  100   -4.2  0     0     984.1    NA       0.0000   9999     890   0     0    
2019/11/14  05:58:00  BASE  5.8212   257  6.68556  257  -4.2  100   -4.2  0     0     984.1    NA       0.0000   9999     850   0     0    
2019/11/14  05:59:00  BASE  5.60952  255  6.68556  257  -4.3  100   -4.3  0     0     984.1    NA       0.0000   9999     820   0     0    
2019/11/14  06:00:00  BASE  5.40372  251  6.68556  257  -4.3  100   -4.3  0     0     984.1    NA       0.0000   9999     850   0     0    
2019/11/14  06:01:00  BASE  4.8216   248  6.68556  257  -4.3  100   -4.3  0     0     984.1    NA       0.0000   9999     850   0     0    
2019/11/14  06:02:00  BASE  4.6452   247  6.68556  257  -4.3  100   -4.3  0     0     984.1    NA       0.0000   9999     850   0     0    
2019/11/14  06:03:00  BASE  4.557    247  6.68556  257  -4.3  100   -4.3  0     0     984.2    NA       0.0000   9999     850   0     0    
2019/11/14  06:04:00  BASE  4.50408  247  6.68556  257  -4.3  100   -4.3  0     0     984.2    NA       0.0000   9999     850   0     0    
2019/11/14  06:05:00  BASE  4.53936  250  6.68556  257  -4.4  100   -4.4  0     0     984.2    NA       0.0000   9999     820   0     0    
2019/11/14  06:06:00  BASE  4.56288  252  6.68556  257  -4.4  100   -4.4  0     0     984.2    NA       0.0000   9999     850   0     0    
2019/11/14  06:07:00  BASE  4.91568  250  6.321    252  -4.4  100   -4.4  0     0     984.2    NA       0.0000   9999     920   0     0    
2019/11/14  06:08:00  BASE  5.45664  250  6.2622   251  -4.4  100   -4.4  0     0     984.3    NA       0.0000   9999     890   0     0    
2019/11/14  06:09:00  BASE  5.80944  252  6.2916   249  -4.4  100   -4.4  0     0     984.2    NA       0.0000   9999     890   0     0    
2019/11/14  06:10:00  BASE  5.83884  254  6.44448  256  -4.5  100   -4.5  0     0     984.3    NA       0.0000   9999     890   0     0    
2019/11/14  06:11:00  BASE  5.87412  256  6.44448  256  -4.5  100   -4.5  0     0     984.3    NA       0.0000   9999     890   0     0    
2019/11/14  06:12:00  BASE  5.4978   258  6.44448  256  -4.5  100   -4.5  0     0     984.4    NA       0.0000   9999     890   0     0    
2019/11/14  06:13:00  BASE  5.292    261  6.50328  259  -4.5  100   -4.5  0     0     984.5    NA       0.0000   9999     890   0     0    
2019/11/14  06:14:00  BASE  4.99212  266  6.50328  259  -4.5  100   -4.5  0     0     984.5    NA       0.0000   9999     850   0     0    
2019/11/14  06:15:00  BASE  4.704    270  6.50328  259  -4.5  100   -4.5  0     0     984.5    NA       0.0000   9999     890   0     0    
2019/11/14  06:16:00  BASE  5.43312  267  6.80316  261  -4.5  100   -4.5  0     0     984.5    NA       0.0000   9999     890   0     0    
2019/11/14  06:17:00  BASE  5.70948  262  6.80316  261  -4.6  100   -4.6  1     0     984.5    NA       0.0000   9999     850   0     0    
2019/11/14  06:18:00  BASE  5.22144  264  6.80316  261  -4.6  100   -4.6  1     0     984.5    NA       0.0000   9999     890   0     0    
2019/11/14  06:19:00  BASE  4.851    266  6.80316  261  -4.6  100   -4.6  1     0     984.6    NA       0.0000   9999     920   0     0    
2019/11/14  06:20:00  BASE  4.62168  266  6.80316  261  -4.7  100   -4.7  1     0     984.6    NA       0.0000   9999     920   0     0    
2019/11/14  06:21:00  BASE  4.25712  267  6.80316  261  -4.7  100   -4.7  1     0     984.6    NA       0.0000   9999     920   0     0    
2019/11/14  06:22:00  BASE  4.01604  267  6.80316  261  -4.7  100   -4.7  1     0     984.6    NA       0.0000   9999     950   0     0    
2019/11/14  06:23:00  BASE  4.08072  265  6.80316  261  -4.7  100   -4.7  1     0     984.6    NA       0.0000   9999     980   0     0    
2019/11/14  06:24:00  BASE  4.44528  263  6.80316  261  -4.7  100   -4.7  1     0     984.6    NA       0.0000   9999     980   0     0    
2019/11/14  06:25:00  BASE  4.93332  263  6.80316  261  -4.7  100   -4.7  1     0     984.6    NA       0.0000   9999     920   0     0    
2019/11/14  06:26:00  BASE  5.48016  265  6.92664  261  -4.7  100   -4.7  1     0     984.5    NA       0.0000   9999     920   0     0    
2019/11/14  06:27:00  BASE  5.28024  267  6.92664  261  -4.7  100   -4.7  1     0     984.6    NA       0.0000   9999     950   0     0    
2019/11/14  06:28:00  BASE  4.25124  267  6.92664  261  -4.7  100   -4.7  1     0     984.6    NA       0.0000   9999     1020  0     0    
2019/11/14  06:29:00  BASE  4.28064  266  6.92664  261  -4.7  100   -4.7  1     0     984.6    NA       0.0000   9999     1050  0     0    
2019/11/14  06:30:00  BASE  4.95096  262  6.92664  261  -4.8  100   -4.8  1     0     984.6    NA       0.0000   9999     950   0     0    
2019/11/14  06:31:00  BASE  4.98624  264  6.92664  261  -4.8  100   -4.8  1     0     984.6    NA       0.0000   9999     950   0     0    
2019/11/14  06:32:00  BASE  4.49232  269  6.92664  261  -4.8  100   -4.8  1     0     984.6    NA       0.0000   9999     920   0     0    
2019/11/14  06:33:00  BASE  4.0572   270  6.92664  261  -4.8  100   -4.8  1     0     984.6    NA       0.0000   9999     920   0     0    
2019/11/14  06:34:00  BASE  3.92784  273  6.92664  261  -4.8  100   -4.8  1     0     984.6    NA       0.0000   9999     920   0     0    
2019/11/14  06:35:00  BASE  3.83964  272  6.92664  261  -4.8  100   -4.8  1     0     984.6    NA       0.0000   9999     920   0     0    
2019/11/14  06:36:00  BASE  4.15716  267  6.41508  255  -4.8  100   -4.8  1     0     984.7    NA       0.0000   9999     920   0     0    
2019/11/14  06:37:00  BASE  4.18068  265  6.41508  255  -4.8  100   -4.8  1     0     984.6    NA       0.0000   9999     890   0     0    
2019/11/14  06:38:00  BASE  4.07484  267  6.41508  255  -4.8  100   -4.8  1     0     984.6    NA       0.0000   9999     920   0     0    
2019/11/14  06:39:00  BASE  4.3512   271  6.41508  255  -4.8  100   -4.8  1     0     984.6    NA       0.0000   9999     920   0     0    
2019/11/14  06:40:00  BASE  4.05132  275  6.07992  262  -4.8  100   -4.8  1     0     984.7    NA       0.0000   9999     920   0     0    
2019/11/14  06:41:00  BASE  4.0572   273  6.07992  262  -4.8  100   -4.8  1     0     984.7    NA       0.0000   9999     950   0     0    
2019/11/14  06:42:00  BASE  4.116    272  6.07992  262  -4.8  100   -4.8  1     0     984.7    NA       0.0000   9999     950   0     0    
2019/11/14  06:43:00  BASE  4.35708  266  6.16812  258  -4.8  100   -4.8  1     0     984.7    NA       0.0000   9999     950   0     0    
2019/11/14  06:44:00  BASE  4.6452   264  6.16812  258  -4.8  100   -4.8  1     0     984.7    NA       0.0000   9999     950   0     0    
2019/11/14  06:45:00  BASE  4.6746   266  6.16812  258  -4.8  100   -4.8  1     0     984.7    NA       0.0000   9999     980   0     0    
2019/11/14  06:46:00  BASE  4.96272  264  6.2916   268  -4.8  100   -4.8  1     0     984.8    NA       0.0000   9999     980   0     0    
2019/11/14  06:47:00  BASE  4.89216  263  6.2916   268  -4.8  100   -4.8  2     0     984.8    NA       0.0000   9999     980   0     0    
2019/11/14  06:48:00  BASE  4.70988  266  6.2916   268  -4.9  100   -4.9  2     0     984.8    NA       0.0000   9999     950   0     0    
2019/11/14  06:49:00  BASE  4.56876  267  6.2916   268  -4.9  100   -4.9  2     0     984.8    NA       0.0000   9999     920   0     0    
2019/11/14  06:50:00  BASE  5.1744   263  6.86784  259  -4.9  100   -4.9  2     0     984.7    NA       0.0000   9999     950   0     0    
2019/11/14  06:51:00  BASE  5.9094   258  7.3794   253  -4.9  100   -4.9  2     0     984.8    NA       0.0000   9999     950   0     0    
2019/11/14  06:52:00  BASE  6.50328  257  7.56168  257  -4.9  100   -4.9  2     0     984.8    NA       0.0000   9999     950   0     0    
2019/11/14  06:53:00  BASE  6.8502   258  7.56168  257  -5.0  100   -5.0  2     0     984.8    NA       0.0000   9999     950   0     0    
2019/11/14  06:54:00  BASE  6.73848  258  7.56168  257  -5.0  100   -5.0  2     0     984.9    NA       0.0000   9999     920   0     0    
2019/11/14  06:55:00  BASE  6.42096  259  7.56168  257  -5.1  100   -5.1  2     0     984.9    NA       0.0000   9999     950   0     0    
2019/11/14  06:56:00  BASE  5.4684   259  7.56168  257  -5.1  100   -5.1  2     0     985.0    NA       0.0000   9999     1020  0     0    
2019/11/14  06:57:00  BASE  4.42176  262  7.56168  257  -5.1  100   -5.1  2     0     985.0    NA       0.0000   9999     1050  0     0    
2019/11/14  06:58:00  BASE  4.54524  266  7.56168  257  -5.1  100   -5.1  2     0     985.0    NA       0.0000   9999     1080  0     0    
2019/11/14  06:59:00  BASE  4.65108  267  7.56168  257  -5.1  100   -5.1  2     0     985.0    NA       0.0000   9999     1080  0     0    
2019/11/14  07:00:00  BASE  4.58052  269  7.56168  257  -5.1  100   -5.1  2     0     985.0    NA       0.0000   9999     1120  0     0    
2019/11/14  07:01:00  BASE  4.82748  267  7.56168  257  -5.1  100   -5.1  2     0     985.0    NA       0.0000   9999     1150  0     0    
2019/11/14  07:02:00  BASE  4.4688   268  7.53228  260  -5.1  100   -5.1  2     0     985.0    NA       0.0000   9999     1210  0     0    
2019/11/14  07:03:00  BASE  4.09248  271  7.47348  254  -5.1  100   -5.1  2     0     985.0    NA       0.0000   9999     1080  0     0    
2019/11/14  07:04:00  BASE  3.97488  269  6.80316  258  -5.1  100   -5.1  2     0     984.9    NA       0.0000   9999     1020  0     0    
2019/11/14  07:05:00  BASE  3.7338   263  6.2622   257  -5.1  100   -5.1  3     0     984.9    NA       0.0000   9999     1050  0     0    
2019/11/14  07:06:00  BASE  3.675    266  6.2622   257  -5.1  100   -5.1  3     0     984.9    NA       0.0000   9999     980   0     0    
2019/11/14  07:07:00  BASE  3.9102   266  6.2622   257  -5.1  100   -5.1  3     0     984.9    NA       0.0000   9999     980   0     0    
2019/11/14  07:08:00  BASE  4.18068  263  6.2622   257  -5.1  100   -5.1  3     0     985.0    NA       0.0000   9999     1020  0     0    
2019/11/14  07:09:00  BASE  4.13952  266  6.2622   257  -5.1  100   -5.1  3     0     985.0    NA       0.0000   9999     950   0     0    
2019/11/14  07:10:00  BASE  3.93372  265  6.2622   257  -5.2  100   -5.2  3     0     985.1    NA       0.0000   9999     980   0     0    
2019/11/14  07:11:00  BASE  4.34532  262  5.80944  256  -5.2  100   -5.2  3     0     985.1    NA       0.0000   9999     950   0     0    
2019/11/14  07:12:00  BASE  4.75692  258  5.80944  256  -5.2  100   -5.2  3     0     985.1    NA       0.0000   9999     980   0     0    
2019/11/14  07:13:00  BASE  5.01564  256  5.80944  256  -5.2  100   -5.2  3     0     985.1    NA       0.0000   9999     980   0     0    
2019/11/14  07:14:00  BASE  4.74516  256  5.80944  256  -5.3  100   -5.3  3     0     985.1    NA       0.0000   9999     980   0     0    
2019/11/14  07:15:00  BASE  4.45116  255  5.80944  256  -5.3  100   -5.3  4     0     985.1    NA       0.0000   9999     980   0     0    
2019/11/14  07:16:00  BASE  4.06308  258  5.80944  256  -5.3  100   -5.3  4     0     985.1    NA       0.0000   9999     980   0     0    
2019/11/14  07:17:00  BASE  3.86316  257  5.80944  256  -5.3  100   -5.3  4     0     985.1    NA       0.0000   9999     980   0     0    
2019/11/14  07:18:00  BASE  4.1748   251  5.80944  256  -5.3  100   -5.3  4     0     985.1    NA       0.0000   9999     980   0     0    
2019/11/14  07:19:00  BASE  4.51584  253  5.80944  256  -5.3  100   -5.3  5     0     985.1    NA       0.0000   9999     950   0     0    
2019/11/14  07:20:00  BASE  5.13324  255  6.02112  252  -5.3  100   -5.3  5     0     985.1    NA       0.0000   9999     980   0     0    
2019/11/14  07:21:00  BASE  5.145    255  6.02112  252  -5.3  100   -5.3  5     0     985.1    NA       0.0000   9999     980   0     0    
2019/11/14  07:22:00  BASE  4.80984  254  6.02112  252  -5.3  100   -5.3  6     0     985.1    NA       0.0000   9999     950   0     0    
2019/11/14  07:23:00  BASE  4.90392  253  6.02112  252  -5.3  100   -5.3  6     0     985.1    NA       0.0000   9999     980   0     0    
2019/11/14  07:24:00  BASE  5.26848  253  6.07992  253  -5.4  100   -5.4  6     0     985.1    NA       0.0000   9999     980   0     0    
2019/11/14  07:25:00  BASE  5.23908  253  6.07992  253  -5.4  100   -5.4  6     0     985.0    NA       0.0000   9999     980   0     0    
2019/11/14  07:26:00  BASE  4.8804   252  6.07992  253  -5.4  100   -5.4  6     0     985.1    NA       0.0000   9999     980   0     0    
2019/11/14  07:27:00  BASE  4.9392   252  6.07992  253  -5.5  100   -5.5  6     0     985.1    NA       0.0000   9999     1020  0     0    
2019/11/14  07:28:00  BASE  5.02152  251  6.07992  253  -5.5  100   -5.5  7     0     985.2    NA       0.0000   9999     1080  0     0    
2019/11/14  07:29:00  BASE  4.91568  249  6.07992  253  -5.5  100   -5.5  7     0     985.2    NA       0.0000   9999     1080  0     0    
2019/11/14  07:30:00  BASE  4.75104  250  6.07992  253  -5.5  100   -5.5  7     0     985.2    NA       0.0000   9999     1050  0     0    
2019/11/14  07:31:00  BASE  4.78044  253  6.07992  253  -5.5  100   -5.5  7     0     985.2    NA       0.0000   9999     1120  0     0    
2019/11/14  07:32:00  BASE  5.0568   253  6.07992  253  -5.5  100   -5.5  8     0     985.2    NA       0.0000   9999     1080  0     0    
2019/11/14  07:33:00  BASE  5.05092  252  6.07992  253  -5.5  100   -5.5  8     0     985.3    NA       0.0000   9999     1120  0     0    
2019/11/14  07:34:00  BASE  4.86864  252  5.92704  252  -5.5  100   -5.5  9     0     985.3    NA       0.0000   9999     1150  0     0    
2019/11/14  07:35:00  BASE  4.58052  252  5.92704  252  -5.5  100   -5.5  9     0     985.3    NA       0.0000   9999     1080  0     0    
2019/11/14  07:36:00  BASE  4.1454   258  5.83884  248  -5.5  100   -5.5  9     0     985.3    NA       0.0000   9999     1120  0     0    
2019/11/14  07:37:00  BASE  4.3512   262  5.83884  248  -5.5  100   -5.5  10    0     985.3    NA       0.0000   9999     1120  0     0    
2019/11/14  07:38:00  BASE  4.86864  260  5.83884  248  -5.5  100   -5.5  10    0     985.3    NA       0.0000   9999     1080  0     0    
2019/11/14  07:39:00  BASE  4.93332  260  5.89764  260  -5.5  100   -5.5  10    0     985.3    NA       0.0000   9999     1080  0     0    
2019/11/14  07:40:00  BASE  4.78044  259  5.89764  260  -5.5  100   -5.5  11    0     985.3    NA       0.0000   9999     1120  0     0    
2019/11/14  07:41:00  BASE  4.32768  259  5.89764  260  -5.5  100   -5.5  11    0     985.3    NA       0.0000   9999     1120  0     0    
2019/11/14  07:42:00  BASE  4.65696  256  5.95644  254  -5.5  100   -5.5  11    0     985.3    NA       0.0000   9999     1120  0     0    
2019/11/14  07:43:00  BASE  5.00976  255  5.95644  254  -5.5  100   -5.5  12    0     985.4    NA       0.0000   9999     1050  0     0    
2019/11/14  07:44:00  BASE  5.06856  258  6.05052  256  -5.5  100   -5.5  12    0     985.4    NA       0.0000   9999     1080  0     0    
2019/11/14  07:45:00  BASE  4.90392  261  6.16812  262  -5.5  100   -5.5  12    0     985.4    NA       0.0000   9999     1050  0     0    
2019/11/14  07:46:00  BASE  4.78632  262  6.16812  262  -5.5  100   -5.6  13    0     985.4    NA       0.0000   9999     1020  0     0    
2019/11/14  07:47:00  BASE  4.86864  258  6.16812  262  -5.6  100   -5.6  13    0     985.4    NA       0.0000   9999     1020  0     0    
2019/11/14  07:48:00  BASE  4.45704  258  6.16812  262  -5.6  100   -5.6  14    0     985.4    NA       0.0000   9999     1080  0     0    
2019/11/14  07:49:00  BASE  4.01604  261  6.16812  262  -5.6  100   -5.6  14    0     985.4    NA       0.0000   9999     1080  0     0    
2019/11/14  07:50:00  BASE  3.78672  264  6.16812  262  -5.6  100   -5.6  14    0     985.4    NA       0.0000   9999     1180  0     0    
2019/11/14  07:51:00  BASE  3.83964  268  6.16812  262  -5.6  100   -5.6  15    0     985.4    NA       0.0000   9999     1150  0     0    
2019/11/14  07:52:00  BASE  4.15716  271  6.16812  262  -5.6  100   -5.6  15    0     985.4    NA       0.0000   9999     1180  0     0    
2019/11/14  07:53:00  BASE  4.12188  269  6.16812  262  -5.6  100   -5.6  15    0     985.5    NA       0.0000   9999     1080  0     0    
2019/11/14  07:54:00  BASE  3.50448  272  6.16812  262  -5.6  100   -5.6  15    0     985.5    NA       0.0000   9999     1080  0     0    
2019/11/14  07:55:00  BASE  4.06896  278  5.92704  254  -5.6  100   -5.6  15    0     985.4    NA       0.0000   9999     1080  0     0    
2019/11/14  07:56:00  BASE  5.0274   277  5.65656  278  -5.6  100   -5.6  15    0     985.4    NA       0.0000   9999     980   0     0    
2019/11/14  07:57:00  BASE  4.46292  274  5.65656  278  -5.6  100   -5.6  16    0     985.4    NA       0.0000   9999     950   0     0    
2019/11/14  07:58:00  BASE  3.79848  273  5.65656  278  -5.7  100   -5.7  16    0     985.4    NA       0.0000   9999     1120  0     0    
2019/11/14  07:59:00  BASE  3.9396   272  5.65656  278  -5.7  100   -5.7  16    0     985.4    NA       0.0000   9999     1150  0     0    
2019/11/14  08:00:00  BASE  3.71028  272  5.65656  278  -5.7  100   -5.7  17    0     985.5    NA       0.0000   9999     1120  0     0    
2019/11/14  08:01:00  BASE  3.86904  277  5.65656  278  -5.7  100   -5.7  17    0     985.5    NA       0.0000   9999     1050  0     0    
2019/11/14  08:02:00  BASE  4.31004  279  5.65656  278  -5.6  100   -5.6  17    0     985.5    NA       0.0000   9999     1150  0     0    
2019/11/14  08:03:00  BASE  4.42764  278  5.65656  278  -5.6  100   -5.6  17    0     985.5    NA       0.0000   9999     1120  0     0    
2019/11/14  08:04:00  BASE  4.31004  275  5.65656  278  -5.6  100   -5.6  18    0     985.5    NA       0.0000   9999     1080  0     0    
2019/11/14  08:05:00  BASE  3.86316  277  5.65656  278  -5.6  100   -5.6  18    0     985.6    NA       0.0000   9999     1080  0     0    
2019/11/14  08:06:00  BASE  3.75144  280  5.38608  280  -5.6  100   -5.6  18    0     985.6    NA       0.0000   9999     1120  0     0    
2019/11/14  08:07:00  BASE  3.62208  275  5.38608  280  -5.6  100   -5.6  18    0     985.6    NA       0.0000   9999     1120  0     0    
2019/11/14  08:08:00  BASE  3.28692  273  5.38608  280  -5.6  100   -5.6  18    0     985.6    NA       0.0000   9999     1080  0     0    
2019/11/14  08:09:00  BASE  3.72204  277  5.38608  280  -5.6  100   -5.6  19    0     985.6    NA       0.0000   9999     1050  0     0    
2019/11/14  08:10:00  BASE  4.263    279  5.38608  280  -5.6  100   -5.6  19    0     985.6    NA       0.0000   9999     1080  0     0    
2019/11/14  08:11:00  BASE  3.79848  276  5.38608  280  -5.6  100   -5.6  19    0     985.6    NA       0.0000   9999     1120  0     0    
2019/11/14  08:12:00  BASE  3.44568  272  5.38608  280  -5.7  100   -5.7  20    0     985.6    NA       0.0000   9999     1150  0     0    
2019/11/14  08:13:00  BASE  3.89256  270  5.2332   262  -5.7  100   -5.7  21    0     985.6    NA       0.0000   9999     1150  0     0    
2019/11/14  08:14:00  BASE  4.50408  265  5.2332   262  -5.7  100   -5.7  22    0     985.6    NA       0.0000   9999     1180  0     0    
2019/11/14  08:15:00  BASE  4.36296  261  5.2332   262  -5.7  100   -5.7  23    0     985.7    NA       0.0000   9999     1120  0     0    
2019/11/14  08:16:00  BASE  3.89256  259  5.2332   262  -5.8  100   -5.8  25    0     985.7    NA       0.0000   9999     1120  0     0    
2019/11/14  08:17:00  BASE  3.72204  257  5.2332   262  -5.8  100   -5.8  28    0     985.7    NA       0.0000   9999     1250  0     0    
2019/11/14  08:18:00  BASE  4.03956  257  5.2332   262  -5.8  100   -5.8  31    0     985.6    NA       0.0000   9999     1180  0     0    
2019/11/14  08:19:00  BASE  4.57464  255  5.50368  252  -5.8  100   -5.8  34    0     985.6    NA       0.0000   9999     1150  0     0    
2019/11/14  08:20:00  BASE  4.21008  255  5.50368  252  -5.8  100   -5.8  34    0     985.7    NA       0.0000   9999     1120  0     0    
2019/11/14  08:21:00  BASE  3.51624  261  5.50368  252  -5.8  100   -5.8  35    0     985.6    NA       0.0000   9999     1180  0     0    
2019/11/14  08:22:00  BASE  3.42216  261  5.50368  252  -5.9  100   -5.9  37    0     985.6    NA       0.0000   9999     1150  0     0    
2019/11/14  08:23:00  BASE  3.19872  264  5.50368  252  -5.9  100   -5.9  39    0     985.6    NA       0.0000   9999     1150  0     0    
2019/11/14  08:24:00  BASE  3.2634   267  5.50368  252  -5.9  100   -5.9  36    0     985.6    NA       0.0000   9999     1150  0     0    
2019/11/14  08:25:00  BASE  3.52212  257  5.50368  252  -5.9  100   -5.9  32    0     985.6    NA       0.0000   9999     1120  0     0    
2019/11/14  08:26:00  BASE  3.50448  250  5.50368  252  -5.8  100   -5.8  28    0     985.6    NA       0.0000   9999     1120  0     0    
2019/11/14  08:27:00  BASE  4.02192  243  5.50368  252  -5.8  100   -5.8  26    0     985.6    NA       0.0000   9999     1120  0     0    
2019/11/14  08:28:00  BASE  4.3806   236  5.50368  252  -5.8  100   -5.8  25    0     985.7    NA       0.0000   9999     1120  0     0    
2019/11/14  08:29:00  BASE  4.5276   234  5.3214   236  -5.9  100   -5.9  27    0     985.7    NA       0.0000   9999     1120  0     0    
2019/11/14  08:30:00  BASE  4.41588  233  5.3214   236  -5.9  100   -5.9  29    0     985.7    NA       0.0000   9999     1120  0     0    
2019/11/14  08:31:00  BASE  4.12776  236  5.3214   236  -6.0  100   -6.0  33    0     985.7    NA       0.0000   9999     1150  0     0    
2019/11/14  08:32:00  BASE  4.01016  237  5.3214   236  -6.0  100   -6.0  34    0     985.7    NA       0.0000   9999     1150  0     0    
2019/11/14  08:33:00  BASE  3.68088  232  5.3214   236  -6.0  100   -6.0  35    0     985.7    NA       0.0000   9999     1150  0     0    
2019/11/14  08:34:00  BASE  3.90432  226  5.3214   236  -6.0  100   -6.0  35    0     985.7    NA       0.0000   9999     1150  0     0    
2019/11/14  08:35:00  BASE  4.4982   223  5.3214   236  -6.0  100   -6.0  35    0     985.7    NA       0.0000   9999     1180  0     0    
2019/11/14  08:36:00  BASE  4.25712  225  5.3214   236  -6.0  100   -6.0  35    0     985.8    NA       0.0000   9999     1210  0     0    
2019/11/14  08:37:00  BASE  3.94548  238  5.3214   236  -6.1  100   -6.1  41    0     985.8    NA       0.0000   9999     1210  0     0    
2019/11/14  08:38:00  BASE  4.19244  254  5.3214   236  -6.1  100   -6.1  47    0     985.8    NA       0.0000   9999     1150  0     0    
2019/11/14  08:39:00  BASE  3.86316  264  5.1744   222  -6.1  100   -6.1  48    0     985.9    NA       0.0000   9999     1210  0     0    
2019/11/14  08:40:00  BASE  3.56328  264  5.1744   222  -6.1  100   -6.1  47    0     985.8    NA       0.0000   9999     1120  0     0    
2019/11/14  08:41:00  BASE  3.6162   261  5.1744   222  -6.1  100   -6.1  47    0     985.8    NA       0.0000   9999     1080  0     0    
2019/11/14  08:42:00  BASE  3.42216  261  5.1744   222  -6.1  100   -6.1  46    0     985.8    NA       0.0000   9999     1150  0     0    
2019/11/14  08:43:00  BASE  2.92236  266  5.1744   222  -6.1  100   -6.1  44    0     985.8    NA       0.0000   9999     1250  0     0    
2019/11/14  08:44:00  BASE  2.34612  269  5.1744   222  -6.1  100   -6.1  42    0     985.8    NA       0.0000   9999     1250  0     0    
2019/11/14  08:45:00  BASE  2.45196  269  4.62756  251  -6.1  100   -6.1  42    0     985.7    NA       0.0000   9999     1210  0     0    
2019/11/14  08:46:00  BASE  2.81652  271  4.62756  251  -6.1  100   -6.1  43    0     985.7    NA       0.0000   9999     1180  0     0    
2019/11/14  08:47:00  BASE  3.03408  264  4.59816  265  -6.1  100   -6.1  43    0     985.7    NA       0.0000   9999     1150  0     0    
2019/11/14  08:48:00  BASE  3.36924  255  4.47468  267  -6.1  100   -6.1  43    0     985.7    NA       0.0000   9999     1120  0     0    
2019/11/14  08:49:00  BASE  3.62796  252  4.41588  259  -6.1  100   -6.1  43    0     985.7    NA       0.0000   9999     1120  0     0    
2019/11/14  08:50:00  BASE  3.46332  254  4.2042   251  -6.1  100   -6.1  43    0     985.7    NA       0.0000   9999     1080  0     0    
2019/11/14  08:51:00  BASE  3.16344  255  4.08072  253  -6.1  100   -6.1  43    0     985.8    NA       0.0000   9999     1080  0     0    
2019/11/14  08:52:00  BASE  3.13404  254  4.08072  253  -6.1  100   -6.1  44    0     985.8    NA       0.0000   9999     1080  0     0    
2019/11/14  08:53:00  BASE  3.48684  258  4.29828  257  -6.1  100   -6.1  45    0     985.7    NA       0.0000   9999     1050  0     0    
2019/11/14  08:54:00  BASE  3.5868   257  4.29828  257  -6.1  100   -6.1  46    0     985.8    NA       0.0000   9999     1050  0     0    
2019/11/14  08:55:00  BASE  3.69264  255  4.65696  249  -6.1  100   -6.1  46    0     985.8    NA       0.0000   9999     1050  0     0    
2019/11/14  08:56:00  BASE  4.13952  253  4.86864  242  -6.1  100   -6.1  47    0     985.8    NA       0.0000   9999     1080  0     0    
2019/11/14  08:57:00  BASE  4.31004  249  4.86864  242  -6.1  100   -6.1  49    0     985.9    NA       0.0000   9999     1080  0     0    
2019/11/14  08:58:00  BASE  3.9984   248  4.86864  242  -6.1  100   -6.1  50    0     985.9    NA       0.0000   9999     1080  0     0    
2019/11/14  08:59:00  BASE  3.5868   249  4.86864  242  -6.1  100   -6.1  51    0     986.0    NA       0.0000   9999     1120  0     0    
2019/11/14  09:00:00  BASE  3.72204  249  4.86864  242  -6.2  100   -6.2  53    0     986.0    NA       0.0000   9999     1150  0     0    
2019/11/14  09:01:00  BASE  4.01016  243  4.86864  242  -6.2  100   -6.2  54    0     986.0    NA       0.0000   9999     1150  0     0    
2019/11/14  09:02:00  BASE  3.68088  242  4.86864  242  -6.2  100   -6.2  57    0     986.0    NA       0.0000   9999     1210  0     0    
2019/11/14  09:03:00  BASE  3.38688  245  4.86864  242  -6.2  100   -6.2  59    0     986.0    NA       0.0000   9999     1250  0     0    
2019/11/14  09:04:00  BASE  3.83376  246  4.86864  242  -6.2  100   -6.2  61    0     986.0    NA       0.0000   9999     1280  0     0    
2019/11/14  09:05:00  BASE  4.557    248  5.35668  247  -6.3  100   -6.3  63    0     986.1    NA       0.0000   9999     1310  0     0    
2019/11/14  09:06:00  BASE  4.88628  251  5.53308  256  -6.3  100   -6.3  65    0     986.1    NA       0.0000   9999     1210  0     0    
2019/11/14  09:07:00  BASE  4.81572  247  5.53308  256  -6.3  100   -6.3  68    0     986.2    NA       0.0000   9999     1210  0     0    
2019/11/14  09:08:00  BASE  4.60992  248  5.53308  256  -6.3  100   -6.3  67    0     986.2    NA       0.0000   9999     1150  0     0    
2019/11/14  09:09:00  BASE  4.01604  256  5.53308  256  -6.4  100   -6.4  66    0     986.2    NA       0.0000   9999     1020  0     0    
2019/11/14  09:10:00  BASE  3.94548  258  5.53308  256  -6.4  100   -6.4  67    0     986.2    NA       0.0000   9999     1050  0     0    
2019/11/14  09:11:00  BASE  4.9392   255  6.05052  246  -6.4  100   -6.4  68    0     986.2    NA       0.0000   9999     1020  0     0    
2019/11/14  09:12:00  BASE  5.59188  253  6.05052  246  -6.4  100   -6.4  70    0     986.1    NA       0.0000   9999     1050  21620 0    
2019/11/14  09:13:00  BASE  5.42136  253  6.05052  246  -6.4  100   -6.4  73    0     986.1    NA       0.0000   9999     1020  0     0    
2019/11/14  09:14:00  BASE  4.9686   253  6.05052  246  -6.4  100   -6.4  76    0     986.2    NA       0.0000   9999     980   0     0    
2019/11/14  09:15:00  BASE  4.74516  253  6.05052  246  -6.5  100   -6.5  79    0     986.2    NA       0.0000   9999     1080  0     0    
2019/11/14  09:16:00  BASE  4.72164  248  6.05052  246  -6.5  100   -6.5  84    0     986.2    NA       0.0000   9999     1080  0     0    
2019/11/14  09:17:00  BASE  4.85688  240  6.05052  246  -6.6  100   -6.6  88    0     986.2    NA       0.0000   9999     1080  0     0    
2019/11/14  09:18:00  BASE  4.9392   241  6.05052  246  -6.6  100   -6.6  91    0     986.2    NA       0.0000   9999     1050  0     0    
2019/11/14  09:19:00  BASE  5.0862   247  6.05052  246  -6.6  100   -6.6  94    0     986.2    NA       0.0000   9999     1080  0     0    
2019/11/14  09:20:00  BASE  5.3508   245  6.05052  246  -6.6  100   -6.6  95    0     986.1    NA       0.0000   9999     1120  0     0    
2019/11/14  09:21:00  BASE  5.1156   242  5.99172  250  -6.7  100   -6.7  96    0     986.2    NA       0.0000   9999     1050  0     0    
2019/11/14  09:22:00  BASE  4.98624  243  5.95644  244  -6.7  100   -6.7  96    0     986.2    NA       0.0000   9999     1050  0     0    
2019/11/14  09:23:00  BASE  5.00976  248  5.95644  244  -6.7  100   -6.7  97    0     986.3    NA       0.0000   9999     1120  0     0    
2019/11/14  09:24:00  BASE  4.98036  250  5.95644  244  -6.7  100   -6.7  97    0     986.3    NA       0.0000   9999     1180  19590 21420
2019/11/14  09:25:00  BASE  5.15088  247  5.95644  244  -6.7  100   -6.7  100   0     986.3    NA       0.0000   9999     1210  0     0    
2019/11/14  09:26:00  BASE  5.4978   247  6.2034   240  -6.7  100   -6.7  106   0     986.2    NA       0.0000   9999     1210  0     0    
2019/11/14  09:27:00  BASE  5.43312  250  6.2034   240  -6.8  100   -6.8  110   0     986.3    NA       0.0000   9999     1210  0     0    
2019/11/14  09:28:00  BASE  4.65696  251  6.2034   240  -6.8  100   -6.8  110   0     986.3    NA       0.0000   9999     1120  0     0    
2019/11/14  09:29:00  BASE  3.75732  250  6.2034   240  -6.8  100   -6.8  108   0     986.3    NA       0.0000   9999     1180  0     0    
2019/11/14  09:30:00  BASE  3.28692  249  6.2034   240  -6.8  100   -6.8  106   0     986.3    NA       0.0000   9999     1280  0     0    
2019/11/14  09:31:00  BASE  3.09288  247  6.2034   240  -6.8  100   -6.8  102   0     986.3    NA       0.0000   9999     1280  0     0    
2019/11/14  09:32:00  BASE  2.69892  238  6.2034   240  -6.8  100   -6.8  95    0     986.3    NA       0.0000   9999     1250  0     0    
2019/11/14  09:33:00  BASE  2.16972  238  6.2034   240  -6.8  100   -6.8  96    0     986.3    NA       0.0000   9999     1280  0     0    
2019/11/14  09:34:00  BASE  2.12856  241  6.2034   240  -6.8  100   -6.8  103   0     986.3    NA       0.0000   9999     1310  0     0    
2019/11/14  09:35:00  BASE  2.4402   235  6.2034   240  -6.8  100   -6.9  106   0     986.3    NA       0.0000   9999     1310  0     0    
2019/11/14  09:36:00  BASE  3.16344  232  5.80944  251  -6.8  99    -6.9  108   0     986.3    NA       0.0000   9999     1350  0     0    
2019/11/14  09:37:00  BASE  3.91608  229  4.80984  222  -6.8  99    -6.9  104   0     986.3    NA       0.0000   9999     1310  0     0    
2019/11/14  09:38:00  BASE  4.22184  228  4.80984  227  -6.8  99    -6.9  105   0     986.3    NA       0.0000   9999     1280  0     0    
2019/11/14  09:39:00  BASE  4.37472  228  4.80984  227  -6.8  99    -6.9  105   0     986.3    NA       0.0000   9999     1350  0     0    
2019/11/14  09:40:00  BASE  4.05132  230  4.80984  227  -6.8  99    -7.0  104   0     986.3    NA       0.0000   9999     1310  0     0    
2019/11/14  09:41:00  BASE  3.68088  234  4.80984  227  -6.8  98    -7.0  103   0     986.4    NA       0.0000   9999     1380  0     0    
2019/11/14  09:42:00  BASE  3.59268  236  4.80984  227  -6.8  98    -7.1  104   0     986.3    NA       0.0000   9999     1440  0     0    
2019/11/14  09:43:00  BASE  3.65736  236  4.80984  227  -6.8  98    -7.1  110   0     986.3    NA       0.0000   9999     1510  0     0    
2019/11/14  09:44:00  BASE  3.41628  234  4.80984  227  -6.8  98    -7.1  116   0     986.3    NA       0.0000   9999     1540  16630 0    
2019/11/14  09:45:00  BASE  3.08112  235  4.80984  227  -6.8  97    -7.1  118   0     986.3    NA       0.0000   9999     1570  0     0    
2019/11/14  09:46:00  BASE  3.08112  229  4.80984  227  -6.8  97    -7.2  126   0     986.3    NA       0.0000   9999     1350  0     0    
2019/11/14  09:47:00  BASE  3.39276  225  4.80984  227  -6.8  97    -7.2  131   0     986.3    NA       0.0000   9999     1280  0     0    
2019/11/14  09:48:00  BASE  3.93372  226  4.75104  229  -6.8  97    -7.2  129   0     986.2    NA       0.0000   9999     1540  0     0    
2019/11/14  09:49:00  BASE  4.0278   227  4.59816  227  -6.8  96    -7.3  134   0     986.2    NA       0.0000   9999     1570  0     0    
2019/11/14  09:50:00  BASE  3.75732  231  4.59816  227  -6.8  96    -7.3  134   0     986.2    NA       0.0000   9999     1440  0     0    
2019/11/14  09:51:00  BASE  3.42216  236  4.59816  227  -6.8  96    -7.4  129   0     986.3    NA       0.0000   9999     1440  0     0    
2019/11/14  09:52:00  BASE  2.92824  240  4.59816  227  -6.8  95    -7.4  130   0     986.3    NA       0.0000   9999     1410  0     0    
2019/11/14  09:53:00  BASE  2.50488  245  4.59816  227  -6.8  95    -7.4  128   0     986.4    NA       0.0000   9999     1410  0     0    
2019/11/14  09:54:00  BASE  2.45196  251  4.59816  227  -6.7  95    -7.4  127   0     986.4    NA       0.0000   9999     1380  0     0    
2019/11/14  09:55:00  BASE  2.47548  253  4.59816  227  -6.7  95    -7.4  126   0     986.4    NA       0.0000   9999     1410  0     0    
2019/11/14  09:56:00  BASE  2.53428  247  4.59816  227  -6.7  95    -7.4  127   0     986.4    NA       0.0000   9999     1410  0     0    
2019/11/14  09:57:00  BASE  2.93412  242  4.59816  227  -6.7  95    -7.4  130   0     986.4    NA       0.0000   9999     1410  0     0    
2019/11/14  09:58:00  BASE  3.02232  243  4.08072  227  -6.7  95    -7.4  131   0     986.4    NA       0.0000   9999     1540  0     0    
2019/11/14  09:59:01  BASE  2.75772  246  3.93372  232  -6.7  95    -7.4  129   0     986.4    NA       0.0000   9999     1570  0     0    
2019/11/14  10:00:00  BASE  2.86944  249  3.69264  246  -6.7  95    -7.4  131   0     986.4    NA       0.0000   9999     1540  0     0    
2019/11/14  10:01:00  BASE  3.06936  247  3.69264  246  -6.7  95    -7.4  131   0     986.4    NA       0.0000   9999     1440  0     0    
2019/11/14  10:02:00  BASE  2.95764  238  3.69264  246  -6.7  95    -7.4  132   0     986.4    NA       0.0000   9999     1480  0     0    
2019/11/14  10:03:00  BASE  3.09288  232  3.86904  230  -6.7  95    -7.4  132   0     986.4    NA       0.0000   9999     1540  0     0    
2019/11/14  10:04:00  BASE  3.5574   236  4.2042   246  -6.7  95    -7.4  133   0     986.4    NA       0.0000   9999     1480  0     0    
2019/11/14  10:05:00  BASE  3.47508  243  4.2042   245  -6.7  95    -7.4  131   0     986.4    NA       0.0000   9999     1480  0     0    
2019/11/14  10:06:00  BASE  2.62248  246  4.2042   245  -6.7  95    -7.4  132   0     986.5    NA       0.0000   9999     1570  0     0    
2019/11/14  10:07:00  BASE  2.28144  247  4.2042   245  -6.7  95    -7.4  131   0     986.5    NA       0.0000   9999     1570  0     0    
2019/11/14  10:08:00  BASE  2.49312  247  4.2042   245  -6.8  95    -7.4  129   0     986.5    NA       0.0000   9999     1440  0     0    
2019/11/14  10:09:00  BASE  2.58132  242  4.2042   245  -6.8  95    -7.5  127   0     986.6    NA       0.0000   9999     1440  0     0    
2019/11/14  10:10:00  BASE  2.5872   240  4.2042   245  -6.8  94    -7.5  126   0     986.6    NA       0.0000   9999     1380  0     0    
2019/11/14  10:11:00  BASE  2.48136  247  4.2042   245  -6.7  94    -7.6  126   0     986.6    NA       0.0000   9999     1440  0     0    
2019/11/14  10:12:00  BASE  2.78124  246  4.2042   245  -6.7  93    -7.6  127   0     986.5    NA       0.0000   9999     1410  0     0    
2019/11/14  10:13:00  BASE  2.90472  246  4.2042   245  -6.7  93    -7.6  128   0     986.5    NA       0.0000   9999     1410  0     0    
2019/11/14  10:14:00  BASE  2.87532  250  4.2042   245  -6.7  93    -7.6  127   0     986.5    NA       0.0000   9999     1570  0     0    
2019/11/14  10:15:00  BASE  3.01644  249  3.38688  248  -6.7  93    -7.6  129   0     986.5    NA       0.0000   9999     1540  0     0    
2019/11/14  10:16:00  BASE  2.89296  250  3.38688  248  -6.6  93    -7.6  131   0     986.5    NA       0.0000   9999     1510  0     0    
2019/11/14  10:17:00  BASE  2.78124  252  3.38688  248  -6.6  93    -7.5  131   0     986.6    NA       0.0000   9999     1510  0     0    
2019/11/14  10:18:00  BASE  2.94588  252  3.65736  245  -6.6  94    -7.5  133   0     986.6    NA       0.0000   9999     1510  0     0    
2019/11/14  10:19:00  BASE  2.9694   248  3.65736  245  -6.6  94    -7.5  138   0     986.6    NA       0.0000   9999     1610  0     0    
2019/11/14  10:20:00  BASE  2.87532  245  3.65736  245  -6.6  94    -7.4  139   0     986.6    NA       0.0000   9999     1570  0     0    
2019/11/14  10:21:00  BASE  3.16932  242  3.75144  236  -6.6  94    -7.4  144   0     986.6    NA       0.0000   9999     1800  0     0    
2019/11/14  10:22:00  BASE  3.18696  240  3.75144  236  -6.6  94    -7.4  148   0     986.6    NA       0.0000   9999     1770  0     0    
2019/11/14  10:23:00  BASE  3.16344  240  3.78084  235  -6.6  94    -7.5  154   0     986.6    NA       0.0000   9999     1640  0     0    
2019/11/14  10:24:00  BASE  3.35748  237  3.78084  235  -6.7  94    -7.5  160   0     986.6    NA       0.0000   9999     1570  0     0    
2019/11/14  10:25:00  BASE  3.00468  241  3.78084  235  -6.7  94    -7.5  163   0     986.6    NA       0.0000   9999     1510  0     0    
2019/11/14  10:26:00  BASE  2.499    245  3.78084  235  -6.7  93    -7.6  160   0     986.6    NA       0.0000   9999     1410  0     0    
2019/11/14  10:27:00  BASE  2.39904  237  3.78084  235  -6.7  93    -7.6  160   0     986.6    NA       0.0000   9999     1410  0     0    
2019/11/14  10:28:00  BASE  2.5284   230  3.78084  235  -6.6  93    -7.6  162   0     986.6    NA       0.0000   9999     1380  0     0    
2019/11/14  10:29:00  BASE  2.44608  241  3.78084  235  -6.6  93    -7.5  166   0     986.6    NA       0.0000   9999     1350  0     0    
2019/11/14  10:30:00  BASE  2.44608  252  3.78084  235  -6.6  93    -7.5  170   0     986.6    NA       0.0000   9999     1380  0     0    
2019/11/14  10:31:00  BASE  2.62248  251  3.78084  235  -6.6  94    -7.5  178   0     986.6    NA       0.0000   9999     1380  0     0    
2019/11/14  10:32:00  BASE  2.65188  254  3.78084  235  -6.6  94    -7.4  187   0     986.6    NA       0.0000   9999     1380  0     0    
2019/11/14  10:33:00  BASE  3.09876  256  4.59816  252  -6.6  94    -7.4  191   0     986.6    NA       0.0000   9999     1350  0     0    
2019/11/14  10:34:00  BASE  3.83376  252  4.59816  252  -6.6  94    -7.4  193   0     986.6    NA       0.0000   9999     1350  0     0    
2019/11/14  10:35:00  BASE  3.55152  248  4.59816  252  -6.6  94    -7.4  198   0     986.6    NA       0.0000   9999     1350  0     0    
2019/11/14  10:36:00  BASE  3.00468  244  4.59816  252  -6.6  94    -7.4  206   0     986.6    NA       0.0000   9999     1350  0     0    
2019/11/14  10:37:00  BASE  3.01056  245  4.59816  252  -6.6  94    -7.4  207   0     986.6    NA       0.0000   9999     1440  0     0    
2019/11/14  10:38:00  BASE  3.10464  249  4.59816  252  -6.6  94    -7.4  207   0     986.5    NA       0.0000   9999     1410  0     0    
2019/11/14  10:39:00  BASE  3.2634   251  4.59816  252  -6.6  94    -7.4  205   0     986.6    NA       0.0000   9999     1410  0     0    
2019/11/14  10:40:00  BASE  3.18108  251  4.59816  252  -6.6  94    -7.4  196   0     986.6    NA       0.0000   9999     1480  0     0    
2019/11/14  10:41:00  BASE  2.8812   253  4.59816  252  -6.6  94    -7.4  180   0     986.6    NA       0.0000   9999     1610  0     0    
2019/11/14  10:42:00  BASE  2.7048   253  4.59816  252  -6.6  94    -7.4  173   0     986.6    NA       0.0000   9999     1410  0     0    
2019/11/14  10:43:00  BASE  2.646    249  4.47468  260  -6.6  94    -7.4  168   0     986.6    NA       0.0000   9999     1440  0     0    
2019/11/14  10:44:00  BASE  2.8812   251  3.69264  247  -6.6  94    -7.4  175   0     986.6    NA       0.0000   9999     1410  0     0    
2019/11/14  10:45:00  BASE  3.38688  252  3.83964  252  -6.6  94    -7.4  183   0     986.6    NA       0.0000   9999     1410  0     0    
2019/11/14  10:46:00  BASE  3.42216  245  3.83964  252  -6.6  94    -7.4  191   0     986.6    NA       0.0000   9999     1480  0     0    
2019/11/14  10:47:00  BASE  3.07524  248  3.83964  252  -6.6  94    -7.4  198   0     986.6    NA       0.0000   9999     1480  23390 0    
2019/11/14  10:48:00  BASE  2.8518   256  3.83964  252  -6.6  94    -7.4  197   0     986.7    NA       0.0000   9999     1410  0     0    
2019/11/14  10:49:00  BASE  2.7048   250  3.83964  252  -6.6  94    -7.4  194   0     986.7    NA       0.0000   9999     1480  0     0    
2019/11/14  10:50:00  BASE  2.79888  250  4.08072  257  -6.6  94    -7.4  193   0     986.7    NA       0.0000   9999     1480  0     0    
2019/11/14  10:51:00  BASE  3.07524  249  4.08072  257  -6.6  94    -7.4  203   0     986.7    NA       0.0000   9999     1350  0     0    
2019/11/14  10:52:00  BASE  3.03996  242  4.08072  257  -6.6  93    -7.5  210   0     986.7    NA       0.0000   9999     1350  0     0    
2019/11/14  10:53:00  BASE  3.12816  244  4.08072  257  -6.6  93    -7.5  212   0     986.7    NA       0.0000   9999     1350  0     0    
2019/11/14  10:54:00  BASE  3.46332  237  4.08072  257  -6.5  93    -7.5  217   0     986.7    NA       0.0000   9999     1380  0     0    
2019/11/14  10:55:00  BASE  3.69264  229  4.1454   240  -6.6  93    -7.5  224   0     986.6    NA       0.0000   9999     1380  0     0    
2019/11/14  10:56:00  BASE  3.51624  238  4.1454   240  -6.6  93    -7.5  236   0     986.6    NA       0.0000   9999     1350  0     0    
2019/11/14  10:57:00  BASE  3.09288  242  4.1454   240  -6.6  93    -7.5  246   0     986.6    NA       0.0000   9999     1350  0     0    
2019/11/14  10:58:00  BASE  2.74008  242  4.1454   240  -6.6  93    -7.5  248   0     986.7    NA       0.0000   9999     1350  0     0    
2019/11/14  10:59:00  BASE  2.81652  245  4.1454   240  -6.6  93    -7.5  242   0     986.7    NA       0.0000   9999     1350  0     0    
2019/11/14  11:00:00  BASE  3.6162   248  4.44528  248  -6.6  93    -7.5  242   0     986.7    NA       0.0000   9999     1280  0     0    
2019/11/14  11:01:00  BASE  3.62796  251  4.44528  248  -6.6  93    -7.6  246   0     986.7    NA       0.0000   9999     1310  0     0    
2019/11/14  11:02:00  BASE  2.91648  250  4.44528  248  -6.6  93    -7.6  242   0     986.7    NA       0.0000   9999     1250  0     0    
2019/11/14  11:03:00  BASE  2.38728  246  4.44528  248  -6.6  93    -7.5  243   0     986.7    NA       0.0000   9999     1250  0     0    
2019/11/14  11:04:00  BASE  2.13444  243  4.44528  248  -6.6  93    -7.6  251   0     986.7    NA       0.0000   9999     1410  0     0    
2019/11/14  11:05:00  BASE  2.0874   242  4.44528  248  -6.6  93    -7.6  271   0     986.7    NA       0.0000   9999     1350  0     0    
2019/11/14  11:06:00  BASE  1.79928  243  4.44528  248  -6.6  93    -7.6  273   0     986.7    NA       0.0000   9999     1350  0     0    
2019/11/14  11:07:00  BASE  1.7934   246  4.44528  248  -6.6  93    -7.6  262   0     986.8    NA       0.0000   9999     1410  0     0    
2019/11/14  11:08:00  BASE  2.01684  241  4.44528  248  -6.6  93    -7.6  252   0     986.8    NA       0.0000   9999     1350  0     0    
2019/11/14  11:09:00  BASE  2.02272  242  4.44528  248  -6.6  93    -7.6  241   0     986.8    NA       0.0000   9999     1350  0     0    
2019/11/14  11:10:00  BASE  2.45196  251  3.41628  256  -6.6  93    -7.6  230   0     986.8    NA       0.0000   9999     1310  0     0    
2019/11/14  11:11:00  BASE  2.86944  250  3.32808  255  -6.6  93    -7.5  228   0     986.8    NA       0.0000   9999     1280  0     0    
2019/11/14  11:12:00  BASE  2.72832  247  3.32808  255  -6.6  93    -7.6  234   0     986.8    NA       0.0000   9999     1280  0     0    
2019/11/14  11:13:00  BASE  2.71068  245  3.32808  255  -6.6  93    -7.6  243   0     986.7    NA       0.0000   9999     1280  0     0    
2019/11/14  11:14:00  BASE  2.59308  245  3.32808  255  -6.6  93    -7.6  244   0     986.7    NA       0.0000   9999     1280  0     0    
2019/11/14  11:15:00  BASE  2.16384  245  3.32808  255  -6.6  92    -7.6  244   0     986.7    NA       0.0000   9999     1310  0     0    
2019/11/14  11:16:00  BASE  1.9992   243  3.32808  255  -6.6  92    -7.6  236   0     986.7    NA       0.0000   9999     1350  0     0    
2019/11/14  11:17:00  BASE  2.39316  245  3.32808  255  -6.6  92    -7.6  228   0     986.6    NA       0.0000   9999     1280  0     0    
2019/11/14  11:18:00  BASE  2.7342   241  3.32808  255  -6.6  92    -7.6  222   0     986.6    NA       0.0000   9999     1310  0     0    
2019/11/14  11:19:00  BASE  2.5284   232  3.32808  255  -6.6  93    -7.6  224   0     986.6    NA       0.0000   9999     1280  0     0    
2019/11/14  11:20:00  BASE  2.37552  230  3.29868  248  -6.6  93    -7.6  234   0     986.6    NA       0.0000   9999     1250  0     0    
2019/11/14  11:21:00  BASE  2.2932   232  3.29868  248  -6.6  93    -7.5  240   0     986.6    NA       0.0000   9999     1350  0     0    
2019/11/14  11:22:00  BASE  2.12856  231  3.29868  248  -6.6  93    -7.6  251   0     986.6    NA       0.0000   9999     1310  0     0    
2019/11/14  11:23:00  BASE  2.0874   231  3.234    228  -6.6  93    -7.6  254   0     986.6    NA       0.0000   9999     1380  0     0    
2019/11/14  11:24:00  BASE  2.45196  232  3.29868  226  -6.6  93    -7.6  260   0     986.6    NA       0.0000   9999     1350  0     0    
2019/11/14  11:25:00  BASE  2.98704  231  3.29868  226  -6.6  93    -7.6  257   0     986.6    NA       0.0000   9999     1310  0     0    
2019/11/14  11:26:00  BASE  2.88708  235  3.29868  242  -6.6  93    -7.6  249   0     986.6    NA       0.0000   9999     1280  0     0    
2019/11/14  11:27:00  BASE  2.62248  242  3.29868  242  -6.6  93    -7.6  239   0     986.6    NA       0.0000   9999     1280  0     0    
2019/11/14  11:28:00  BASE  2.41668  245  3.29868  242  -6.6  93    -7.5  235   0     986.6    NA       0.0000   9999     1310  0     0    
2019/11/14  11:29:00  BASE  2.45196  248  3.65736  259  -6.6  93    -7.5  233   0     986.6    NA       0.0000   9999     1310  0     0    
2019/11/14  11:30:00  BASE  2.90472  257  3.75144  269  -6.6  93    -7.5  235   0     986.7    NA       0.0000   9999     1310  0     0    
2019/11/14  11:31:00  BASE  2.63424  258  3.75144  269  -6.6  93    -7.5  241   0     986.7    NA       0.0000   9999     1280  0     0    
2019/11/14  11:32:00  BASE  1.98744  257  3.75144  269  -6.6  93    -7.5  248   0     986.6    NA       0.0000   9999     1280  0     0    
2019/11/14  11:33:00  BASE  1.68168  255  3.75144  269  -6.6  93    -7.5  257   0     986.6    NA       0.0000   9999     1380  0     0    
2019/11/14  11:34:00  BASE  1.69344  241  3.75144  269  -6.6  93    -7.5  257   0     986.6    NA       0.0000   9999     1350  0     0    
2019/11/14  11:35:00  BASE  2.00508  232  3.75144  269  -6.6  93    -7.5  257   0     986.6    NA       0.0000   9999     1350  23490 0    
2019/11/14  11:36:00  BASE  2.14032  236  3.75144  269  -6.6  93    -7.5  253   0     986.7    NA       0.0000   9999     1350  0     0    
2019/11/14  11:37:00  BASE  2.08152  236  3.75144  269  -6.6  93    -7.5  251   0     986.7    NA       0.0000   9999     1310  0     0    
2019/11/14  11:38:00  BASE  2.05212  233  3.75144  269  -6.6  93    -7.5  250   0     986.7    NA       0.0000   9999     1280  0     0    
2019/11/14  11:39:00  BASE  2.05212  232  3.75144  269  -6.6  93    -7.5  255   0     986.7    NA       0.0000   9999     1350  0     0    
2019/11/14  11:40:00  BASE  1.95804  231  2.51076  241  -6.6  93    -7.5  264   0     986.8    NA       0.0000   9999     1310  0     0    
2019/11/14  11:41:00  BASE  1.91688  227  2.56956  211  -6.6  93    -7.5  270   0     986.8    NA       0.0000   9999     1350  0     0    
2019/11/14  11:42:00  BASE  2.18736  222  2.63424  220  -6.6  93    -7.5  270   0     986.8    NA       0.0000   9999     1350  0     0    
2019/11/14  11:43:00  BASE  2.38728  228  2.75184  239  -6.6  93    -7.5  276   0     986.8    NA       0.0000   9999     1350  0     0    
2019/11/14  11:44:00  BASE  2.28144  247  2.84592  250  -6.5  93    -7.5  283   0     986.8    NA       0.0000   9999     1380  0     0    
2019/11/14  11:45:00  BASE  2.27556  249  2.84592  250  -6.5  93    -7.4  293   0     986.8    NA       0.0000   9999     1350  0     0    
2019/11/14  11:46:00  BASE  2.48136  239  3.0576   242  -6.5  93    -7.4  306   0     986.8    NA       0.0000   9999     1310  0     0    
2019/11/14  11:47:00  BASE  2.7636   236  3.26928  229  -6.4  93    -7.4  308   0     986.8    NA       0.0000   9999     1380  0     0    
2019/11/14  11:48:00  BASE  2.7636   234  3.26928  229  -6.4  93    -7.4  301   0     986.7    NA       0.0000   9999     1380  0     0    
2019/11/14  11:49:00  BASE  2.69304  233  3.26928  237  -6.4  93    -7.4  299   0     986.6    NA       0.0000   9999     1350  0     0    
2019/11/14  11:50:00  BASE  2.66364  230  3.26928  237  -6.4  93    -7.4  296   0     986.8    NA       0.0000   9999     1350  0     0    
2019/11/14  11:51:00  BASE  2.56956  225  3.26928  237  -6.4  93    -7.4  297   0     986.8    NA       0.0000   9999     1380  21100 0    
2019/11/14  11:52:00  BASE  2.5284   221  3.26928  237  -6.4  93    -7.4  296   0     986.8    NA       0.0000   9999     1380  0     0    
2019/11/14  11:53:00  BASE  2.61072  226  3.26928  237  -6.4  93    -7.4  300   0     986.8    NA       0.0000   9999     1380  0     0    
2019/11/14  11:54:00  BASE  2.89296  232  3.35748  241  -6.5  93    -7.4  300   0     986.8    NA       0.0000   9999     1380  0     0    
2019/11/14  11:55:00  BASE  2.95764  231  3.35748  241  -6.5  93    -7.4  298   0     986.8    NA       0.0000   9999     1380  0     0    
2019/11/14  11:56:00  BASE  2.7636   228  3.35748  241  -6.5  93    -7.4  306   0     986.8    NA       0.0000   9999     1380  0     0    
2019/11/14  11:57:00  BASE  2.69304  231  3.35748  241  -6.5  93    -7.4  314   0     986.8    NA       0.0000   9999     1380  0     0    
2019/11/14  11:58:00  BASE  2.6754   230  3.35748  241  -6.5  93    -7.4  321   0     986.8    NA       0.0000   9999     1350  0     0    
2019/11/14  11:59:00  BASE  2.52252  227  3.35748  241  -6.5  93    -7.4  326   0     986.8    NA       0.0000   9999     1380  0     0    
2019/11/14  12:00:00  BASE  2.26968  229  3.35748  241  -6.5  93    -7.4  328   0     986.8    NA       0.0000   9999     1380  0     0    
2019/11/14  12:01:00  BASE  2.37552  230  3.35748  241  -6.5  93    -7.4  332   0     986.8    NA       0.0000   9999     1380  0     0    
2019/11/14  12:02:00  BASE  2.5578   229  3.35748  241  -6.5  93    -7.5  335   0     986.8    NA       0.0000   9999     1380  0     0    
2019/11/14  12:03:00  BASE  2.65776  224  3.35748  241  -6.5  93    -7.5  332   0     986.8    NA       0.0000   9999     1350  0     0    
2019/11/14  12:04:00  BASE  2.75772  224  3.2046   227  -6.4  92    -7.5  330   0     986.7    NA       0.0000   9999     1350  0     0    
2019/11/14  12:05:00  BASE  2.64012  229  3.02232  222  -6.4  92    -7.5  328   0     986.7    NA       0.0000   9999     1380  0     0    
2019/11/14  12:06:00  BASE  2.65188  230  3.02232  222  -6.4  92    -7.5  324   0     986.7    NA       0.0000   9999     1380  0     0    
2019/11/14  12:07:00  BASE  2.68716  235  3.02232  222  -6.4  92    -7.5  316   0     986.7    NA       0.0000   9999     1380  0     0    
2019/11/14  12:08:00  BASE  2.63424  242  3.02232  222  -6.4  92    -7.5  311   0     986.7    NA       0.0000   9999     1410  0     0    
2019/11/14  12:09:00  BASE  2.50488  246  3.1164   251  -6.4  92    -7.5  309   0     986.8    NA       0.0000   9999     1380  0     0    
2019/11/14  12:10:00  BASE  2.34612  248  3.1164   251  -6.4  92    -7.5  310   0     986.8    NA       0.0000   9999     1380  0     0    
2019/11/14  12:11:00  BASE  2.33436  248  3.1164   251  -6.4  92    -7.5  309   0     986.8    NA       0.0000   9999     1310  0     0    
2019/11/14  12:12:00  BASE  2.32848  248  3.1164   251  -6.4  92    -7.5  309   0     986.8    NA       0.0000   9999     1350  0     0    
2019/11/14  12:13:00  BASE  2.30496  250  3.1164   251  -6.4  92    -7.5  313   0     986.7    NA       0.0000   9999     1380  0     0    
2019/11/14  12:14:00  BASE  2.27556  253  3.1164   251  -6.4  92    -7.5  318   0     986.7    NA       0.0000   9999     1350  0     0    
2019/11/14  12:15:00  BASE  2.1756   251  3.1164   251  -6.4  92    -7.5  323   0     986.7    NA       0.0000   9999     1380  0     0    
2019/11/14  12:16:00  BASE  2.28144  254  3.1164   251  -6.4  92    -7.5  329   0     986.8    NA       0.0000   9999     1380  0     0    
2019/11/14  12:17:00  BASE  2.27556  257  3.1164   251  -6.4  92    -7.6  335   0     986.7    NA       0.0000   9999     1380  0     0    
2019/11/14  12:18:00  BASE  2.04036  255  3.1164   251  -6.5  92    -7.6  337   0     986.7    NA       0.0000   9999     1380  0     0    
2019/11/14  12:19:00  BASE  2.10504  258  2.66364  259  -6.4  91    -7.6  336   0     986.7    NA       0.0000   9999     1380  0     0    
2019/11/14  12:20:00  BASE  2.3226   261  2.66364  259  -6.4  91    -7.6  335   0     986.7    NA       0.0000   9999     1350  0     0    
2019/11/14  12:21:00  BASE  2.46372  259  2.93412  260  -6.4  91    -7.6  335   0     986.8    NA       0.0000   9999     1350  0     0    
2019/11/14  12:22:00  BASE  2.62248  254  2.93412  260  -6.4  91    -7.6  336   0     986.8    NA       0.0000   9999     1350  0     0    
2019/11/14  12:23:00  BASE  2.66952  253  2.93412  260  -6.4  91    -7.6  335   0     986.8    NA       0.0000   9999     1380  0     0    
2019/11/14  12:24:00  BASE  2.5872   255  2.93412  260  -6.3  91    -7.6  327   0     986.8    NA       0.0000   9999     1380  0     0    
2019/11/14  12:25:00  BASE  2.55192  256  2.93412  260  -6.4  91    -7.6  316   0     986.8    NA       0.0000   9999     1350  0     0    
2019/11/14  12:26:00  BASE  2.54604  253  2.93412  260  -6.4  91    -7.6  309   0     986.8    NA       0.0000   9999     1350  0     0    
2019/11/14  12:27:00  BASE  2.25204  258  2.93412  260  -6.4  91    -7.6  308   0     986.8    NA       0.0000   9999     1350  0     0    
2019/11/14  12:28:00  BASE  2.27556  264  2.93412  260  -6.4  91    -7.6  308   0     986.8    NA       0.0000   9999     1350  0     0    
2019/11/14  12:29:00  BASE  2.53428  262  2.93412  260  -6.4  91    -7.6  308   0     986.9    NA       0.0000   9999     1350  0     0    
2019/11/14  12:30:00  BASE  2.51664  258  2.93412  260  -6.4  91    -7.6  305   0     986.9    NA       0.0000   9999     1350  0     0    
2019/11/14  12:31:00  BASE  2.51076  257  2.90472  252  -6.4  91    -7.6  302   0     986.9    NA       0.0000   9999     1350  0     0    
2019/11/14  12:32:00  BASE  2.52252  253  2.90472  252  -6.4  91    -7.6  309   0     987.0    NA       0.0000   9999     1350  0     0    
2019/11/14  12:33:00  BASE  2.52252  250  2.84592  254  -6.4  91    -7.6  304   0     987.0    NA       0.0000   9999     1350  0     0    
2019/11/14  12:34:00  BASE  2.45784  253  2.81064  243  -6.4  91    -7.5  306   0     987.0    NA       0.0000   9999     1350  22870 0    
2019/11/14  12:35:00  BASE  2.28732  252  2.81064  243  -6.4  92    -7.5  325   0     987.0    NA       0.0000   9999     1350  0     0    
2019/11/14  12:36:00  BASE  2.06976  252  2.81064  243  -6.4  92    -7.5  336   0     987.0    NA       0.0000   9999     1350  0     0    
2019/11/14  12:37:00  BASE  1.87572  256  2.81064  243  -6.4  92    -7.5  348   0     987.0    NA       0.0000   9999     1310  0     0    
2019/11/14  12:38:00  BASE  1.63464  269  2.81064  243  -6.4  92    -7.4  358   0     987.1    NA       0.0000   9999     1310  0     0    
2019/11/14  12:39:00  BASE  1.38768  276  2.81064  243  -6.3  92    -7.4  362   0     987.1    NA       0.0000   9999     1350  0     0    
2019/11/14  12:40:00  BASE  1.43472  266  2.81064  243  -6.3  92    -7.4  360   0     987.1    NA       0.0000   9999     1350  0     0    
2019/11/14  12:41:00  BASE  1.55232  261  2.81064  243  -6.3  92    -7.4  351   0     987.1    NA       0.0000   9999     1350  0     0    
2019/11/14  12:42:00  BASE  1.72284  266  2.81064  243  -6.3  92    -7.4  340   0     987.1    NA       0.0000   9999     1310  0     0    
2019/11/14  12:43:00  BASE  1.617    273  2.59896  254  -6.3  92    -7.4  333   0     987.1    NA       0.0000   9999     1310  0     0    
2019/11/14  12:44:00  BASE  1.38768  278  2.48136  246  -6.3  92    -7.4  330   0     987.1    NA       0.0000   9999     1310  0     0    
2019/11/14  12:45:00  BASE  1.50528  278  2.29908  272  -6.3  92    -7.4  331   0     987.1    NA       0.0000   9999     1310  0     0    
2019/11/14  12:46:00  BASE  1.82868  289  2.29908  272  -6.3  92    -7.4  334   0     987.1    NA       0.0000   9999     1310  19750 0    
2019/11/14  12:47:00  BASE  2.058    300  2.29908  272  -6.3  92    -7.3  337   0     987.1    NA       0.0000   9999     1310  0     0    
2019/11/14  12:48:00  BASE  1.98156  297  2.29908  272  -6.2  92    -7.3  339   0     987.1    NA       0.0000   9999     1310  0     0    
2019/11/14  12:49:00  BASE  1.92276  296  2.29908  272  -6.2  92    -7.2  342   0     987.1    NA       0.0000   9999     1350  0     0    
2019/11/14  12:50:00  BASE  1.79928  294  2.29908  272  -6.2  93    -7.2  344   0     987.1    NA       0.0000   9999     1310  0     0    
2019/11/14  12:51:00  BASE  2.02272  293  2.78124  289  -6.1  93    -7.1  347   0     987.1    NA       0.0000   9999     1310  0     0    
2019/11/14  12:52:00  BASE  2.28144  295  2.78124  289  -6.1  93    -7.0  351   0     987.1    NA       0.0000   9999     1280  0     0    
2019/11/14  12:53:00  BASE  2.205    298  2.78124  289  -6.1  93    -7.1  357   0     987.1    NA       0.0000   9999     1280  20150 21060
2019/11/14  12:54:00  BASE  2.24028  299  2.78124  289  -6.1  93    -7.1  362   0     987.1    NA       0.0000   9999     1280  21980 0    
2019/11/14  12:55:00  BASE  2.21676  295  2.78124  289  -6.1  93    -7.1  368   0     987.1    NA       0.0000   9999     1280  0     0    
2019/11/14  12:56:00  BASE  2.05212  294  2.78124  289  -6.1  93    -7.1  373   0     987.1    NA       0.0000   9999     1280  0     0    
2019/11/14  12:57:00  BASE  1.9992   297  2.78124  289  -6.1  93    -7.1  378   0     987.1    NA       0.0000   9999     1280  0     0    
2019/11/14  12:58:00  BASE  2.09916  308  2.78124  289  -6.1  93    -7.0  381   0     987.2    NA       0.0000   9999     1280  0     0    
2019/11/14  12:59:00  BASE  2.48724  318  3.26928  313  -6.1  93    -7.0  380   0     987.2    NA       0.0000   9999     1250  0     0    
2019/11/14  13:00:00  BASE  2.8812   317  3.26928  313  -6.1  93    -7.0  376   0     987.2    NA       0.0000   9999     1350  0     0    
2019/11/14  13:01:00  BASE  2.69892  316  3.26928  313  -6.1  93    -7.1  371   0     987.2    NA       0.0000   9999     1310  0     0    
2019/11/14  13:02:00  BASE  2.39904  318  3.26928  313  -6.1  93    -7.1  368   0     987.2    NA       0.0000   9999     1280  0     0    
2019/11/14  13:03:00  BASE  2.21088  323  3.26928  313  -6.2  93    -7.1  368   0     987.2    NA       0.0000   9999     1310  0     0    
2019/11/14  13:04:00  BASE  2.05212  325  3.26928  313  -6.2  93    -7.2  371   0     987.2    NA       0.0000   9999     1280  0     0    
2019/11/14  13:05:00  BASE  1.96392  324  3.26928  313  -6.3  93    -7.2  375   0     987.2    NA       0.0000   9999     1280  0     0    
2019/11/14  13:06:00  BASE  1.92864  325  3.26928  313  -6.3  93    -7.2  386   0     987.2    NA       0.0000   9999     1280  0     0    
2019/11/14  13:07:00  BASE  2.09328  329  3.26928  313  -6.2  93    -7.2  399   0     987.2    NA       0.0000   9999     1280  0     0    
2019/11/14  13:08:00  BASE  2.2932   331  3.26928  313  -6.2  93    -7.2  411   0     987.2    NA       0.0000   9999     1280  20930 0    
2019/11/14  13:09:00  BASE  2.19912  326  3.1752   319  -6.2  93    -7.1  425   0     987.2    NA       0.0000   9999     1280  0     0    
2019/11/14  13:10:00  BASE  1.74636  319  2.75184  314  -6.2  93    -7.1  444   0     987.2    NA       0.0000   9999     1280  0     0    
2019/11/14  13:11:00  BASE  1.32888  315  2.48136  318  -6.2  93    -7.1  467   0     987.2    NA       0.0000   9999     1310  0     0    
2019/11/14  13:12:00  BASE  1.42296  324  2.42256  328  -6.2  93    -7.1  493   0     987.2    NA       0.0000   9999     1380  0     0    
2019/11/14  13:13:00  BASE  1.72872  339  2.42256  328  -6.2  93    -7.2  513   0     987.2    NA       0.0000   9999     1410  0     0    
2019/11/14  13:14:00  BASE  1.62876  350  2.42256  328  -6.2  93    -7.2  519   0     987.0    NA       0.0000   9999     1380  0     0    
2019/11/14  13:15:00  BASE  1.22892  359  2.42256  328  -6.2  92    -7.2  515   0     987.1    NA       0.0000   9999     1350  0     0    
2019/11/14  13:16:00  BASE  1.0878   351  2.42256  328  -6.2  92    -7.2  504   0     987.2    NA       0.0000   9999     1310  17590 21160
2019/11/14  13:17:00  BASE  1.0878   329  2.42256  328  -6.2  92    -7.3  503   0     987.2    NA       0.0000   9999     1380  0     0    
2019/11/14  13:18:00  BASE  1.17012  326  2.42256  328  -6.1  92    -7.2  500   0     987.2    NA       0.0000   9999     1350  0     0    
2019/11/14  13:19:00  BASE  1.31124  340  2.0874   340  -6.1  92    -7.2  493   0     987.2    NA       0.0000   9999     1350  0     0    
2019/11/14  13:20:00  BASE  1.14072  349  2.0874   340  -6.1  92    -7.2  493   0     987.2    NA       0.0000   9999     1310  0     0    
2019/11/14  13:21:00  BASE  0.8232   357  2.0874   340  -6.2  92    -7.2  487   0     987.2    NA       0.0000   9999     1280  0     0    
2019/11/14  13:22:00  BASE  0.62916  4    2.0874   340  -6.2  92    -7.3  481   0     987.2    NA       0.0000   9999     1310  0     0    
2019/11/14  13:23:00  BASE  0.27636  4    1.60524  360  -6.2  92    -7.3  478   0     987.1    NA       0.0000   9999     1310  17550 0    
2019/11/14  13:24:00  BASE  0.18228  358  1.57584  345  -6.3  92    -7.4  471   0     987.1    NA       0.0000   9999     1310  0     0    
2019/11/14  13:25:00  BASE  0.3528   2    1.57584  345  -6.3  92    -7.4  479   0     987.1    NA       0.0000   9999     1310  0     0    
2019/11/14  13:26:00  BASE  0.441    6    1.57584  345  -6.3  92    -7.4  490   0     987.1    NA       0.0000   9999     1310  0     0    
2019/11/14  13:27:00  BASE  0.27048  358  1.57584  345  -6.3  92    -7.4  487   0     987.1    NA       0.0000   9999     1310  0     0    
2019/11/14  13:28:00  BASE  0.24696  1    1.48176  349  -6.3  92    -7.3  485   0     987.1    NA       0.0000   9999     1310  0     0    
2019/11/14  13:29:00  BASE  0.68796  23   1.1466   334  -6.2  92    -7.3  489   0     987.1    NA       0.0000   9999     1310  0     0    
2019/11/14  13:30:00  BASE  0.9114   32   1.0878   28   -6.2  92    -7.3  479   0     987.1    NA       0.0000   9999     1280  0     0    
2019/11/14  13:31:00  BASE  0.75852  33   1.0878   38   -6.1  92    -7.2  468   0     987.1    NA       0.0000   9999     1280  0     0    
2019/11/14  13:32:00  BASE  0.72324  37   1.24068  39   -6.1  92    -7.2  466   0     987.1    NA       0.0000   9999     1310  0     0    
2019/11/14  13:33:00  BASE  0.89376  43   1.24068  39   -6.0  92    -7.1  469   0     987.1    NA       0.0000   9999     1280  0     0    
2019/11/14  13:34:00  BASE  0.87024  56   1.24068  39   -6.0  92    -7.1  470   0     987.1    NA       0.0000   9999     1280  0     0    
2019/11/14  13:35:00  BASE  0.88788  66   1.24068  39   -6.0  92    -7.0  473   0     987.0    NA       0.0000   9999     1310  0     0    
2019/11/14  13:36:00  BASE  1.04664  72   1.48176  75   -5.9  92    -7.0  473   0     987.0    NA       0.0000   9999     1310  0     0    
2019/11/14  13:37:00  BASE  1.37004  55   1.69344  15   -5.8  92    -6.9  467   0     986.9    NA       0.0000   9999     1350  0     0    
2019/11/14  13:38:00  BASE  1.36416  25   1.69344  15   -5.8  92    -6.9  461   0     987.0    NA       0.0000   9999     1310  0     0    
2019/11/14  13:39:00  BASE  1.2936   17   1.75224  12   -5.8  92    -6.9  457   0     987.0    NA       0.0000   9999     1310  0     0    
2019/11/14  13:40:00  BASE  1.5876   22   2.0286   31   -5.8  92    -6.9  454   0     986.7    NA       0.0000   9999     1310  20280 0    
2019/11/14  13:41:00  BASE  1.65816  35   2.0286   31   -5.8  92    -6.9  444   0     986.9    NA       0.0000   9999     1310  0     0    
2019/11/14  13:42:00  BASE  1.52292  35   2.0286   31   -5.8  92    -6.9  423   0     986.8    NA       0.0000   9999     1310  0     0    
2019/11/14  13:43:00  BASE  1.53468  23   2.0286   31   -5.8  92    -6.9  455   0     986.8    NA       0.0000   9999     1280  0     0    
2019/11/14  13:44:00  BASE  1.44648  23   2.0286   31   -5.9  92    -7.0  516   0     986.8    NA       0.0000   9999     1350  0     0    
2019/11/14  13:45:00  BASE  1.17012  27   2.0286   31   -5.9  92    -7.0  564   0     986.8    NA       0.0000   9999     1410  0     0    
2019/11/14  13:46:00  BASE  1.11132  17   2.0286   31   -6.0  92    -7.1  589   0     986.8    NA       0.0000   9999     1440  0     0    
2019/11/14  13:47:00  BASE  1.07016  14   2.0286   31   -6.0  92    -7.2  610   0     986.8    NA       0.0000   9999     1440  0     0    
2019/11/14  13:48:00  BASE  1.04076  32   2.0286   31   -6.0  92    -7.1  620   0     986.8    NA       0.0000   9999     1440  0     0    
2019/11/14  13:49:00  BASE  1.176    42   2.0286   31   -5.9  92    -7.1  633   0     986.8    NA       0.0000   9999     1440  0     0    
2019/11/14  13:50:00  BASE  1.19364  36   1.87572  20   -5.9  92    -7.0  653   0     986.7    NA       0.0000   9999     1380  2030  0    
2019/11/14  13:51:00  BASE  1.12308  30   1.87572  20   -5.8  92    -7.0  694   0     986.7    NA       0.0000   9999     1540  0     0    
2019/11/14  13:52:00  BASE  0.88788  35   1.87572  20   -5.8  91    -7.0  695   0     986.7    NA       0.0000   9999     1510  0     0    
2019/11/14  13:53:00  BASE  0.59388  43   1.48176  37   -5.8  91    -7.0  696   0     986.7    NA       0.0000   9999     1540  0     0    
2019/11/14  13:54:00  BASE  0.34104  60   1.48176  37   -5.8  91    -7.1  661   0     986.3    NA       0.0000   9999     1510  0     0    
2019/11/14  13:55:00  BASE  0.37044  78   1.48176  37   -5.9  91    -7.1  662   0     986.7    NA       0.0000   9999     1540  0     0    
2019/11/14  13:56:00  BASE  0.68208  80   1.48176  37   -5.8  91    -7.1  688   0     986.7    NA       0.0000   9999     2000  0     0    
2019/11/14  13:57:00  BASE  0.87024  83   1.48176  37   -5.8  91    -7.0  684   0     986.7    NA       0.0000   9999     1940  0     0    
2019/11/14  13:58:00  BASE  0.89376  84   1.48176  37   -5.7  91    -7.0  662   0     986.7    NA       0.0000   9999     1800  0     0    
2019/11/14  13:59:00  BASE  0.41748  88   1.29948  32   -5.7  91    -7.0  646   0     986.6    NA       0.0000   9999     1940  0     0    
2019/11/14  14:00:00  BASE  0.31752  102  1.24068  33   -5.7  90    -7.0  673   0     986.6    NA       0.0000   9999     1900  0     0    
2019/11/14  14:01:00  BASE  0.78792  106  1.21128  79   -5.6  90    -7.0  716   0     986.6    NA       0.0000   9999     1870  0     0    
2019/11/14  14:02:00  BASE  0.49392  114  1.21128  79   -5.6  90    -7.0  881   0     986.6    NA       0.0000   9999     1770  0     0    
2019/11/14  14:03:00  BASE  0.32928  128  1.21128  79   -5.6  90    -7.0  719   0     986.6    NA       0.0000   9999     1710  22840 0    
2019/11/14  14:04:00  BASE  0.68208  129  1.21128  79   -5.6  90    -7.0  573   0     986.6    NA       0.0000   9999     1640  0     0    
2019/11/14  14:05:00  BASE  0.72324  128  1.21128  79   -5.5  89    -7.0  482   0     986.5    NA       0.0000   9999     1440  5580  7350 
2019/11/14  14:06:00  BASE  0.8232   126  1.21128  79   -5.5  89    -7.0  483   0     986.5    NA       0.0000   9999     5280  7480  8070 
2019/11/14  14:07:00  BASE  0.90552  129  1.21128  79   -5.6  89    -7.1  590   0     986.4    NA       0.0000   9999     1870  5180  7090 
2019/11/14  14:08:00  BASE  0.89964  140  1.1466   147  -5.6  89    -7.2  623   0     986.4    NA       0.0000   9999     1900  5580  6990 
2019/11/14  14:09:00  BASE  1.01136  142  1.54056  115  -5.6  89    -7.2  466   0     986.4    NA       0.0000   9999     1800  0     0    
2019/11/14  14:10:00  BASE  1.33476  124  1.87572  107  -5.6  88    -7.2  726   0     986.4    NA       0.0000   9999     1800  0     0    
2019/11/14  14:11:00  BASE  1.4112   109  1.87572  107  -5.6  88    -7.2  626   0     986.4    NA       0.0000   9999     1710  0     0    
2019/11/14  14:12:00  BASE  1.31712  104  1.87572  107  -5.6  88    -7.2  685   0     986.4    NA       0.0000   9999     1740  0     0    
2019/11/14  14:13:00  BASE  1.24068  105  1.87572  107  -5.6  88    -7.2  532   0     986.4    NA       0.0000   9999     1710  5250  7090 
2019/11/14  14:14:00  BASE  0.97608  108  1.87572  107  -5.6  88    -7.2  570   0     986.4    NA       0.0000   9999     2130  5280  7020 
2019/11/14  14:15:00  BASE  0.69384  105  1.87572  107  -5.6  88    -7.3  687   0     986.4    NA       0.0000   9999     2430  5150  7090 
2019/11/14  14:16:00  BASE  0.61152  115  1.87572  107  -5.6  88    -7.2  699   0     986.4    NA       0.0000   9999     5250  6960  0    
2019/11/14  14:17:00  BASE  0.55272  137  1.87572  107  -5.5  88    -7.2  710   0     986.4    NA       0.0000   9999     5180  7350  0    
2019/11/14  14:18:00  BASE  0.588    157  1.87572  107  -5.5  88    -7.1  708   0     986.4    NA       0.0000   9999     5150  6990  7810 
2019/11/14  14:19:00  BASE  0.92316  164  1.87572  107  -5.5  89    -7.0  697   0     986.4    NA       0.0000   9999     5150  6990  7910 
2019/11/14  14:20:00  BASE  0.66444  152  1.66404  106  -5.4  89    -7.0  690   0     986.4    NA       0.0000   9999     5220  7280  0    
2019/11/14  14:21:00  BASE  0.37632  162  1.66404  106  -5.4  89    -7.0  708   0     986.2    NA       0.0000   9999     5120  7020  8140 
2019/11/14  14:22:00  BASE  0.24108  175  1.42296  110  -5.5  89    -7.0  650   0     986.4    NA       0.0000   9999     5020  6990  7680 
2019/11/14  14:23:00  BASE  0.5586   151  1.48176  136  -5.5  89    -7.0  693   0     986.4    NA       0.0000   9999     5180  7020  7710 
2019/11/14  14:24:00  BASE  0.89376  141  1.48176  136  -5.5  89    -7.0  644   0     986.4    NA       0.0000   9999     5150  6960  7780 
2019/11/14  14:25:00  BASE  1.02312  140  1.63464  141  -5.5  89    -7.0  631   0     986.4    NA       0.0000   9999     2230  5220  6990 
2019/11/14  14:26:00  BASE  0.89376  135  1.63464  141  -5.5  89    -7.0  578   0     986.4    NA       0.0000   9999     5250  6990  7710 
2019/11/14  14:27:00  BASE  0.2352   135  1.63464  141  -5.4  89    -7.0  555   0     986.4    NA       0.0000   9999     5150  6990  7680 
2019/11/14  14:28:00  BASE  0.14112  139  1.63464  141  -5.3  88    -6.9  626   0     986.4    NA       0.0000   9999     5090  6960  7640 
2019/11/14  14:29:00  BASE  0.24108  146  1.63464  141  -5.3  88    -7.0  584   0     986.4    NA       0.0000   9999     5050  6920  7610 
2019/11/14  14:30:00  BASE  0.8232   143  1.63464  139  -5.3  88    -7.0  636   0     986.5    NA       0.0000   9999     4890  6820  7640 
2019/11/14  14:31:00  BASE  1.41708  141  1.69344  153  -5.2  87    -7.0  583   0     986.5    NA       0.0000   9999     4820  6920  0    
2019/11/14  14:32:00  BASE  1.47588  144  1.75224  145  -5.2  87    -7.0  624   0     986.5    NA       0.0000   9999     4660  7050  0    
2019/11/14  14:33:00  BASE  1.57584  144  1.84632  137  -5.3  87    -7.1  652   0     986.4    NA       0.0000   9999     4690  5410  6990 
2019/11/14  14:34:00  BASE  1.51704  141  1.84632  137  -5.3  87    -7.2  636   0     986.4    NA       0.0000   9999     4790  5410  6890 
2019/11/14  14:35:00  BASE  1.47588  135  1.84632  137  -5.3  86    -7.2  634   0     986.4    NA       0.0000   9999     4950  6920  0    
2019/11/14  14:36:00  BASE  1.45824  131  1.84632  137  -5.3  86    -7.2  651   0     986.5    NA       0.0000   9999     4950  6920  7780 
2019/11/14  14:37:00  BASE  1.31712  131  1.84632  137  -5.3  86    -7.3  638   0     986.4    NA       0.0000   9999     4950  6530  7710 
2019/11/14  14:38:00  BASE  1.1466   133  1.84632  137  -5.3  86    -7.3  611   0     986.4    NA       0.0000   9999     4950  6660  7580 
2019/11/14  14:39:00  BASE  0.86436  124  1.84632  137  -5.3  86    -7.2  607   0     986.4    NA       0.0000   9999     4820  6760  7550 
2019/11/14  14:40:00  BASE  0.95256  71   1.84632  137  -5.2  86    -7.1  629   0     986.4    NA       0.0000   9999     4660  5450  6400 
2019/11/14  14:41:00  BASE  1.07016  29   1.84632  137  -5.2  86    -7.1  619   0     986.4    NA       0.0000   9999     4720  5380  6660 
2019/11/14  14:42:00  BASE  0.81144  28   1.84632  137  -5.2  86    -7.1  625   0     986.4    NA       0.0000   9999     4760  6530  7610 
2019/11/14  14:43:00  BASE  0.53508  48   1.75224  134  -5.2  87    -7.1  639   0     986.3    NA       0.0000   9999     4790  6660  7580 
2019/11/14  14:44:00  BASE  0.86436  68   1.90512  92   -5.1  87    -6.9  634   0     986.3    NA       0.0000   9999     4690  6530  7580 
2019/11/14  14:45:00  BASE  1.12308  78   1.90512  92   -5.1  87    -6.9  593   0     986.3    NA       0.0000   9999     4820  6530  7450 
2019/11/14  14:46:00  BASE  0.51744  89   1.90512  92   -5.0  87    -6.9  597   0     986.4    NA       0.0000   9999     4860  6400  7120 
2019/11/14  14:47:00  BASE  0.06468  107  1.90512  92   -5.0  87    -6.9  563   0     986.4    NA       0.0000   9999     4720  6430  7090 
2019/11/14  14:48:00  BASE  0.18816  118  1.90512  92   -5.0  86    -6.9  554   0     986.4    NA       0.0000   9999     4490  6430  7510 
2019/11/14  14:49:00  BASE  0.7056   110  1.90512  92   -5.0  86    -7.0  548   0     986.4    NA       0.0000   9999     4360  6370  7740 
2019/11/14  14:50:00  BASE  1.09368  105  1.90512  92   -5.0  85    -7.1  550   0     986.4    NA       0.0000   9999     4230  6330  7710 
2019/11/14  14:51:00  BASE  1.19364  111  1.90512  92   -5.0  85    -7.1  554   0     986.4    NA       0.0000   9999     3970  5020  6270 
2019/11/14  14:52:00  BASE  0.95844  110  1.90512  92   -5.0  85    -7.1  593   0     986.4    NA       0.0000   9999     4170  6270  7640 
2019/11/14  14:53:00  BASE  0.74676  118  1.90512  92   -5.0  85    -7.2  625   0     986.3    NA       0.0000   9999     3940  6230  7680 
2019/11/14  14:54:00  BASE  0.80556  126  1.35828  102  -5.0  84    -7.2  675   0     986.2    NA       0.0000   9999     3900  6270  7450 
2019/11/14  14:55:00  BASE  0.81732  119  1.35828  102  -5.0  84    -7.3  688   0     986.4    NA       0.0000   9999     3770  5640  6790 
2019/11/14  14:56:00  BASE  0.96432  113  1.42296  105  -5.0  84    -7.3  683   0     986.4    NA       0.0000   9999     3670  6170  7480 
2019/11/14  14:57:00  BASE  1.21716  107  1.51116  102  -4.9  83    -7.3  646   0     986.4    NA       0.0000   9999     3870  5610  6760 
2019/11/14  14:58:00  BASE  1.22892  111  1.51116  102  -4.9  83    -7.3  644   0     986.4    NA       0.0000   9999     3710  5640  24440
2019/11/14  14:59:00  BASE  1.07016  110  1.51116  102  -4.9  83    -7.3  623   0     986.4    NA       0.0000   9999     3770  5510  6070 
2019/11/14  15:00:00  BASE  0.74676  106  1.51116  102  -4.8  83    -7.3  625   0     986.5    NA       0.0000   9999     3900  5450  6100 
2019/11/14  15:01:00  BASE  0.6762   107  1.51116  102  -4.8  83    -7.3  605   0     986.4    NA       0.0000   9999     3870  5350  6100 
2019/11/14  15:02:00  BASE  0.74088  104  1.51116  102  -4.8  83    -7.3  609   0     986.4    NA       0.0000   9999     3940  5280  6230 
2019/11/14  15:03:00  BASE  0.29988  81   1.51116  102  -4.9  83    -7.3  598   0     986.4    NA       0.0000   9999     3740  5220  6270 
2019/11/14  15:04:00  BASE  0        89   1.51116  102  -4.8  83    -7.3  642   0     986.4    NA       0.0000   9999     3770  5150  0    
2019/11/14  15:05:00  BASE  0        125  1.51116  102  -4.6  83    -7.1  642   0     986.4    NA       0.0000   9999     3640  5150  0    
2019/11/14  15:06:00  BASE  0        116  1.51116  102  -4.6  83    -7.1  622   0     986.4    NA       0.0000   9999     3710  0     0    
2019/11/14  15:07:00  BASE  0        108  1.29948  109  -4.5  82    -7.1  617   0     986.4    NA       0.0000   9999     3540  4590  0    
2019/11/14  15:08:00  BASE  0        64   1.29948  109  -4.4  82    -7.0  610   0     986.4    NA       0.0000   9999     3450  4530  0    
2019/11/14  15:09:00  BASE  0.4704   350  1.21128  313  -4.3  82    -7.0  598   0     985.5    NA       0.0000   9999     3480  4430  0    
2019/11/14  15:10:00  BASE  1.02312  344  1.24068  346  -4.4  81    -7.1  601   0     986.2    NA       0.0000   9999     3450  4270  0    
2019/11/14  15:11:00  BASE  0.9408   349  1.24068  346  -4.4  81    -7.1  611   0     986.4    NA       0.0000   9999     3380  5640  0    
2019/11/14  15:12:00  BASE  0.4704   327  1.24068  346  -4.4  81    -7.1  621   0     986.4    NA       0.0000   9999     3310  0     0    
2019/11/14  15:13:00  BASE  0.08232  314  1.24068  346  -4.4  81    -7.1  700   0     986.4    NA       0.0000   9999     3540  19550 21850
2019/11/14  15:14:00  BASE  0        316  1.24068  346  -4.4  82    -7.0  743   0     983.3    NA       0.0000   9999     3670  0     0    
2019/11/14  15:15:00  BASE  0        313  1.24068  346  -4.4  82    -7.0  785   0     985.0    NA       0.0000   9999     3770  5840  7580 
2019/11/14  15:16:00  BASE  0        296  1.24068  346  -4.3  82    -6.9  756   0     986.3    NA       0.0000   9999     3770  5840  0    
2019/11/14  15:17:00  BASE  0        273  1.24068  346  -4.2  82    -6.8  765   0     986.3    NA       0.0000   9999     3810  0     0    
2019/11/14  15:18:00  BASE  0.07056  278  1.24068  346  -4.1  82    -6.7  716   0     986.3    NA       0.0000   9999     3770  0     0    
2019/11/14  15:19:00  BASE  0.07056  295  1.24068  346  -4.1  82    -6.7  678   0     986.3    NA       0.0000   9999     5150  0     0    
2019/11/14  15:20:00  BASE  0        286  1.0584   338  -4.1  82    -6.7  725   0     986.3    NA       0.0000   9999     5220  23750 0    
2019/11/14  15:21:00  BASE  0        264  0.81732  276  -4.1  82    -6.8  733   0     986.3    NA       0.0000   9999     5050  0     0    
2019/11/14  15:22:00  BASE  0        238  0.81732  276  -4.2  82    -6.9  738   0     986.3    NA       0.0000   9999     5020  6300  8200 
2019/11/14  15:23:00  BASE  0        214  0.81732  276  -4.3  82    -7.0  738   0     986.2    NA       0.0000   9999     4530  5810  8300 
2019/11/14  15:24:00  BASE  0        201  0.81732  276  -4.4  81    -7.1  759   0     986.2    NA       0.0000   9999     4200  5840  0    
2019/11/14  15:25:00  BASE  0.36456  187  1.029    186  -4.5  81    -7.2  761   0     986.2    NA       0.0000   9999     4040  6140  0    
2019/11/14  15:26:00  BASE  0.8526   181  1.029    172  -4.4  82    -7.1  759   0     986.2    NA       0.0000   9999     4040  6070  0    
2019/11/14  15:27:00  BASE  1.7346   178  4.41588  180  -4.5  82    -7.1  758   0     984.7    NA       0.0000   9999     3940  6170  0    
2019/11/14  15:28:00  BASE  3.44568  179  4.41588  179  -4.5  82    -7.2  755   0     985.6    NA       0.0000   9999     3870  7150  0    
2019/11/14  16:11:00  BASE  0        151  38.9315  222  -4.0  82    -6.7  557   0     M        NA       0.0000   9999     3220  4560  5250 
2019/11/14  16:12:00  BASE  0.04116  163  38.9315  222  -4.1  82    -6.7  536   0     M        NA       0.0000   9999     3150  4490  5250 
2019/11/14  16:13:00  BASE  0.441    194  4.41588  203  -4.1  82    -6.7  483   0     M        NA       0.0000   9999     3310  4490  5710 
2019/11/14  16:14:00  BASE  1.10544  196  4.41588  203  -4.1  82    -6.7  469   0     M        NA       0.0000   9999     3310  4400  5610 
2019/11/14  16:15:00  BASE  1.31712  188  4.41588  203  -4.2  82    -6.8  465   0     M        NA       0.0000   9999     3310  5280  0    
2019/11/14  16:16:00  BASE  0.97608  161  4.41588  203  -4.2  83    -6.7  478   0     M        NA       0.0000   9999     4200  5280  0    
2019/11/14  16:17:00  BASE  1.15836  157  1.90512  171  -4.2  83    -6.6  503   0     M        NA       0.0000   9999     4130  0     0    
2019/11/14  16:18:00  BASE  1.47     167  1.90512  171  -4.2  84    -6.6  537   0     M        NA       0.0000   3500     4070  0     0    
2019/11/14  16:19:00  BASE  1.38768  177  1.90512  171  -4.3  84    -6.6  548   0     M        NA       0.0000   HZ       0800  8530  0    
2019/11/14  16:20:00  BASE  1.37592  180  1.90512  171  -4.2  84    -6.5  558   0     M        NA       0.0000   HZ       9999  7780  0    
2019/11/14  16:21:00  BASE  1.45236  180  2.0286   170  -4.3  84    -6.5  576   0     M        NA       0.0000   HZ       9999  7780  0    
2019/11/14  16:22:00  BASE  1.45824  168  2.0286   170  -4.3  84    -6.6  586   0     M        NA       0.0000   HZ       9999  4460  0    
2019/11/14  16:23:00  BASE  1.41708  158  2.0286   170  -4.2  84    -6.5  607   0     M        NA       0.0000   HZ       9999  4490  0    
2019/11/14  16:24:00  BASE  1.4406   165  2.0286   170  -4.2  84    -6.5  623   0     M        NA       0.0000   HZ       9999  0     0    
2019/11/14  16:25:00  BASE  1.37004  174  2.0286   170  -4.2  84    -6.5  636   0     M        NA       0.0000   HZ       9999  4400  22210
2019/11/14  16:26:00  BASE  1.37004  174  2.0286   170  -4.1  84    -6.4  656   0     M        NA       0.0000   HZ       9999  0     0    
2019/11/14  16:27:00  BASE  1.34652  172  2.0286   170  -4.1  84    -6.4  673   0     M        NA       0.0000   HZ       9999  3770  0    
2019/11/14  16:28:00  BASE  1.31124  161  2.0286   170  -4.1  84    -6.4  684   0     M        NA       0.0000   HZ       9999  0     0    
2019/11/14  16:29:00  BASE  1.36416  151  2.0286   170  -4.1  84    -6.4  689   0     M        NA       0.0000   9999     4200  0     0    
2019/11/14  16:30:00  BASE  1.38768  156  2.0286   170  -4.0  84    -6.4  696   0     M        NA       0.0000   9999     4430  0     0    
2019/11/14  16:31:00  BASE  1.21128  158  1.69344  163  -4.0  84    -6.3  695   0     M        NA       0.0000   9999     4490  0     0    
2019/11/14  16:32:00  BASE  1.18776  147  1.69344  163  -4.0  84    -6.3  702   0     M        NA       0.0000   9999     4460  0     0    
2019/11/14  16:33:00  BASE  1.22304  140  1.57584  141  -4.0  84    -6.3  649   0     M        NA       0.0000   9999     4460  0     0    
2019/11/14  16:34:00  BASE  1.2348   145  1.57584  141  -4.0  84    -6.3  647   0     M        NA       0.0000   9999     0     0     0    
2019/11/14  16:35:00  BASE  1.32888  152  1.57584  141  -4.0  84    -6.3  652   0     M        NA       0.0000   9999     0     0     0    
2019/11/14  16:36:00  BASE  1.39356  157  1.63464  170  -4.0  84    -6.3  650   0     M        NA       0.0000   9999     0     0     0    
2019/11/14  16:37:00  BASE  1.28772  161  1.63464  170  -4.0  84    -6.3  676   0     M        NA       0.0000   9999     0     0     0    
2019/11/14  16:38:00  BASE  1.18188  162  1.63464  170  -3.9  84    -6.2  686   0     M        NA       0.0000   9999     0     0     0    
2019/11/14  16:39:00  BASE  1.176    160  1.63464  170  -3.9  84    -6.2  668   0     M        NA       0.0000   9999     0     0     0    
2019/11/14  16:40:00  BASE  1.2348   158  1.63464  170  -3.8  84    -6.2  665   0     M        NA       0.0000   9999     0     0     0    
2019/11/14  16:41:00  BASE  1.38768  149  1.63464  170  -3.8  84    -6.2  631   0     M        NA       0.0000   9999     0     0     0    
2019/11/14  16:42:00  BASE  1.4406   144  1.63464  139  -3.8  84    -6.1  637   0     M        NA       0.0000   9999     3020  0     0    
2019/11/14  16:43:00  BASE  1.40532  143  1.63464  139  -3.8  84    -6.1  647   0     M        NA       0.0000   -SN      9999  0     0    
2019/11/14  16:44:00  BASE  1.28772  142  1.63464  139  -3.8  84    -6.1  678   0     M        NA       0.0000   -SN      9999  0     0    
2019/11/14  16:45:00  BASE  1.28184  142  1.63464  143  -3.8  84    -6.1  720   0     M        NA       0.0000   -SN      9999  0     0    
2019/11/14  16:46:00  BASE  1.2642   147  1.63464  143  -3.8  84    -6.1  752   0     M        NA       0.0000   -SN      9999  0     0    
2019/11/14  16:47:00  BASE  1.11132  150  1.63464  143  -3.7  84    -6.0  765   0     M        NA       0.0000   -SN      9999  0     0    
2019/11/14  16:48:00  BASE  1.176    153  1.63464  143  -3.7  85    -5.9  669   0     M        NA       0.0000   -SN      9999  0     0    
2019/11/14  16:49:00  BASE  1.27596  155  1.63464  143  -3.7  85    -5.9  573   0     M        NA       0.0000   -SN      9999  0     0    
2019/11/14  16:50:00  BASE  1.19952  158  1.63464  143  -3.6  85    -5.8  561   0     M        NA       0.0000   -SN      9999  0     0    
2019/11/14  16:51:00  BASE  1.16424  158  1.63464  143  -3.6  85    -5.8  565   0     M        NA       0.0000   -SN      9999  0     0    
2019/11/14  16:52:00  BASE  1.2054   155  1.63464  143  -3.7  85    -5.9  545   0     M        NA       0.0000   -SN      9999  21100 0    
2019/11/14  16:53:00  BASE  1.24068  150  1.63464  143  -3.8  85    -5.9  505   0     M        NA       0.0000   -SN      9999  0     0    
2019/11/14  16:54:00  BASE  1.18776  146  1.63464  143  -3.8  85    -6.0  494   0     M        NA       0.0000   -SN      9999  0     0    
2019/11/14  16:55:00  BASE  1.25832  148  1.54056  150  -3.9  85    -6.0  489   0     M        NA       0.0000   -SN      9999  0     0    
2019/11/14  16:56:00  BASE  1.3818   147  1.54056  143  -3.9  85    -6.0  510   0     M        NA       0.0000   -SN      9999  0     0    
2019/11/14  16:57:00  BASE  1.42296  144  1.54056  143  -3.9  85    -6.0  515   0     M        NA       0.0000   -SN      9999  0     0    
2019/11/14  16:58:00  BASE  1.37004  145  1.54056  143  -4.0  86    -6.0  505   0     M        NA       0.0000   -SN      9999  0     0    
2019/11/14  16:59:00  BASE  1.34064  146  1.54056  143  -4.0  86    -6.0  499   0     M        NA       0.0000   -SN      9999  0     0    
2019/11/14  17:00:00  BASE  1.31124  151  1.54056  143  -4.0  86    -6.0  502   0     M        NA       0.0000   -SN      9999  0     0    
2019/11/14  17:01:00  BASE  1.08192  156  1.54056  143  -4.0  86    -6.0  496   0     M        NA       0.0000   -SN      9999  0     0    
2019/11/14  17:02:00  BASE  0.90552  155  1.54056  143  -4.0  86    -6.0  482   0     M        NA       0.0000   -SN      9999  0     0    
2019/11/14  17:03:00  BASE  0.9702   160  1.54056  143  -4.0  86    -6.0  479   0     M        NA       0.0000   -SN      9999  0     0    
2019/11/14  17:04:00  BASE  0.8232   163  1.54056  143  -4.0  87    -5.9  488   0     M        NA       0.0000   -SN      9999  0     0    
2019/11/14  17:05:00  BASE  0.78204  171  1.54056  143  -3.9  87    -5.8  494   0     M        NA       0.0000   -SN      9999  0     0    
2019/11/14  17:06:00  BASE  0.95256  183  1.54056  143  -3.9  87    -5.8  491   0     M        NA       0.0000   -SN      9999  0     0    
2019/11/14  17:07:00  BASE  0.9996   182  1.48176  145  -3.9  87    -5.8  485   0     M        NA       0.0000   -SN      9999  0     0    
2019/11/14  17:08:00  BASE  1.029    178  1.48176  145  -4.0  87    -5.8  473   0     M        NA       0.0000   -SN      9999  0     0    
2019/11/14  17:09:00  BASE  0.72324  168  1.42296  159  -4.0  88    -5.8  454   0     M        NA       0.0000   -SN      9999  0     0    
2019/11/14  17:10:00  BASE  0.42924  164  1.27008  173  -4.1  88    -5.8  442   0     M        NA       0.0000   -SN      9999  7970  23130
2019/11/14  17:11:00  BASE  0.59976  176  1.27008  173  -4.1  88    -5.7  437   0     M        NA       0.0000   -SN      9999  0     0    
2019/11/14  17:12:00  BASE  0.79968  183  1.27008  173  -4.1  89    -5.7  433   0     M        NA       0.0000   -SN      9999  0     0    
2019/11/14  17:13:00  BASE  0.85848  178  1.24068  187  -4.2  89    -5.7  433   0     M        NA       0.0000   -SN      9999  7870  0    
2019/11/14  17:14:00  BASE  1.09956  165  1.45236  162  -4.2  89    -5.7  435   0     M        NA       0.0000   -SN      9999  7710  0    
2019/11/14  17:15:00  BASE  1.37004  152  1.60524  150  -4.1  89    -5.6  432   0     M        NA       0.0000   -SN      9999  7610  0    
2019/11/14  17:16:00  BASE  1.49352  151  1.84632  157  -4.1  90    -5.6  424   0     M        NA       0.0000   -SN      9999  7610  0    
2019/11/14  17:17:00  BASE  1.69932  155  2.0286   152  -4.1  90    -5.5  417   0     M        NA       0.0000   9999     7610  0     0    
2019/11/14  17:18:00  BASE  1.74636  156  2.0286   152  -4.0  90    -5.4  418   0     M        NA       0.0000   9999     7480  17590 0    
2019/11/14  17:19:00  BASE  1.66992  156  2.0286   152  -4.0  90    -5.4  420   0     M        NA       0.0000   9999     7480  0     0    
2019/11/14  17:20:00  BASE  1.764    155  2.0286   155  -4.0  90    -5.4  421   0     M        NA       0.0000   9999     7450  0     0    
2019/11/14  17:21:00  BASE  1.66992  155  2.0286   155  -4.0  90    -5.4  422   0     M        NA       0.0000   -SN      9999  7420  0    
2019/11/14  17:22:00  BASE  1.59348  148  2.0286   155  -4.0  90    -5.4  423   0     M        NA       0.0000   -SN      9999  7420  0    
2019/11/14  17:23:00  BASE  1.68756  148  2.0286   155  -4.1  90    -5.5  423   0     M        NA       0.0000   -SN      9999  7380  0    
2019/11/14  17:24:00  BASE  1.59936  155  2.0286   155  -4.1  90    -5.5  421   0     M        NA       0.0000   -SN      9999  7420  0    
2019/11/14  17:25:00  BASE  1.54056  155  2.0286   155  -4.1  90    -5.5  417   0     M        NA       0.0000   -SN      9999  7420  0    
2019/11/14  17:26:00  BASE  1.617    155  2.0286   155  -4.1  90    -5.5  414   0     M        NA       0.0000   -SN      9999  7450  0    
2019/11/14  17:27:00  BASE  1.84044  153  2.24028  149  -4.1  90    -5.5  412   0     M        NA       0.0000   -SN      9999  7450  0    
2019/11/14  17:28:00  BASE  2.07564  150  2.29908  136  -4.0  90    -5.4  415   0     M        NA       0.0000   -SN      9999  7350  0    
2019/11/14  17:29:00  BASE  2.18736  145  2.42256  141  -4.1  90    -5.5  419   0     M        NA       0.0000   -SN      9999  7120  0    
2019/11/14  17:30:00  BASE  2.21088  144  2.42256  141  -4.1  90    -5.5  425   0     M        NA       0.0000   -SN      9999  7250  0    
2019/11/14  17:31:00  BASE  2.22264  149  2.48136  147  -4.2  90    -5.5  430   0     M        NA       0.0000   -SN      9999  7150  0    
2019/11/14  17:32:00  BASE  2.33436  148  2.54016  142  -4.2  90    -5.6  431   0     M        NA       0.0000   -SN      9999  5280  7150 
2019/11/14  17:33:00  BASE  2.26968  147  2.54016  142  -4.2  90    -5.6  425   0     M        NA       0.0000   -SN      9999  7220  0    
2019/11/14  17:34:00  BASE  2.14032  150  2.54016  142  -4.2  90    -5.6  417   0     M        NA       0.0000   -SN      9999  7220  0    
2019/11/14  17:35:00  BASE  2.14032  145  2.54016  142  -4.2  90    -5.6  413   0     985.7    NA       0.0000   -SN      9999  7150  0    
2019/11/14  17:36:00  BASE  2.1168   142  2.54016  142  -4.2  91    -5.5  410   0     985.8    NA       0.0000   -SN      9999  7190  0    
2019/11/14  17:37:00  BASE  2.15208  145  2.54016  142  -4.2  91    -5.5  410   0     985.8    NA       0.0000   -SN      9999  7150  0    
2019/11/14  17:38:00  BASE  2.21088  147  2.54016  142  -4.2  91    -5.5  412   0     985.8    NA       0.0000   -SN      9999  7190  0    
2019/11/14  17:39:00  BASE  2.04624  149  2.54016  142  -4.2  91    -5.5  417   0     985.8    NA       0.0000   -SN      9999  7090  0    
2019/11/14  17:40:00  BASE  1.94628  151  2.54016  142  -4.2  91    -5.5  419   0     985.8    NA       0.0000   -SN      9999  7050  0    
2019/11/14  17:41:00  BASE  1.80516  153  2.54016  142  -4.2  91    -5.4  418   0     985.8    NA       0.0000   -SN      9999  7020  0    
2019/11/14  17:42:00  BASE  1.62288  152  2.42256  146  -4.2  91    -5.4  416   0     985.8    NA       0.0000   -SN      9999  7050  0    
2019/11/14  17:43:00  BASE  1.6464   152  2.42256  146  -4.1  91    -5.4  413   0     985.8    NA       0.0000   -SN      9999  6990  0    
2019/11/14  17:44:00  BASE  1.62288  155  2.42256  146  -4.1  91    -5.4  409   0     985.8    NA       0.0000   -SN      9999  6990  0    
2019/11/14  17:45:00  BASE  1.5582   146  2.42256  146  -4.1  91    -5.3  407   0     985.6    NA       0.0000   9999     6960  0     0    
2019/11/14  17:46:00  BASE  1.5288   134  2.42256  146  -4.1  91    -5.2  403   0     985.9    NA       0.0000   -SN      9999  6990  0    
2019/11/14  17:47:00  BASE  1.37004  127  2.42256  146  -4.1  92    -5.2  397   0     985.9    NA       0.0000   -SN      9999  6960  0    
2019/11/14  17:48:00  BASE  1.21716  122  2.1168   143  -4.1  92    -5.2  396   0     985.9    NA       0.0000   -SN      9999  6890  21980
2019/11/14  17:49:00  BASE  1.12308  119  2.1168   143  -4.1  92    -5.2  397   0     985.9    NA       0.0000   9999     6860  0     0    
2019/11/14  17:50:00  BASE  0.882    117  1.93452  157  -4.1  92    -5.2  400   0     986.0    NA       0.0000   9999     6660  0     0    
2019/11/14  17:51:00  BASE  0.42336  109  1.93452  157  -4.2  92    -5.3  403   0     986.0    NA       0.0000   9999     6860  0     0    
2019/11/14  17:52:00  BASE  0.12936  96   1.93452  157  -4.2  92    -5.3  407   0     986.0    NA       0.0000   9999     6760  0     0    
2019/11/14  17:53:00  BASE  0.30576  101  1.69344  146  -4.2  92    -5.3  410   0     986.0    NA       0.0000   9999     6890  0     0    
2019/11/14  17:54:00  BASE  0.62328  114  1.69344  146  -4.2  92    -5.3  413   0     986.0    NA       0.0000   9999     6860  0     0    
2019/11/14  17:55:00  BASE  0.51156  113  1.63464  126  -4.2  92    -5.3  414   0     986.0    NA       0.0000   9999     5840  6760  0    
2019/11/14  17:56:00  BASE  0.59388  116  1.39356  128  -4.2  92    -5.3  417   0     985.9    NA       0.0000   9999     5810  6660  0    
2019/11/14  17:57:00  BASE  0.94668  123  1.29948  122  -4.2  92    -5.3  417   0     985.9    NA       0.0000   9999     6660  0     0    
2019/11/14  17:58:00  BASE  0.95256  122  1.21128  120  -4.2  92    -5.3  418   0     985.8    NA       0.0000   9999     5680  6560  0    
2019/11/14  17:59:00  BASE  0.90552  117  1.1172   122  -4.2  92    -5.3  418   0     985.8    NA       0.0000   9999     6560  0     0    
2019/11/14  18:00:00  BASE  0.8526   110  1.1172   102  -4.2  92    -5.2  418   0     985.7    NA       0.0000   9999     6530  0     0    
2019/11/14  18:01:00  BASE  0.57036  104  1.1172   102  -4.2  93    -5.2  417   0     985.7    NA       0.0000   9999     5710  6500  0    
2019/11/14  18:02:00  BASE  0.16464  109  1.1172   102  -4.2  93    -5.2  416   0     985.7    NA       0.0000   9999     5610  6430  0    
2019/11/14  18:03:00  BASE  0.34104  124  1.1172   102  -4.1  93    -5.1  416   0     985.7    NA       0.0000   9999     5540  6330  0    
2019/11/14  18:04:00  BASE  0.51156  139  1.1172   102  -4.1  93    -5.1  418   0     985.7    NA       0.0000   9999     5540  0     0    
2019/11/14  18:05:00  BASE  0.65268  136  1.18188  116  -4.1  93    -5.0  420   0     985.7    NA       0.0000   9999     5540  0     0    
2019/11/14  18:06:00  BASE  1.09368  113  1.54056  102  -4.0  93    -4.9  422   0     985.7    NA       0.0000   9999     5480  0     0    
2019/11/14  18:07:00  BASE  0.9702   107  1.54056  102  -4.0  93    -4.9  425   0     985.7    NA       0.0000   9999     5450  0     0    
2019/11/14  18:08:00  BASE  0.68208  126  1.54056  102  -4.0  93    -4.9  431   0     985.7    NA       0.0000   9999     5410  0     0    
2019/11/14  18:09:00  BASE  0.86436  131  1.54056  102  -3.9  93    -4.9  437   0     985.7    NA       0.0000   9999     5380  0     0    
2019/11/14  18:10:00  BASE  1.08192  119  1.54056  102  -3.9  93    -4.9  444   0     985.7    NA       0.0000   9999     5350  0     0    
2019/11/14  18:11:00  BASE  1.32888  111  1.57584  102  -4.0  93    -4.9  452   0     985.7    NA       0.0000   9999     5280  20900 0    
2019/11/14  18:12:00  BASE  1.54056  105  1.87572  95   -4.0  93    -4.9  461   0     985.7    NA       0.0000   9999     5250  0     0    
2019/11/14  18:13:00  BASE  1.72284  103  2.0286   107  -4.0  93    -4.9  473   0     985.7    NA       0.0000   9999     5120  0     0    
2019/11/14  18:14:00  BASE  1.94628  104  2.21088  106  -4.0  93    -4.9  484   0     985.6    NA       0.0000   9999     5090  0     0    
2019/11/14  18:15:00  BASE  1.9992   105  2.24028  99   -4.0  93    -4.9  493   0     985.6    NA       0.0000   9999     5120  0     0    
2019/11/14  18:16:00  BASE  1.99332  102  2.24028  99   -4.0  93    -4.9  495   0     985.6    NA       0.0000   9999     4490  5120  0    
2019/11/14  18:17:00  BASE  2.06976  100  2.32848  99   -4.0  93    -4.9  493   0     985.7    NA       0.0000   9999     4460  5150  0    
2019/11/14  18:18:00  BASE  1.96392  98   2.32848  99   -4.0  93    -4.9  489   0     985.7    NA       0.0000   9999     4490  5220  0    
2019/11/14  18:19:00  BASE  1.79928  100  2.32848  99   -3.9  93    -4.9  483   0     985.7    NA       0.0000   9999     4530  5250  0    
2019/11/14  18:20:00  BASE  1.60524  109  2.32848  99   -3.9  93    -4.9  478   0     985.7    NA       0.0000   9999     4490  5150  0    
2019/11/14  18:21:00  BASE  1.49352  113  2.32848  99   -3.9  93    -4.8  473   0     985.6    NA       0.0000   9999     4460  5090  0    
2019/11/14  18:22:00  BASE  1.66404  114  2.32848  99   -3.9  94    -4.8  467   0     985.6    NA       0.0000   9999     4460  5020  0    
2019/11/14  18:23:00  BASE  1.5582   119  2.32848  99   -3.9  94    -4.7  464   0     985.6    NA       0.0000   9999     4460  4990  0    
2019/11/14  18:24:00  BASE  1.45824  115  2.32848  99   -3.9  94    -4.7  463   0     985.6    NA       0.0000   9999     4430  4860  0    
2019/11/14  18:25:00  BASE  1.48176  104  2.32848  99   -3.8  94    -4.7  461   0     985.6    NA       0.0000   9999     4430  4860  0    
2019/11/14  18:26:00  BASE  1.28184  96   2.32848  99   -3.8  94    -4.6  460   0     985.6    NA       0.0000   9999     4400  0     0    
2019/11/14  18:27:00  BASE  0.95844  95   2.1756   99   -3.8  94    -4.7  465   0     985.6    NA       0.0000   9999     4400  0     0    
2019/11/14  18:28:00  BASE  0.92904  100  2.0874   108  -3.8  94    -4.7  467   0     985.6    NA       0.0000   9999     4360  0     0    
2019/11/14  18:29:00  BASE  1.14072  95   2.0874   108  -3.8  93    -4.7  461   0     985.6    NA       0.0000   9999     4330  0     0    
2019/11/14  18:30:00  BASE  1.27596  89   2.0874   108  -3.7  93    -4.7  459   0     985.6    NA       0.0000   9999     4430  0     0    
2019/11/14  18:31:00  BASE  1.34652  88   2.0874   108  -3.7  93    -4.7  466   0     985.6    NA       0.0000   9999     4430  0     0    
2019/11/14  18:32:00  BASE  1.31712  95   1.90512  110  -3.7  92    -4.8  480   0     985.6    NA       0.0000   9999     4400  0     0    
2019/11/14  18:33:00  BASE  1.3524   102  1.90512  110  -3.6  92    -4.8  498   0     985.6    NA       0.0000   9999     4400  0     0    
2019/11/14  18:34:00  BASE  1.42884  100  2.0874   99   -3.6  91    -4.8  509   0     985.5    NA       0.0000   9999     4300  0     0    
2019/11/14  18:35:00  BASE  1.7934   100  2.32848  104  -3.6  91    -4.8  512   0     985.4    NA       0.0000   9999     4230  0     0    
2019/11/14  18:36:00  BASE  2.03448  107  2.32848  104  -3.6  91    -4.8  513   0     985.4    NA       0.0000   9999     4270  21230 0    
2019/11/14  18:37:00  BASE  1.69344  114  2.32848  104  -3.6  91    -4.8  506   0     985.4    NA       0.0000   9999     4230  0     0    
2019/11/14  18:38:00  BASE  1.5582   113  2.32848  104  -3.6  91    -4.8  503   0     985.4    NA       0.0000   9999     4170  0     0    
2019/11/14  18:39:00  BASE  1.47588  109  2.32848  104  -3.6  91    -4.8  500   0     985.3    NA       0.0000   9999     4170  0     0    
2019/11/14  18:40:00  BASE  1.62288  107  2.32848  104  -3.6  92    -4.7  483   0     985.3    NA       0.0000   9999     4170  20600 0    
2019/11/14  18:41:00  BASE  2.0874   111  2.48136  116  -3.5  92    -4.7  461   0     985.3    NA       0.0000   9999     4200  0     0    
2019/11/14  18:42:00  BASE  2.14032  117  2.48136  116  -3.5  92    -4.6  445   0     985.2    NA       0.0000   9999     4130  0     0    
2019/11/14  18:43:00  BASE  2.14032  121  2.48136  116  -3.5  92    -4.6  429   0     985.2    NA       0.0000   9999     4170  0     0    
2019/11/14  18:44:00  BASE  2.205    123  2.59896  128  -3.5  92    -4.7  408   0     985.2    NA       0.0000   9999     4200  0     0    
2019/11/14  18:45:00  BASE  2.04036  122  2.59896  128  -3.6  92    -4.7  389   0     985.2    NA       0.0000   9999     4270  0     0    
2019/11/14  18:46:00  BASE  1.93452  123  2.59896  128  -3.6  92    -4.7  375   0     985.2    NA       0.0000   9999     4200  0     0    
2019/11/14  18:47:00  BASE  2.40492  126  3.2046   126  -3.6  92    -4.7  367   0     985.2    NA       0.0000   9999     4170  0     0    
2019/11/14  18:48:00  BASE  2.82828  125  3.29868  135  -3.6  92    -4.7  365   0     985.1    NA       0.0000   9999     4130  0     0    
2019/11/14  18:49:00  BASE  2.78124  121  3.32808  119  -3.6  92    -4.7  364   0     985.1    NA       0.0000   9999     4070  0     0    
2019/11/14  18:50:00  BASE  2.94     118  3.62796  111  -3.6  92    -4.8  357   0     985.1    NA       0.0000   9999     4070  0     0    
2019/11/14  18:51:00  BASE  3.15756  117  3.62796  111  -3.7  92    -4.8  344   0     985.1    NA       0.0000   9999     4040  0     0    
2019/11/14  18:52:00  BASE  3.234    118  3.62796  124  -3.8  92    -4.8  334   0     985.1    NA       0.0000   9999     4070  0     0    
2019/11/14  18:53:00  BASE  3.11052  121  3.62796  124  -3.8  93    -4.8  327   0     985.1    NA       0.0000   9999     3970  22510 0    
2019/11/14  18:54:00  BASE  2.9694   121  3.62796  124  -3.8  93    -4.8  325   0     985.1    NA       0.0000   9999     3970  0     0    
2019/11/14  18:55:00  BASE  3.01056  122  3.62796  124  -3.9  93    -4.8  328   0     985.1    NA       0.0000   9999     3940  0     0    
2019/11/14  18:56:00  BASE  3.234    125  4.02192  127  -3.9  94    -4.8  331   0     985.0    NA       0.0000   9999     3810  0     0    
2019/11/14  18:57:00  BASE  3.51036  124  4.2042   126  -3.9  94    -4.7  336   0     984.9    NA       0.0000   9999     3770  0     0    
2019/11/14  18:58:00  BASE  3.69852  125  4.263    127  -3.9  94    -4.7  342   0     984.9    NA       0.0000   9999     3640  4490  0    
2019/11/14  18:59:00  BASE  3.92784  128  4.32768  129  -3.9  95    -4.6  349   0     984.8    NA       0.0000   9999     3710  4230  0    
2019/11/14  19:00:00  BASE  3.90432  129  4.32768  129  -3.9  95    -4.6  356   0     984.8    NA       0.0000   9999     4460  0     0    
2019/11/14  19:01:00  BASE  3.83376  129  4.68636  122  -3.9  96    -4.5  355   0     984.8    NA       0.0000   9999     4530  0     0    
2019/11/14  19:02:00  BASE  4.05132  128  4.68636  121  -3.9  96    -4.5  349   0     984.8    NA       0.0000   9999     4100  0     0    
2019/11/14  19:03:00  BASE  4.19244  128  4.75104  126  -3.9  96    -4.5  347   0     984.8    NA       0.0000   9999     4000  21000 0    
2019/11/14  19:04:00  BASE  4.13364  125  4.75104  126  -3.9  96    -4.4  349   0     984.7    NA       0.0000   9999     3840  4660  0    
2019/11/14  19:05:00  BASE  4.03368  118  4.75104  126  -3.9  96    -4.4  349   0     984.8    NA       0.0000   9999     3510  0     0    
2019/11/14  19:06:00  BASE  3.77496  116  4.75104  126  -4.0  97    -4.4  348   0     984.8    NA       0.0000   9999     3280  0     0    
2019/11/14  19:07:00  BASE  3.90432  125  4.75104  134  -4.0  97    -4.4  349   0     984.7    NA       0.0000   9999     3050  0     0    
2019/11/14  19:08:00  BASE  4.3218   129  5.02152  123  -4.0  97    -4.4  346   0     984.7    NA       0.0000   9999     3280  0     0    
2019/11/14  19:09:00  BASE  4.13952  128  5.02152  123  -3.9  97    -4.3  346   0     984.7    NA       0.0000   9999     3150  21420 0    
2019/11/14  19:10:00  BASE  3.66912  125  5.02152  123  -3.9  97    -4.3  351   0     984.8    NA       0.0000   9999     3280  0     0    
2019/11/14  19:11:00  BASE  3.66912  122  5.02152  123  -3.9  97    -4.3  352   0     984.8    NA       0.0000   9999     3380  0     0    
2019/11/14  19:12:00  BASE  3.81612  125  5.02152  123  -3.9  98    -4.2  345   0     984.8    NA       0.0000   9999     3640  0     0    
2019/11/14  19:13:00  BASE  3.60444  128  5.02152  123  -3.9  98    -4.2  337   0     984.8    NA       0.0000   9999     3540  0     0    
2019/11/14  19:14:00  BASE  3.63972  132  5.02152  123  -3.9  98    -4.2  327   0     984.8    NA       0.0000   9999     3580  0     0    
2019/11/14  19:15:00  BASE  3.88668  137  5.02152  123  -3.9  98    -4.2  318   0     984.8    NA       0.0000   9999     3580  0     0    
2019/11/14  19:16:00  BASE  4.00428  135  5.02152  123  -3.9  98    -4.2  308   0     984.8    NA       0.0000   9999     3580  0     0    
2019/11/14  19:17:00  BASE  3.8808   135  5.02152  123  -3.9  98    -4.2  306   0     984.8    NA       0.0000   9999     3540  0     0    
2019/11/14  19:18:00  BASE  3.63384  138  4.75104  133  -3.9  98    -4.2  314   0     984.8    NA       0.0000   9999     3480  0     0    
2019/11/14  19:19:00  BASE  3.71028  136  4.59816  127  -3.9  98    -4.2  328   0     984.8    NA       0.0000   9999     3310  21330 0    
2019/11/14  19:20:00  BASE  4.06896  129  4.59816  117  -3.9  98    -4.2  339   0     984.8    NA       0.0000   9999     3450  0     0    
2019/11/14  19:21:00  BASE  4.16304  123  4.59816  117  -3.9  98    -4.2  348   0     984.8    NA       0.0000   9999     2690  0     0    
2019/11/14  19:22:00  BASE  3.9984   123  4.59816  117  -3.9  98    -4.2  360   0     984.8    NA       0.0000   9999     2460  21590 0    
2019/11/14  19:23:00  BASE  3.9396   128  4.86864  137  -4.0  98    -4.2  371   0     984.8    NA       0.0000   9999     3540  0     0    
2019/11/14  19:24:00  BASE  3.9396   130  5.02152  132  -4.0  98    -4.2  371   0     984.7    NA       0.0000   9999     3580  0     0    
2019/11/14  19:25:00  BASE  4.40412  128  5.145    127  -4.0  99    -4.1  370   0     984.7    NA       0.0000   9999     3670  0     0    
2019/11/14  19:26:00  BASE  4.69812  127  5.145    127  -4.0  99    -4.1  371   0     984.7    NA       0.0000   9999     3670  0     0    
2019/11/14  19:27:00  BASE  4.52172  128  5.145    127  -4.0  99    -4.2  374   0     984.7    NA       0.0000   9999     820   0     0    
2019/11/14  19:28:00  BASE  4.57464  128  5.145    127  -4.0  99    -4.2  370   0     984.7    NA       0.0000   9999     620   0     0    
2019/11/14  19:29:00  BASE  4.62756  128  5.145    127  -4.1  98    -4.3  355   0     984.7    NA       0.0000   6000     460   0     0    
2019/11/14  19:30:00  BASE  4.6746   129  5.2038   127  -4.1  98    -4.3  343   0     984.7    NA       0.0000   -SN      5000  330   0    
2019/11/14  19:31:00  BASE  4.76868  126  5.59776  121  -4.1  98    -4.4  337   0     984.6    NA       0.0000   -SN      BR    2500  21650
2019/11/14  19:32:00  BASE  4.40412  113  5.59776  102  -4.1  98    -4.4  329   0     984.6    NA       0.0000   -SN      BR    1800  0    
2019/11/14  19:33:00  BASE  4.06308  114  5.59776  102  -4.1  98    -4.4  325   0     984.6    NA       0.0000   -SN      BR    2800  300  
2019/11/14  19:34:00  BASE  4.6746   124  5.99172  126  -4.0  98    -4.4  316   0     984.5    NA       0.0000   -SN      BR    8000  300  
2019/11/14  19:35:00  BASE  5.39196  125  6.10932  122  -4.0  97    -4.4  304   0     984.5    NA       0.0000   -SN      BR    7000  300  
2019/11/14  19:36:00  BASE  5.06856  123  6.10932  122  -4.0  97    -4.4  295   0     984.5    NA       0.0000   -SN      BR    7000  0    
2019/11/14  19:37:00  BASE  4.92744  122  6.10932  122  -4.1  97    -4.5  290   0     984.3    NA       0.0000   -SN      BR    9000  0    
2019/11/14  19:38:00  BASE  5.145    127  6.10932  122  -4.1  97    -4.5  289   0     984.4    NA       0.0000   -SN      BR    9999  0    
2019/11/14  19:39:00  BASE  4.63932  127  6.10932  122  -4.2  97    -4.6  287   0     984.3    NA       0.0000   -SN      BR    9999  0    
2019/11/14  19:40:00  BASE  3.68676  120  6.10932  122  -4.2  97    -4.6  283   0     984.3    NA       0.0000   -SN      BR    9999  0    
2019/11/14  19:41:00  BASE  3.35748  119  6.10932  122  -4.2  97    -4.5  279   0     984.4    NA       0.0000   -SN      BR    6000  0    
2019/11/14  19:42:00  BASE  4.6158   117  6.2622   113  -4.2  97    -4.5  275   0     984.3    NA       0.0000   -SN      BR    2400  0    
2019/11/14  19:43:00  BASE  5.93292  113  6.98544  105  -4.2  98    -4.5  269   0     984.3    NA       0.0000   -SN      BR    2700  0    
2019/11/14  19:44:00  BASE  5.63892  111  6.98544  105  -4.2  98    -4.5  263   0     984.3    NA       0.0000   -SN      BR    3000  22510
2019/11/14  19:45:00  BASE  5.04504  117  6.98544  105  -4.2  98    -4.4  261   0     984.3    NA       0.0000   -SN      BR    3000  0    
2019/11/14  19:46:00  BASE  5.12148  121  6.98544  105  -4.2  98    -4.5  262   0     984.2    NA       0.0000   -SN      BR    5000  0    
2019/11/14  19:47:00  BASE  5.07444  119  6.98544  105  -4.2  98    -4.4  264   0     984.2    NA       0.0000   -SN      BR    2600  4720 
2019/11/14  19:48:00  BASE  5.00388  120  6.98544  105  -4.2  98    -4.4  265   0     984.1    NA       0.0000   -SN      BR    3200  0    
2019/11/14  19:49:00  BASE  5.4978   124  6.98544  105  -4.2  99    -4.3  266   0     984.1    NA       0.0000   -SN      BR    3200  0    
2019/11/14  19:50:00  BASE  5.51544  124  6.98544  105  -4.1  99    -4.3  268   0     984.1    NA       0.0000   -SN      BR    9999  390  
2019/11/14  19:51:00  BASE  5.75064  121  6.98544  121  -4.1  99    -4.3  267   0     984.0    NA       0.0000   -SN      BR    9000  0    
2019/11/14  19:52:00  BASE  6.10344  122  6.98544  121  -4.1  99    -4.3  259   0     984.0    NA       0.0000   -SN      BR    8000  360  
2019/11/14  19:53:00  BASE  5.66244  126  6.98544  121  -4.2  99    -4.3  247   0     984.1    NA       0.0000   -SN      BR    9000  330  
2019/11/14  19:54:00  BASE  5.39784  127  6.98544  121  -4.2  99    -4.3  238   0     984.1    NA       0.0000   -SN      BR    9999  360  
2019/11/14  19:55:00  BASE  5.30376  124  6.98544  121  -4.2  100   -4.2  230   0     984.1    NA       0.0000   -SN      BR    9000  330  
2019/11/14  19:56:00  BASE  5.4684   121  6.98544  121  -4.2  100   -4.2  225   0     984.1    NA       0.0000   -SN      BR    9999  360  
2019/11/14  19:57:00  BASE  5.4684   123  6.98544  121  -4.2  100   -4.2  223   0     984.1    NA       0.0000   -SN      BR    9999  3220 
2019/11/14  19:58:00  BASE  5.10972  124  6.98544  121  -4.2  100   -4.2  225   0     984.1    NA       0.0000   -SN      BR    7000  3220 
2019/11/14  19:59:00  BASE  4.87452  121  6.98544  121  -4.2  100   -4.2  226   0     984.1    NA       0.0000   -SN      BR    4200  2400 
2019/11/14  20:00:00  BASE  4.86276  121  6.98544  121  -4.2  100   -4.2  227   0     984.1    NA       0.0000   -SN      BR    9999  2430 
2019/11/14  20:01:00  BASE  4.998    122  6.321    124  -4.2  100   -4.2  227   0     984.1    NA       0.0000   -SN      BR    9999  2560 
2019/11/14  20:02:00  BASE  5.08032  124  6.10932  130  -4.3  100   -4.3  229   0     984.1    NA       0.0000   -SN      BR    9999  2460 
2019/11/14  20:03:00  BASE  5.08032  123  6.07992  117  -4.3  100   -4.3  231   0     984.1    NA       0.0000   -SN      BR    9999  2300 
2019/11/14  20:04:00  BASE  5.07444  121  6.07992  117  -4.3  100   -4.3  233   0     984.1    NA       0.0000   -SN      BR    9999  3180 
2019/11/14  20:05:00  BASE  4.95096  120  6.07992  117  -4.3  100   -4.3  235   0     984.1    NA       0.0000   -SN      BR    9999  2950 
2019/11/14  20:06:00  BASE  4.98036  119  5.74476  127  -4.3  100   -4.3  236   0     984.1    NA       0.0000   -SN      BR    9999  2920 
2019/11/14  20:07:00  BASE  5.15676  118  5.68596  117  -4.3  100   -4.3  236   0     984.1    NA       0.0000   -SN      9999  3080  0    
2019/11/14  20:08:00  BASE  5.15088  119  5.68596  117  -4.3  100   -4.3  236   0     984.1    NA       0.0000   -SN      9999  3080  0    
2019/11/14  20:09:00  BASE  4.98036  120  5.68596  117  -4.3  100   -4.3  233   0     984.1    NA       0.0000   -SN      9999  2820  0    
2019/11/14  20:10:00  BASE  5.26848  122  5.99172  128  -4.3  100   -4.3  228   0     984.1    NA       0.0000   -SN      9999  2920  0    
2019/11/14  20:11:00  BASE  5.45664  125  5.99172  128  -4.3  100   -4.3  225   0     984.1    NA       0.0000   -SN      9999  2920  0    
2019/11/14  20:12:00  BASE  5.57424  122  6.2328   119  -4.3  100   -4.3  226   0     984.1    NA       0.0000   -SN      9999  2890  0    
2019/11/14  20:13:00  BASE  5.63892  122  6.2328   119  -4.3  100   -4.4  226   0     984.1    NA       0.0000   -SN      9999  2850  0    
2019/11/14  20:14:00  BASE  5.33904  125  6.2328   119  -4.3  99    -4.4  224   0     984.0    NA       0.0000   -SN      9999  3050  0    
2019/11/14  20:15:00  BASE  5.63304  125  6.3798   118  -4.3  99    -4.4  224   0     984.0    NA       0.0000   -SN      9999  3020  0    
2019/11/14  20:16:00  BASE  5.96232  125  6.3798   118  -4.3  98    -4.5  224   0     984.0    NA       0.0000   -SN      9999  2990  0    
2019/11/14  20:17:00  BASE  5.70948  126  6.3798   118  -4.3  98    -4.5  222   0     984.0    NA       0.0000   -SN      9999  2920  0    
2019/11/14  20:18:00  BASE  5.80944  128  6.44448  127  -4.2  98    -4.5  219   0     983.9    NA       0.0000   -SN      9999  2850  0    
2019/11/14  20:19:00  BASE  6.26808  128  6.68556  126  -4.2  98    -4.5  218   0     983.9    NA       0.0000   -SN      9999  2790  23430
2019/11/14  20:20:00  BASE  6.30924  130  6.68556  126  -4.2  98    -4.5  216   0     983.8    NA       0.0000   -SN      9999  2920  0    
2019/11/14  20:21:00  BASE  6.04464  131  6.68556  126  -4.2  98    -4.5  214   0     983.7    NA       0.0000   -SN      9999  2890  0    
2019/11/14  20:22:00  BASE  6.00348  130  6.68556  126  -4.2  98    -4.5  212   0     983.7    NA       0.0000   -SN      9999  2820  0    
2019/11/14  20:23:00  BASE  6.24456  132  6.77376  130  -4.2  98    -4.5  211   0     983.7    NA       0.0000   -SN      9999  1640  0    
2019/11/14  20:24:00  BASE  6.2916   133  6.77376  130  -4.2  98    -4.5  210   0     983.7    NA       0.0000   -SN      9999  2030  0    
2019/11/14  20:25:00  BASE  5.69772  136  6.77376  130  -4.2  98    -4.5  209   0     983.7    NA       0.0000   -SN      9999  1350  0    
2019/11/14  20:26:00  BASE  5.36256  141  6.77376  130  -4.2  98    -4.4  208   0     983.6    NA       0.0000   -SN      9999  2260  0    
2019/11/14  20:27:00  BASE  5.77416  139  6.77376  130  -4.2  99    -4.4  207   0     983.5    NA       0.0000   -SN      9999  2130  0    
2019/11/14  20:28:00  BASE  6.00348  133  6.77376  130  -4.2  99    -4.4  205   0     983.5    NA       0.0000   -SN      9999  2130  0    
2019/11/14  20:29:00  BASE  6.15048  130  7.05012  128  -4.2  99    -4.4  206   0     983.5    NA       0.0000   -SN      9999  2030  0    
2019/11/14  20:30:00  BASE  6.60324  130  7.35     136  -4.3  99    -4.4  211   0     983.4    NA       0.0000   -SN      9999  1610  0    
2019/11/14  20:31:00  BASE  6.86784  131  7.35     136  -4.3  99    -4.4  219   0     983.4    NA       0.0000   -SN      9999  2200  0    
2019/11/14  20:32:00  BASE  6.5562   130  7.35     136  -4.3  99    -4.4  225   0     983.4    NA       0.0000   -SN      9999  1710  0    
2019/11/14  20:33:00  BASE  6.45624  128  7.35     136  -4.3  99    -4.4  226   0     983.3    NA       0.0000   -SN      9999  1380  0    
2019/11/14  20:34:00  BASE  6.46212  129  7.35     136  -4.3  99    -4.4  225   0     983.3    NA       0.0000   -SN      9999  1870  0    
2019/11/14  20:35:00  BASE  6.46212  130  7.35     136  -4.3  99    -4.4  223   0     983.3    NA       0.0000   -SN      9999  1940  0    
2019/11/14  20:36:00  BASE  6.67968  130  7.35     136  -4.3  99    -4.4  216   0     983.3    NA       0.0000   -SN      9999  2070  0    
2019/11/14  20:37:00  BASE  6.5562   131  7.35     136  -4.3  99    -4.4  209   0     983.3    NA       0.0000   -SN      9999  1840  2820 
2019/11/14  20:38:00  BASE  6.32688  132  7.35     136  -4.3  99    -4.4  204   0     983.3    NA       0.0000   -SN      9999  1510  0    
2019/11/14  20:39:00  BASE  6.09756  132  7.35     136  -4.3  99    -4.3  198   0     983.4    NA       0.0000   -SN      9999  1050  0    
2019/11/14  20:40:00  BASE  5.95644  132  7.2618   132  -4.2  100   -4.3  192   0     983.4    NA       0.0000   -SN      9999  2720  0    
2019/11/14  20:41:00  BASE  5.48604  133  6.98544  130  -4.2  100   -4.3  185   0     983.4    NA       0.0000   -SN      9999  2000  0    
2019/11/14  20:42:00  BASE  4.82748  135  6.98544  130  -4.2  100   -4.2  178   0     983.3    NA       0.0000   9999     1770  0     0    
2019/11/14  20:43:00  BASE  4.66284  135  6.95604  128  -4.2  100   -4.2  172   0     983.4    NA       0.0000   9999     1770  0     0    
2019/11/14  20:44:00  BASE  4.83924  133  6.95604  128  -4.2  100   -4.2  167   0     983.5    NA       0.0000   9999     1380  0     0    
2019/11/14  20:45:00  BASE  4.76868  134  6.92664  129  -4.2  100   -4.2  166   0     983.4    NA       0.0000   9999     1350  0     0    
2019/11/14  20:46:00  BASE  4.66872  138  6.62676  133  -4.2  100   -4.2  169   0     983.4    NA       0.0000   -SN      9999  1410  0    
2019/11/14  20:47:00  BASE  4.95684  141  6.62676  133  -4.2  100   -4.2  173   0     983.3    NA       0.0000   9999     1310  0     0    
2019/11/14  20:48:00  BASE  5.36256  139  6.2622   132  -4.2  100   -4.2  175   0     983.2    NA       0.0000   9999     1440  0     0    
2019/11/14  20:49:00  BASE  5.83884  139  6.41508  138  -4.2  100   -4.2  174   0     983.1    NA       0.0000   -SN      9999  2950  0    
2019/11/14  20:50:00  BASE  6.16224  139  7.05012  140  -4.2  100   -4.2  173   0     983.1    NA       0.0000   -SN      9999  2950  0    
2019/11/14  20:51:00  BASE  6.15636  139  7.05012  140  -4.2  100   -4.2  173   0     983.1    NA       0.0000   -SN      9999  3050  0    
2019/11/14  20:52:00  BASE  6.16812  138  7.05012  140  -4.2  100   -4.2  175   0     983.0    NA       0.0000   -SN      9999  3050  0    
2019/11/14  20:53:00  BASE  6.37392  136  7.05012  140  -4.2  100   -4.2  178   0     982.9    NA       0.0000   -SN      9999  3080  0    
2019/11/14  20:54:00  BASE  6.5562   135  7.07952  135  -4.2  100   -4.2  181   0     982.9    NA       0.0000   -SN      9999  2990  0    
2019/11/14  20:55:00  BASE  6.72672  136  7.16772  139  -4.2  100   -4.2  184   0     982.9    NA       0.0000   -SN      9999  2920  0    
2019/11/14  20:56:00  BASE  6.5268   139  7.19712  140  -4.2  100   -4.2  185   0     982.8    NA       0.0000   9999     3050  4000  0    
2019/11/14  20:57:00  BASE  6.13872  141  7.19712  140  -4.2  100   -4.2  185   0     982.9    NA       0.0000   9999     3220  3970  0    
2019/11/14  20:58:00  BASE  5.84472  142  7.19712  140  -4.2  100   -4.2  182   0     982.9    NA       0.0000   9999     3080  0     0    
2019/11/14  20:59:00  BASE  5.72124  140  7.19712  140  -4.1  100   -4.1  181   0     982.9    NA       0.0000   9999     3020  0     0    
2019/11/14  21:00:00  BASE  5.78592  136  7.19712  140  -4.1  100   -4.1  180   0     982.9    NA       0.0000   9999     3050  0     0    
2019/11/14  21:01:00  BASE  5.60364  136  7.19712  140  -4.1  100   -4.1  180   0     982.9    NA       0.0000   9999     2890  0     0    
2019/11/14  21:02:00  BASE  5.292    135  7.19712  140  -4.1  100   -4.1  183   0     982.9    NA       0.0000   9999     2990  0     0    
2019/11/14  21:03:00  BASE  4.9686   136  7.19712  140  -4.1  100   -4.1  188   0     982.9    NA       0.0000   9999     3020  0     0    
2019/11/14  21:04:00  BASE  4.7628   139  7.19712  140  -4.1  100   -4.1  195   0     982.8    NA       0.0000   9999     2990  0     0    
2019/11/14  21:05:00  BASE  4.65696  139  7.19712  140  -4.1  100   -4.1  199   0     982.8    NA       0.0000   9999     3050  3970  0    
2019/11/14  21:06:00  BASE  4.6746   140  6.74436  143  -4.1  100   -4.1  201   0     982.8    NA       0.0000   9999     3050  3970  0    
2019/11/14  21:07:00  BASE  4.851    139  6.71496  138  -4.1  100   -4.1  202   0     982.8    NA       0.0000   9999     3940  0     0    
2019/11/14  21:08:00  BASE  5.00976  139  6.71496  138  -4.0  100   -4.0  202   0     982.8    NA       0.0000   9999     3640  0     0    
2019/11/14  21:09:00  BASE  4.71576  139  6.2622   136  -4.0  100   -4.0  201   0     982.8    NA       0.0000   9999     3080  3580  0    
2019/11/14  21:10:00  BASE  4.32768  135  5.99172  136  -4.0  100   -4.0  203   0     982.8    NA       0.0000   9999     3050  3670  0    
2019/11/14  21:11:00  BASE  4.08072  131  5.71536  130  -4.0  100   -4.0  206   0     982.8    NA       0.0000   9999     1800  0     0    
2019/11/14  21:12:00  BASE  3.83964  129  5.68596  145  -4.0  100   -4.0  208   0     982.8    NA       0.0000   9999     3120  0     0    
2019/11/14  21:13:01  BASE  3.89844  130  5.68596  145  -4.0  100   -4.0  209   0     982.7    NA       0.0000   9999     3020  0     0    
2019/11/14  21:14:01  BASE  4.19244  136  5.68596  145  -4.0  100   -4.0  210   0     982.6    NA       0.0000   9999     3020  3670  0    
2019/11/14  21:15:01  BASE  5.00388  140  5.99172  143  -4.0  100   -4.0  212   0     982.6    NA       0.0000   9999     3020  3740  0    
2019/11/14  21:16:01  BASE  5.36256  140  5.99172  143  -4.0  100   -4.0  215   0     982.6    NA       0.0000   9999     3120  0     0    
2019/11/14  21:17:01  BASE  4.91568  141  5.99172  143  -4.0  100   -4.0  214   0     982.6    NA       0.0000   9999     3120  0     0    
2019/11/14  21:18:01  BASE  4.75104  142  5.99172  143  -4.0  100   -4.0  214   0     982.6    NA       0.0000   9999     3080  17000 19720
2019/11/14  21:19:01  BASE  4.85688  138  5.99172  143  -4.0  100   -4.0  218   0     982.6    NA       0.0000   9999     3080  0     0    
2019/11/14  21:20:01  BASE  4.84512  135  5.99172  143  -4.0  100   -4.0  225   0     982.6    NA       0.0000   9999     3120  0     0    
2019/11/14  21:21:01  BASE  4.89804  132  5.99172  143  -4.0  100   -4.0  232   0     982.6    NA       0.0000   9999     3080  0     0    
2019/11/14  21:22:01  BASE  4.93332  133  5.99172  143  -4.0  100   -4.0  224   0     982.6    NA       0.0000   9999     3150  0     0    
2019/11/14  21:23:01  BASE  5.06856  135  5.99172  143  -3.9  100   -3.9  212   0     982.6    NA       0.0000   9999     3150  0     0    
2019/11/14  21:24:01  BASE  4.94508  136  5.99172  143  -3.9  100   -3.9  203   0     982.6    NA       0.0000   9999     3150  0     0    
2019/11/14  21:25:01  BASE  4.63344  141  5.68596  135  -3.9  100   -3.9  197   0     982.6    NA       0.0000   9999     3150  0     0    
2019/11/14  21:26:01  BASE  4.24536  146  5.68596  135  -3.9  100   -3.9  195   0     982.6    NA       0.0000   9999     3020  0     0    
2019/11/14  21:27:01  BASE  3.72204  152  5.68596  135  -3.8  100   -3.8  200   0     982.6    NA       0.0000   9999     2990  0     0    
2019/11/14  21:28:01  BASE  3.9984   156  5.68596  135  -3.8  100   -3.8  212   0     982.5    NA       0.0000   9999     2990  0     0    
2019/11/14  21:29:01  BASE  4.53348  155  5.68596  135  -3.7  100   -3.7  222   0     982.4    NA       0.0000   9999     3080  0     0    
2019/11/14  21:30:01  BASE  4.32768  152  5.68596  135  -3.7  100   -3.7  223   0     982.4    NA       0.0000   9999     3050  0     0    
2019/11/14  21:31:01  BASE  3.92784  146  5.68596  135  -3.7  100   -3.7  219   0     982.4    NA       0.0000   9999     2990  0     0    
2019/11/14  21:32:01  BASE  3.57504  127  5.68596  135  -3.7  100   -3.7  209   0     982.4    NA       0.0000   9999     2990  0     0    
2019/11/14  21:33:01  BASE  3.15168  112  5.292    151  -3.7  100   -3.7  204   0     982.4    NA       0.0000   9999     2950  0     0    
2019/11/14  21:34:01  BASE  2.7048   121  5.292    151  -3.7  100   -3.7  205   0     982.4    NA       0.0000   9999     2850  22410 0    
2019/11/14  21:35:01  BASE  2.41668  128  5.292    151  -3.7  100   -3.7  211   0     982.3    NA       0.0000   9999     2920  0     0    
2019/11/14  21:36:01  BASE  2.22264  135  5.292    151  -3.7  100   -3.7  215   0     982.3    NA       0.0000   9999     2820  0     0    
2019/11/14  21:37:01  BASE  2.32848  148  5.292    151  -3.7  99    -3.8  212   0     982.3    NA       0.0000   9999     2720  0     0    
2019/11/14  21:38:01  BASE  2.72244  157  5.292    151  -3.7  99    -3.8  206   0     982.3    NA       0.0000   9999     2590  20050 0    
2019/11/14  21:39:01  BASE  2.94     159  4.35708  146  -3.7  99    -3.8  200   0     982.3    NA       0.0000   9999     2820  0     0    
2019/11/14  21:40:01  BASE  3.28104  157  4.35708  146  -3.6  99    -3.8  191   0     982.3    NA       0.0000   9999     2530  0     0    
2019/11/14  21:41:01  BASE  3.52212  153  4.32768  99   -3.6  99    -3.8  182   0     982.3    NA       0.0000   9999     2360  0     0    
2019/11/14  21:42:01  BASE  3.7338   149  4.2042   147  -3.6  99    -3.8  178   0     982.2    NA       0.0000   9999     2100  0     0    
2019/11/14  21:43:01  BASE  4.16304  151  4.62756  159  -3.6  99    -3.8  179   0     982.2    NA       0.0000   9999     2100  0     0    
2019/11/14  21:44:01  BASE  4.29828  153  4.62756  159  -3.6  98    -3.9  189   0     982.2    NA       0.0000   9999     1900  0     0    
2019/11/14  21:45:01  BASE  4.15128  154  4.62756  159  -3.6  98    -3.9  197   0     982.2    NA       0.0000   9999     2200  0     0    
2019/11/14  21:46:01  BASE  4.31004  154  4.80984  150  -3.6  98    -3.9  200   0     982.2    NA       0.0000   9999     1940  0     0    
2019/11/14  21:47:01  BASE  4.31004  152  4.80984  150  -3.7  98    -3.9  202   0     982.2    NA       0.0000   9999     2230  0     0    
2019/11/14  21:48:01  BASE  4.2042   149  4.80984  150  -3.6  98    -3.9  196   0     982.2    NA       0.0000   9999     2360  0     0    
2019/11/14  21:49:01  BASE  4.19244  149  4.80984  150  -3.6  98    -3.9  187   0     982.2    NA       0.0000   9999     2790  0     0    
2019/11/14  21:50:01  BASE  4.18068  149  4.80984  150  -3.6  98    -3.9  178   0     982.2    NA       0.0000   9999     1840  0     0    
2019/11/14  21:51:01  BASE  4.22184  151  4.80984  150  -3.6  98    -3.9  170   0     982.2    NA       0.0000   9999     920   0     0    
2019/11/14  21:52:01  BASE  3.96312  149  4.80984  150  -3.6  98    -3.9  161   0     982.2    NA       0.0000   9999     2490  0     0    
2019/11/14  21:53:01  BASE  3.73968  142  4.80984  150  -3.6  98    -3.9  156   0     982.1    NA       0.0000   9999     2850  0     0    
2019/11/14  21:54:01  BASE  3.97488  144  4.80984  150  -3.6  98    -3.9  153   0     982.1    NA       0.0000   9999     2260  0     0    
2019/11/14  21:55:01  BASE  4.263    152  4.80984  150  -3.6  98    -3.9  154   0     982.1    NA       0.0000   9999     2330  0     0    
2019/11/14  21:56:01  BASE  4.25124  150  4.65696  150  -3.6  98    -3.9  154   0     982.1    NA       0.0000   9999     2260  0     0    
2019/11/14  21:57:01  BASE  3.9396   141  4.65696  150  -3.6  98    -3.9  153   0     982.1    NA       0.0000   9999     2100  0     0    
2019/11/14  21:58:01  BASE  3.822    138  4.62756  149  -3.6  98    -3.9  152   0     982.1    NA       0.0000   9999     2000  0     0    
2019/11/14  21:59:01  BASE  3.94548  143  4.62756  149  -3.6  98    -3.9  152   0     982.1    NA       0.0000   9999     2200  0     0    
2019/11/14  22:00:01  BASE  4.06308  150  4.80984  153  -3.6  98    -3.8  152   0     982.0    NA       0.0000   9999     2460  0     0    
2019/11/14  22:01:01  BASE  4.59816  152  5.2626   152  -3.6  98    -3.8  150   0     982.0    NA       0.0000   9999     2560  0     0    
2019/11/14  22:02:01  BASE  4.93332  149  5.44488  149  -3.5  98    -3.8  148   0     982.0    NA       0.0000   9999     2690  0     0    
2019/11/14  22:03:01  BASE  4.41588  142  5.44488  149  -3.5  98    -3.8  145   0     982.0    NA       0.0000   9999     2200  0     0    
2019/11/14  22:04:01  BASE  4.2042   138  5.44488  149  -3.5  98    -3.8  143   0     981.9    NA       0.0000   9999     2260  0     0    
2019/11/14  22:05:01  BASE  4.52172  142  5.44488  149  -3.5  98    -3.8  141   0     981.8    NA       0.0000   9999     2100  0     0    
2019/11/14  22:06:01  BASE  4.6158   145  5.44488  149  -3.5  98    -3.8  140   0     981.8    NA       0.0000   9999     1970  0     0    
2019/11/14  22:07:01  BASE  4.36296  144  5.44488  149  -3.5  98    -3.8  138   0     981.8    NA       0.0000   9999     2460  0     0    
2019/11/14  22:08:01  BASE  3.8808   148  5.44488  149  -3.5  98    -3.8  138   0     981.8    NA       0.0000   9999     2760  0     0    
2019/11/14  22:09:01  BASE  3.7338   152  5.44488  149  -3.5  98    -3.7  137   0     981.8    NA       0.0000   9999     2950  0     0    
2019/11/14  22:10:01  BASE  4.03956  149  5.44488  149  -3.4  98    -3.7  136   0     981.8    NA       0.0000   9999     2990  0     0    
2019/11/14  22:11:01  BASE  4.48056  146  5.44488  149  -3.4  98    -3.7  136   0     981.8    NA       0.0000   9999     2990  0     0    
2019/11/14  22:12:01  BASE  4.704    144  5.2626   144  -3.4  98    -3.6  136   0     981.8    NA       0.0000   9999     3080  0     0    
2019/11/14  22:13:01  BASE  4.5276   141  5.2626   144  -3.3  98    -3.6  135   0     981.8    NA       0.0000   9999     2890  0     0    
2019/11/14  22:14:01  BASE  4.1748   140  5.2626   144  -3.3  98    -3.7  133   0     981.8    NA       0.0000   9999     2950  0     0    
2019/11/14  22:15:01  BASE  3.88668  138  5.2626   144  -3.3  97    -3.6  129   0     981.8    NA       0.0000   9999     2990  0     0    
2019/11/14  22:16:01  BASE  3.65736  133  5.2626   144  -3.3  97    -3.7  125   0     981.8    NA       0.0000   9999     2920  0     0    
2019/11/14  22:17:01  BASE  3.51624  132  5.2626   144  -3.3  97    -3.7  120   0     981.9    NA       0.0000   9999     2920  0     0    
2019/11/14  22:18:01  BASE  3.1164   130  5.2626   144  -3.2  97    -3.7  114   0     981.9    NA       0.0000   9999     2990  0     0    
2019/11/14  22:19:01  BASE  2.79888  129  5.2626   144  -3.2  96    -3.7  108   0     982.0    NA       0.0000   9999     2990  0     0    
2019/11/14  22:20:01  BASE  2.75184  128  5.2626   144  -3.2  96    -3.7  103   0     982.0    NA       0.0000   9999     2890  0     0    
2019/11/14  22:21:01  BASE  2.51664  122  4.96272  142  -3.1  96    -3.7  100   0     982.0    NA       0.0000   9999     2850  0     0    
2019/11/14  22:22:01  BASE  2.56956  120  4.59816  143  -3.1  96    -3.7  97    0     981.9    NA       0.0000   9999     2890  0     0    
2019/11/14  22:23:01  BASE  3.04584  130  4.41588  141  -3.1  95    -3.7  95    0     981.8    NA       0.0000   9999     2890  0     0    
2019/11/14  22:24:01  BASE  3.33396  144  4.2042   133  -3.0  95    -3.7  92    0     981.7    NA       0.0000   9999     2890  0     0    
2019/11/14  22:25:01  BASE  3.59268  157  4.44528  163  -3.0  95    -3.8  90    0     981.6    NA       0.0000   9999     2820  0     0    
2019/11/14  22:26:01  BASE  4.01016  161  4.44528  163  -3.0  94    -3.8  89    0     981.6    NA       0.0000   9999     2790  0     0    
2019/11/14  22:27:01  BASE  4.22184  154  4.62756  150  -3.0  94    -3.8  86    0     981.6    NA       0.0000   9999     2760  0     0    
2019/11/14  22:28:01  BASE  3.92196  146  4.62756  150  -3.0  94    -3.8  83    0     981.6    NA       0.0000   9999     2790  0     0    
2019/11/14  22:29:01  BASE  3.19872  142  4.62756  150  -3.0  94    -3.8  81    0     981.6    NA       0.0000   9999     2790  0     0    
2019/11/14  22:30:01  BASE  2.72832  138  4.62756  150  -3.0  94    -3.8  81    0     981.6    NA       0.0000   9999     2890  0     0    
2019/11/14  22:31:01  BASE  2.96352  138  4.62756  150  -3.0  94    -3.8  81    0     981.6    NA       0.0000   9999     2820  0     0    
2019/11/14  22:32:01  BASE  3.24576  143  4.62756  150  -3.0  94    -3.8  81    0     981.6    NA       0.0000   9999     2890  0     0    
2019/11/14  22:33:01  BASE  3.35748  147  4.62756  150  -3.0  95    -3.7  82    0     981.6    NA       0.0000   9999     2890  0     0    
2019/11/14  22:34:01  BASE  3.51036  147  4.62756  150  -2.9  95    -3.6  82    0     981.5    NA       0.0000   9999     2920  0     0    
2019/11/14  22:35:01  BASE  4.00428  147  4.80984  146  -2.9  95    -3.6  81    0     981.5    NA       0.0000   9999     2990  0     0    
2019/11/14  22:36:01  BASE  4.65108  147  5.08032  148  -2.9  95    -3.6  80    0     981.5    NA       0.0000   9999     2950  0     0    
2019/11/14  22:37:01  BASE  4.97448  147  5.38608  144  -2.9  95    -3.6  79    0     981.4    NA       0.0000   9999     2890  0     0    
2019/11/14  22:38:01  BASE  4.95096  144  5.38608  144  -2.9  95    -3.6  78    0     981.5    NA       0.0000   9999     2990  0     0    
2019/11/14  22:39:01  BASE  4.72752  141  5.38608  144  -2.9  95    -3.6  77    0     981.4    NA       0.0000   9999     3050  0     0    
2019/11/14  22:40:01  BASE  4.75104  145  5.53308  152  -2.9  95    -3.6  77    0     981.4    NA       0.0000   9999     3020  0     0    
2019/11/14  22:41:01  BASE  4.98624  150  5.56836  154  -2.9  95    -3.6  77    0     981.4    NA       0.0000   9999     3050  0     0    
2019/11/14  22:42:01  BASE  5.25084  149  5.56836  154  -2.9  95    -3.6  78    0     981.4    NA       0.0000   9999     2950  0     0    
2019/11/14  22:43:01  BASE  5.21556  139  5.86824  131  -2.9  95    -3.6  77    0     981.4    NA       0.0000   9999     3020  0     0    
2019/11/14  22:44:01  BASE  4.66284  134  5.86824  131  -2.9  95    -3.6  76    0     981.4    NA       0.0000   9999     3020  0     0    
2019/11/14  22:45:01  BASE  4.44528  145  5.86824  131  -3.0  96    -3.6  75    0     981.4    NA       0.0000   9999     2990  0     0    
2019/11/14  22:46:01  BASE  5.06856  153  6.56208  150  -3.0  96    -3.5  74    0     981.3    NA       0.0000   9999     3150  0     0    
2019/11/14  22:47:01  BASE  5.97408  154  6.59148  156  -3.0  96    -3.5  73    0     981.2    NA       0.0000   9999     3020  0     0    
2019/11/14  22:48:01  BASE  6.12108  155  6.59148  156  -3.0  97    -3.5  72    0     981.2    NA       0.0000   9999     3150  0     0    
2019/11/14  22:49:01  BASE  5.25084  147  6.59148  156  -3.0  97    -3.5  70    0     981.2    NA       0.0000   9999     3080  0     0    
2019/11/14  22:50:01  BASE  4.94508  141  6.59148  156  -3.1  97    -3.4  68    0     981.2    NA       0.0000   9999     3080  0     0    
2019/11/14  22:51:01  BASE  5.44488  149  7.3794   160  -3.1  98    -3.4  66    0     981.2    NA       0.0000   9999     2990  0     0    
2019/11/14  22:52:01  BASE  4.96272  158  7.3794   160  -3.1  98    -3.4  64    0     981.2    NA       0.0000   9999     3250  0     0    
2019/11/14  22:53:01  BASE  4.77456  153  7.59108  167  -3.1  98    -3.3  62    0     981.2    NA       0.0000   9999     3220  0     0    
2019/11/14  22:54:01  BASE  5.0568   145  7.59108  167  -3.1  99    -3.2  61    0     981.2    NA       0.0000   9999     3220  0     0    
2019/11/14  22:55:01  BASE  5.00976  147  7.59108  167  -3.0  99    -3.1  61    0     981.0    NA       0.0000   9999     3220  0     0    
2019/11/14  22:56:01  BASE  4.9098   160  7.59108  167  -3.0  100   -3.1  61    0     981.0    NA       0.0000   9999     3310  0     0    
2019/11/14  22:57:01  BASE  4.83924  161  7.59108  167  -3.0  100   -3.0  60    0     981.0    NA       0.0000   9999     3220  0     0    
2019/11/14  22:58:01  BASE  4.98036  150  7.59108  167  -3.0  100   -3.0  58    0     981.0    NA       0.0000   9999     3050  0     0    
2019/11/14  22:59:01  BASE  5.28612  139  7.59108  167  -3.0  100   -3.0  56    0     981.2    NA       0.0000   9999     3220  0     0    
2019/11/14  23:00:01  BASE  5.55072  141  7.59108  167  -3.0  100   -3.0  55    0     981.1    NA       0.0000   9999     3280  0     0    
2019/11/14  23:01:01  BASE  5.60364  155  7.59108  167  -3.0  100   -3.0  53    0     980.9    NA       0.0000   9999     3280  0     0    
2019/11/14  23:02:01  BASE  5.29788  161  7.59108  167  -3.0  100   -3.0  52    0     980.9    NA       0.0000   9999     3150  0     0    
2019/11/14  23:03:01  BASE  4.93332  163  6.44448  165  -3.0  100   -3.0  50    0     980.9    NA       0.0000   9999     3120  0     0    
2019/11/14  23:04:01  BASE  6.4386   159  8.59068  153  -3.0  100   -3.0  48    0     980.9    NA       0.0000   9999     3050  0     0    
2019/11/14  23:05:01  BASE  6.97956  142  8.59068  153  -3.0  100   -3.0  46    0     981.0    NA       0.0000   9999     3080  0     0    
2019/11/14  23:06:01  BASE  5.28612  134  8.59068  153  -3.0  100   -3.0  44    0     981.1    NA       0.0000   9999     3150  0     0    
2019/11/14  23:07:01  BASE  5.06856  145  8.59068  153  -3.0  100   -3.0  42    0     980.9    NA       0.0000   9999     3120  0     0    
2019/11/14  23:08:01  BASE  6.51504  149  8.59068  153  -2.9  100   -2.9  40    0     980.9    NA       0.0000   9999     3050  0     0    
2019/11/14  23:09:01  BASE  6.91488  141  8.59068  153  -3.0  100   -3.0  38    0     981.0    NA       0.0000   9999     2990  0     0    
2019/11/14  23:10:01  BASE  5.98584  141  8.59068  153  -3.0  100   -3.0  36    0     981.0    NA       0.0000   9999     2990  0     0    
2019/11/14  23:11:01  BASE  4.95096  142  8.59068  153  -3.0  100   -3.0  34    0     980.9    NA       0.0000   9999     2820  0     0    
2019/11/14  23:12:01  BASE  4.91568  143  8.59068  153  -3.0  100   -3.0  33    0     980.8    NA       0.0000   9999     2850  0     0    
2019/11/14  23:13:01  BASE  4.47468  142  8.59068  153  -2.9  100   -2.9  31    0     980.9    NA       0.0000   9999     2720  0     0    
2019/11/14  23:14:01  BASE  4.32768  127  8.07912  150  -2.8  100   -2.8  30    0     980.9    NA       0.0000   9999     2820  0     0    
2019/11/14  23:15:01  BASE  5.60364  124  8.07912  150  -2.7  100   -2.7  29    0     980.8    NA       0.0000   9999     2820  0     0    
2019/11/14  23:16:01  BASE  6.5268   137  8.07912  150  -2.7  100   -2.7  28    0     980.7    NA       0.0000   9999     2790  0     0    
2019/11/14  23:17:01  BASE  6.35628  144  8.07912  123  -2.6  100   -2.6  27    0     980.7    NA       0.0000   9999     2660  0     0    
2019/11/14  23:18:01  BASE  4.54524  140  8.07912  123  -2.3  100   -2.4  27    0     980.8    NA       0.0000   9999     2590  0     0    
2019/11/14  23:19:01  BASE  4.36296  144  8.07912  123  -2.2  99    -2.3  26    0     980.8    NA       0.0000   9999     2760  0     0    
2019/11/14  23:20:01  BASE  4.704    155  8.07912  123  -2.2  98    -2.4  26    0     980.8    NA       0.0000   9999     2690  0     0    
2019/11/14  23:21:01  BASE  3.59268  172  8.07912  123  -2.1  98    -2.4  25    0     980.8    NA       0.0000   9999     2690  0     0    
2019/11/14  23:22:01  BASE  2.66952  195  8.07912  123  -2.1  98    -2.4  25    0     980.8    NA       0.0000   9000     2260  2790  0    
2019/11/14  23:23:01  BASE  2.15796  214  8.07912  123  -2.3  97    -2.7  25    0     980.7    NA       0.0000   UP       8000  2300  2820 
2019/11/14  23:24:01  BASE  2.76948  184  8.07912  123  -2.3  97    -2.7  24    0     980.7    NA       0.0000   UP       7000  2400  0    
2019/11/14  23:25:01  BASE  4.7922   146  8.07912  123  -2.3  97    -2.7  24    0     980.6    NA       0.0000   UP       7000  2660  0    
2019/11/14  23:26:01  BASE  6.05052  138  8.07912  123  -2.3  97    -2.7  24    0     980.6    NA       0.0000   UP       9999  2300  2760 
2019/11/14  23:27:01  BASE  5.07444  143  7.3206   132  -2.3  97    -2.8  24    0     980.7    NA       0.0000   UP       9999  2130  2850 
2019/11/14  23:28:01  BASE  3.7926   146  7.3206   132  -2.4  97    -2.9  24    0     980.7    NA       0.0000   UP       9999  2720  0    
2019/11/14  23:29:01  BASE  3.3222   159  7.3206   132  -2.5  97    -3.0  23    0     980.6    NA       0.0000   UP       9999  3020  0    
2019/11/14  23:30:01  BASE  3.60444  180  7.3206   132  -2.5  97    -2.9  23    0     980.5    NA       0.0000   UP       9999  2820  0    
2019/11/14  23:31:01  BASE  3.7338   165  7.3206   132  -2.5  98    -2.8  22    0     980.6    NA       0.0000   UP       BR    9999  3020 
2019/11/14  23:32:01  BASE  4.3218   148  7.3206   132  -2.4  98    -2.7  23    0     980.5    NA       0.0000   UP       9999  2890  0    
2019/11/14  23:33:01  BASE  4.80984  159  7.3206   132  -2.4  98    -2.7  22    0     980.4    NA       0.0000   UP       9999  2720  0    
2019/11/14  23:34:01  BASE  5.18616  156  7.3206   132  -2.4  98    -2.6  22    0     980.4    NA       0.0000   UP       9999  2690  3380 
2019/11/14  23:35:01  BASE  6.6738   149  9.25512  138  -2.5  98    -2.7  21    0     980.2    NA       0.0000   UP       9999  2170  3310 
2019/11/14  23:36:01  BASE  6.67968  144  9.25512  138  -2.5  98    -2.8  21    0     980.4    NA       0.0000   UP       9999  2130  2820 
2019/11/14  23:37:01  BASE  5.47428  135  9.25512  138  -2.5  98    -2.8  20    0     980.4    NA       0.0000   UP       9999  2000  2560 
2019/11/14  23:38:01  BASE  5.58012  135  9.25512  138  -2.5  98    -2.7  20    0     980.4    NA       0.0000   UP       9999  2170  0    
2019/11/14  23:39:01  BASE  5.49192  125  9.25512  138  -2.4  98    -2.7  20    0     980.4    NA       0.0000   UP       9999  1940  2590 
2019/11/14  23:40:01  BASE  5.71536  110  9.25512  138  -2.4  99    -2.6  20    0     980.4    NA       0.0000   UP       9999  2030  0    
2019/11/14  23:41:01  BASE  6.80316  115  9.25512  138  -2.4  99    -2.5  20    0     980.4    NA       0.0000   UP       9999  2230  2720 
2019/11/14  23:42:01  BASE  6.5562   129  9.25512  138  -2.4  99    -2.5  20    0     980.4    NA       0.0000   UP       9999  1970  2790 
2019/11/14  23:43:01  BASE  5.59188  135  9.25512  138  -2.4  98    -2.6  20    0     980.4    NA       0.0000   UP       9999  1940  2790 
2019/11/14  23:44:01  BASE  5.38608  128  9.25512  138  -2.4  98    -2.7  19    0     980.5    NA       0.0000   UP       9999  1970  2890 
2019/11/14  23:45:01  BASE  5.92704  126  8.07912  129  -2.5  98    -2.8  19    0     980.4    NA       0.0000   UP       9999  2100  2790 
2019/11/14  23:46:01  BASE  6.73848  133  8.07912  129  -2.5  98    -2.8  18    0     980.2    NA       0.0000   UP       9999  2850  0    
2019/11/14  23:47:01  BASE  7.056    136  8.07912  129  -2.5  98    -2.8  18    0     980.2    NA       0.0000   UP       9999  2820  0    
2019/11/14  23:48:01  BASE  6.29748  137  8.07912  129  -2.5  98    -2.8  17    0     980.3    NA       0.0000   UP       9999  2920  0    
2019/11/14  23:49:01  BASE  5.19204  136  8.07912  129  -2.5  98    -2.7  16    0     980.5    NA       0.0000   UP       9999  2030  0    
2019/11/14  23:50:01  BASE  4.35708  134  8.07912  129  -2.4  98    -2.7  16    0     980.6    NA       0.0000   UP       9999  2130  0    
2019/11/14  23:51:01  BASE  3.71616  128  8.07912  129  -2.4  98    -2.7  15    0     980.5    NA       0.0000   UP       9999  2000  2720 
2019/11/14  23:52:01  BASE  3.62208  126  8.07912  129  -2.4  98    -2.6  15    0     980.4    NA       0.0000   UP       9999  2100  2820 
2019/11/14  23:53:01  BASE  3.45156  133  8.07912  129  -2.2  98    -2.5  14    0     980.4    NA       0.0000   UP       9999  2430  2950 
2019/11/14  23:54:01  BASE  3.234    144  8.07912  129  -2.1  98    -2.4  13    0     980.3    NA       0.0000   UP       9999  2850  0    
2019/11/14  23:55:01  BASE  2.68128  172  8.01444  138  -1.9  98    -2.1  13    0     980.3    NA       0.0000   UP       9999  1670  0    
2019/11/14  23:56:01  BASE  2.65776  187  8.01444  138  -1.6  98    -1.8  13    0     980.3    NA       0.0000   UP       9999  2490  0    
2019/11/14  23:57:01  BASE  4.76868  150  7.47348  117  -1.4  98    -1.7  13    0     980.2    NA       0.0000   UP       9999  2460  0    
2019/11/14  23:58:01  BASE  5.63304  129  7.47348  117  -1.3  97    -1.7  12    0     980.2    NA       0.0000   UP       9999  1940  0    
2019/11/14  23:59:01  BASE  5.58012  120  7.47348  117  -1.1  96    -1.7  12    0     980.1    NA       0.0000   UP       9999  2760  0